[[{"header":{"parameterUnit":"m.s-1","parameterCategory":1,"la1":31.0,"la2":29.5877,"lo1":-88.7671,"lo2":-86.6584,"dy":0.0162,"dx":0.0185,"nx":115,"ny":88,"refTime":"2023-07-10T12:00:00:Z","depth":0,"parameterNumber":2,"parameterNumberName":"U-component_of_WINDS"},"data":[0.0,0.0,0.0,0.0,0.0,0.0,0.0,0.0,0.0,0.0,0.0,0.0,0.0,0.0,0.0,0.0,0.0,0.0,0.0,0.0,0.0,0.0,0.0,0.0,0.0,0.0,0.0,0.0,0.0,0.0,0.0,0.0,0.0,0.0,0.0,0.0,0.0,0.0,0.0,0.0,0.0,0.0,0.0,0.0,0.0,0.0,0.0,0.0,0.0,0.0,0.0,0.0,0.0,0.0,0.0,0.0,0.0,0.0,0.0,0.0,0.0,0.0,0.0,0.0,0.0,0.0,0.0,0.0,0.0,0.0,0.0,0.0,0.0,0.0,0.0,0.0,0.0,0.0,0.0,0.0,0.0,0.0,0.0,0.0,0.0,0.0,0.0,0.0,0.0,0.0,0.0,0.0,0.0,0.0,0.0,0.0,0.0,0.0,0.0,0.0,0.0,0.0,0.0,0.0,0.0,0.0,0.0,0.0,0.0,0.0,0.0,0.0,0.0,0.0,0.0,0.0,0.0,0.0,0.0,0.0,0.0,0.0,0.0,0.0,0.0,0.0,0.0,0.0,0.0,0.0,0.0,0.0,0.0,0.0,0.0,0.0,0.0,0.0,0.0,0.0,0.0,0.0,0.0,0.0,0.0,0.0,0.0,0.0,0.0,0.0,0.0,0.0,0.0,0.0,0.0,0.0,0.0,0.0,0.0,0.0,0.0,0.0,0.0,0.0,0.0,0.0,0.0,0.0,0.0,0.0,0.0,0.0,0.0,0.0,0.0,0.0,0.0,0.0,0.0,0.0,0.0,0.0,0.0,0.0,0.0,0.0,0.0,0.0,0.0,0.0,0.0,0.0,0.0,0.0,0.0,0.0,0.0,0.0,0.0,0.0,0.0,0.0,0.0,0.0,0.0,0.0,0.0,0.0,0.0,0.0,0.0,0.0,0.0,0.0,0.0,0.0,0.0,0.0,0.0,0.0,0.0,0.0,0.0,0.0,0.0,0.0,0.0,0.0,0.0,0.0,0.0,0.0,0.0,0.0,0.0,0.0,0.0,0.0,0.0,0.0,0.0,0.0,0.0,0.0,0.0,0.0,0.0,0.0,0.0,0.0,0.0,0.0,0.0,0.0,0.0,0.0,0.0,0.0,0.0,0.0,0.0,0.0,0.0,0.0,0.0,0.0,0.0,0.0,0.0,0.0,0.0,0.0,0.0,0.0,0.0,0.0,0.0,0.0,0.0,0.0,0.0,0.0,0.0,0.0,0.0,0.0,0.0,0.0,0.0,0.0,0.0,0.0,0.0,0.0,0.0,0.0,0.0,0.0,0.0,0.0,0.0,0.0,0.0,0.0,0.0,0.0,0.0,0.0,0.0,0.0,0.0,0.0,0.0,0.0,0.0,0.0,0.0,0.0,0.0,0.0,0.0,0.0,0.0,0.0,0.0,0.0,0.0,0.0,0.0,0.0,0.0,0.0,0.0,0.0,0.0,0.0,0.0,0.0,0.0,0.0,0.0,0.0,0.0,0.0,0.0,0.0,0.0,0.0,0.0,0.0,0.0,0.0,0.0,0.0,0.0,0.0,0.0,0.0,0.0,0.0,0.0,0.0,0.0,0.0,0.0,0.0,0.0,0.0,0.0,0.0,0.0,0.0,0.0,0.0,0.0,0.0,0.0,0.0,0.0,0.0,0.0,0.0,0.0,0.0,0.0,0.0,0.0,0.0,0.0,0.0,0.0,0.0,0.0,0.0,0.0,0.0,0.0,0.0,0.0,0.0,0.0,0.0,0.0,0.0,0.0,0.0,0.0,0.0,0.0,0.0,0.0,0.0,0.0,0.0,0.0,0.0,0.0,0.0,0.0,0.0,0.0,0.0,0.0,0.0,0.0,0.0,0.0,0.0,0.0,0.0,0.0,0.0,0.0,0.0,0.0,0.0,0.0,0.0,0.0,0.0,0.0,0.0,0.0,0.0,0.0,0.0,0.0,0.0,0.0,0.0,0.0,0.0,0.0,0.0,0.0,0.0,0.0,0.0,0.0,0.0,0.0,0.0,0.0,0.0,0.0,0.0,0.0,0.0,0.0,0.0,0.0,0.0,0.0,0.0,0.0,0.0,0.0,0.0,0.0,0.0,0.0,0.0,0.0,0.0,0.0,0.0,0.0,0.0,0.0,0.0,0.0,0.0,0.0,0.0,0.0,0.0,0.0,0.0,0.0,0.0,0.0,0.0,0.0,0.0,0.0,0.0,0.0,0.0,0.0,0.0,0.0,0.0,0.0,0.0,0.0,0.0,0.0,0.0,0.0,0.0,0.0,0.0,0.0,0.0,0.0,0.0,0.0,0.0,0.0,0.0,0.0,0.0,0.0,0.0,0.0,0.0,0.0,0.0,0.0,0.0,0.0,0.0,0.0,0.0,0.0,0.0,0.0,0.0,0.0,0.0,0.0,0.0,0.0,0.0,0.0,0.0,0.0,0.0,0.0,0.0,0.0,0.0,0.0,0.0,0.0,0.0,0.0,0.0,0.0,0.0,0.0,0.0,0.0,0.0,0.0,0.0,0.0,0.0,0.0,0.0,0.0,0.0,0.0,0.0,0.0,0.0,0.0,0.0,0.0,0.0,0.0,0.0,0.0,0.0,0.0,0.0,0.0,0.0,0.0,0.0,0.0,0.0,0.0,0.0,0.0,0.0,0.0,0.0,0.0,0.0,0.0,0.0,0.0,0.0,0.0,0.0,0.0,0.0,0.0,0.0,0.0,0.0,0.0,0.0,0.0,0.0,0.0,0.0,0.0,0.0,0.0,0.0,0.0,0.0,0.0,0.0,0.0,0.0,0.0,0.0,0.0,0.0,0.0,0.0,0.0,0.0,0.0,0.0,0.0,0.0,0.0,0.0,0.0,0.0,0.0,0.0,0.0,0.0,0.0,0.0,0.0,0.0,0.0,0.0,0.0,0.0,0.0,0.0,0.0,0.0,0.0,0.0,0.0,0.0,0.0,0.0,0.0,0.0,0.0,0.0,0.0,0.0,0.0,0.0,0.0,0.0,0.0,0.0,0.0,0.0,0.0,0.0,0.0,0.0,0.0,0.0,0.0,0.0,0.0,0.0,0.0,0.0,0.0,0.0,0.0,0.0,0.0,0.0,0.0,0.0,0.0,0.0,0.0,0.0,0.0,0.0,0.0,0.0,0.0,0.0,0.0,0.0,0.0,0.0,0.0,0.0,0.0,0.0,0.0,0.0,0.0,0.0,0.0,0.0,0.0,0.0,0.0,0.0,0.0,0.0,0.0,0.0,0.0,0.0,0.0,0.0,0.0,0.0,0.0,0.0,0.0,0.0,0.0,0.0,0.0,0.0,0.0,0.0,0.0,0.0,0.0,0.0,0.0,0.0,0.0,0.0,0.0,0.0,0.0,0.0,0.0,0.0,0.0,0.0,0.0,0.0,0.0,0.0,0.0,0.0,0.0,0.0,0.0,0.0,0.0,0.0,0.0,0.0,0.0,0.0,0.0,0.0,0.0,0.0,0.0,0.0,0.0,0.0,0.0,0.0,0.0,0.0,0.0,0.0,0.0,0.0,0.0,0.0,0.0,0.0,0.0,0.0,0.0,0.0,0.0,0.0,0.0,0.0,0.0,0.0,0.0,0.0,0.0,0.0,0.0,0.0,0.0,0.0,0.0,0.0,0.0,0.0,0.0,0.0,0.0,0.0,0.0,0.0,0.0,0.0,0.0,0.0,0.0,0.0,0.0,0.0,0.0,0.0,0.0,0.0,0.0,0.0,0.0,0.0,0.0,0.0,0.0,0.0,0.0,0.0,0.0,0.0,0.0,0.0,0.0,0.0,0.0,0.0,0.0,0.0,0.0,0.0,0.0,0.0,0.0,0.0,0.0,0.0,0.0,0.0,0.0,0.0,0.0,0.0,0.0,0.0,0.0,0.0,0.0,0.0,0.0,0.0,0.0,0.0,0.0,0.0,0.0,0.0,0.0,0.0,0.0,0.0,0.0,0.0,0.0,0.0,0.0,0.0,0.0,0.0,0.0,0.0,0.0,0.0,0.0,0.0,0.0,0.0,0.0,0.0,0.0,0.0,0.0,0.0,0.0,0.0,0.0,0.0,0.0,0.0,0.0,0.0,0.0,0.0,0.0,0.0,0.0,0.0,0.0,0.0,0.0,0.0,0.0,0.0,0.0,0.0,0.0,0.0,0.0,0.0,0.0,0.0,0.0,0.0,0.0,0.0,0.0,0.0,0.0,0.0,0.0,0.0,0.0,0.0,0.0,0.0,1.4142,0.0,0.0,0.0,0.0,0.0,0.0,0.0,0.0,0.0,0.0,0.0,0.0,0.0,0.0,0.0,0.0,0.0,0.0,0.0,0.0,0.0,0.0,0.0,0.0,0.0,0.0,0.0,0.0,0.0,0.0,0.0,0.0,0.0,0.0,0.0,0.0,0.0,0.0,0.0,0.0,0.0,0.0,0.0,0.0,0.0,0.0,0.0,0.0,0.0,0.0,0.0,0.0,0.0,0.0,0.0,0.0,0.0,0.0,0.0,0.0,0.0,0.0,0.0,0.0,0.0,0.0,0.0,0.0,0.0,0.0,0.0,0.0,0.0,0.0,0.0,0.0,0.0,0.0,0.0,0.0,0.0,0.0,0.0,0.0,0.0,0.0,0.0,0.0,0.0,0.0,0.0,0.0,0.0,0.0,0.0,0.0,0.0,0.0,0.0,0.0,0.0,0.0,0.0,0.0,0.0,0.0,0.0,0.0,0.0,0.0,1.3399,1.3149,1.3523,1.3399,1.2725,0.0,0.0,0.0,0.0,0.0,0.0,0.0,0.0,0.0,0.0,0.0,0.0,0.0,0.0,0.0,0.0,0.0,0.0,0.0,0.0,0.0,0.0,0.0,0.0,0.0,0.0,0.0,0.0,0.0,0.0,0.0,0.0,0.0,0.0,0.0,0.0,0.0,0.0,0.0,0.0,0.0,0.0,0.0,0.0,0.0,0.0,0.0,0.0,0.0,0.0,0.0,0.0,0.0,0.0,0.0,0.0,0.0,0.0,0.0,0.0,0.0,0.0,0.0,0.0,0.0,0.0,0.0,0.0,0.0,0.0,0.0,0.0,0.0,0.0,0.0,0.0,0.0,0.0,0.0,0.0,0.0,0.0,0.0,0.0,0.0,0.0,0.0,0.0,0.0,0.0,0.0,0.0,0.0,0.0,0.0,0.0,0.0,0.0,0.0,0.0,0.0,0.0,0.0,0.0,0.0,0.0,0.0,0.0,0.0,0.0,0.0,0.0,1.3114,1.2722,1.1774,0.0,0.0,0.0,0.0,0.0,0.0,0.0,0.0,0.0,0.0,0.0,0.0,0.0,0.0,0.0,0.0,0.0,0.0,0.0,0.0,0.0,0.0,0.0,0.0,0.0,0.0,0.0,0.0,0.0,0.0,0.0,0.0,0.0,0.0,0.0,0.0,0.0,0.0,0.0,0.0,0.0,0.0,0.0,0.0,0.0,0.0,0.0,0.0,0.0,0.0,0.0,0.0,0.0,0.0,0.0,0.0,0.0,0.0,0.0,0.0,0.0,0.0,0.0,0.0,0.0,0.0,0.0,0.0,0.0,0.0,0.0,0.0,0.0,0.0,0.0,0.0,0.0,0.0,0.0,0.0,0.0,0.0,0.0,0.0,0.0,0.0,0.0,0.0,0.0,0.0,0.0,0.0,0.0,0.0,0.0,0.0,0.0,0.0,0.0,0.0,0.0,0.0,0.0,0.0,0.0,0.0,0.0,0.0,0.0,0.0,1.2789,1.3571,1.3655,0.0,1.2081,0.0,0.0,0.0,0.0,0.0,0.0,0.0,0.0,0.0,0.0,0.0,0.0,0.0,0.0,0.0,0.0,0.0,0.0,0.0,0.0,0.0,0.0,0.0,0.0,0.0,0.0,0.0,0.0,0.0,0.0,0.0,0.0,0.0,0.0,0.0,0.0,0.0,0.0,0.0,0.0,0.0,0.0,0.0,0.0,0.0,0.0,0.0,0.0,0.0,0.0,0.0,0.0,0.0,0.0,0.0,0.0,0.0,0.0,0.0,0.0,0.0,0.0,0.0,0.0,0.0,0.0,0.0,0.0,0.0,0.0,0.0,0.0,0.0,0.0,0.0,0.0,0.0,0.0,0.0,0.0,0.0,0.0,0.0,0.0,0.0,0.0,0.0,0.0,0.0,0.0,0.0,0.0,0.0,0.0,0.0,0.0,0.0,0.0,0.0,0.0,0.0,0.0,0.0,0.0,0.0,0.0,0.0,0.0,0.0,0.0,1.2311,1.2883,1.2596,1.2133,0.0,0.0,0.0,0.0,0.0,0.0,0.0,0.0,0.0,0.0,0.0,0.0,0.0,0.0,0.0,0.0,0.0,0.0,0.0,0.0,0.0,0.0,0.0,0.0,0.0,0.0,0.0,0.0,0.0,0.0,0.0,0.0,0.0,0.0,0.0,0.0,0.0,0.0,0.0,0.0,0.0,0.0,0.0,0.0,0.0,0.0,0.0,0.0,0.0,0.0,0.0,0.0,0.0,0.0,0.0,0.0,0.0,0.0,0.0,0.0,0.0,0.0,0.0,0.0,0.0,0.0,0.0,0.0,0.0,0.0,0.0,0.0,0.0,0.0,0.0,0.0,0.0,0.0,0.0,0.0,0.0,0.0,0.0,0.0,0.0,0.0,0.0,0.0,0.0,0.0,0.0,0.0,0.0,0.0,0.0,0.0,0.0,0.0,0.0,0.0,0.0,0.0,0.0,0.0,0.0,0.0,0.0,0.0,0.0,0.0,1.1353,1.2048,1.254,1.2244,1.1689,1.084,0.0,0.0,0.0,0.0,0.0,0.0,0.0,0.0,0.0,0.0,0.0,0.0,0.0,0.0,0.0,0.0,0.0,0.0,0.0,0.0,0.0,0.0,0.0,0.0,0.0,0.0,0.0,0.0,0.0,0.0,0.0,0.0,0.0,0.0,0.0,0.0,0.0,0.0,0.0,0.0,0.0,0.0,0.0,0.0,0.0,0.0,0.0,0.0,0.0,0.0,0.0,0.0,0.0,0.0,0.0,0.0,0.0,0.0,0.0,0.0,0.0,0.0,0.0,0.0,0.0,0.0,0.0,0.0,0.0,0.0,0.0,0.0,0.0,0.0,0.0,0.0,0.0,0.0,0.0,0.0,0.0,0.0,0.0,0.0,0.0,0.0,0.0,0.0,0.0,0.0,0.0,0.0,0.0,0.0,0.0,0.0,0.0,0.0,0.0,0.0,0.0,0.0,0.0,0.0,0.0,0.0,0.0,0.0,1.2726,1.2262,1.236,1.3274,1.3631,1.2622,0.0,0.0,0.0,0.0,0.0,0.0,0.0,0.0,0.0,0.0,0.0,0.0,0.0,0.0,0.0,0.0,0.0,0.0,0.0,0.0,0.0,0.0,0.0,0.0,0.0,0.0,0.0,0.0,0.0,0.0,0.0,0.0,0.0,0.0,0.0,0.0,0.0,0.0,0.0,0.0,0.0,0.0,0.0,0.0,0.0,0.0,0.0,0.0,0.0,0.0,0.0,0.0,0.0,0.0,0.0,0.0,0.0,0.0,0.0,0.0,0.0,0.0,0.0,0.0,0.0,0.0,0.0,0.0,0.0,0.0,0.0,0.0,0.0,0.0,0.0,0.0,0.0,0.0,0.0,0.0,0.0,0.0,0.0,0.0,0.0,0.0,0.0,0.0,0.0,0.0,0.0,0.0,0.0,0.0,0.0,0.0,0.0,0.0,0.0,0.0,0.0,0.0,0.0,0.0,0.0,0.0,0.0,0.0,0.0,1.064,1.171,1.3142,1.4765,1.3049,1.192,0.0,0.0,0.0,0.0,0.0,0.0,0.0,0.0,0.0,0.0,0.0,0.0,0.0,0.0,0.0,0.0,0.0,0.0,0.0,0.0,0.0,0.0,0.0,0.0,0.0,0.0,0.0,0.0,0.0,0.0,0.0,0.0,0.0,0.0,0.0,0.0,0.0,0.0,0.0,0.0,0.0,0.0,0.0,0.0,0.0,0.0,0.0,0.0,0.0,0.0,0.0,0.0,0.0,0.0,0.0,0.0,0.0,0.0,0.0,0.0,0.0,0.0,0.0,0.0,0.0,0.0,0.0,0.0,0.0,0.0,0.0,0.0,0.0,0.0,0.0,0.0,0.0,0.0,0.0,0.0,0.0,0.0,0.0,0.0,0.0,0.0,0.0,0.0,0.0,0.0,0.0,0.0,0.0,0.0,0.0,0.0,0.0,0.0,0.0,0.0,0.0,0.0,0.0,0.0,0.0,0.0,0.0,0.0,0.0,1.0622,0.0,1.3759,1.4966,1.3058,1.1789,0.0,0.0,0.0,0.0,0.0,0.0,0.0,0.0,0.0,0.0,0.0,0.0,0.0,0.0,0.0,0.0,0.0,0.0,0.0,0.0,0.0,0.0,0.0,0.0,0.0,0.0,0.0,0.0,0.0,0.0,0.0,0.0,0.0,0.0,0.0,0.0,0.0,0.0,0.0,0.0,0.0,0.0,0.0,0.0,0.0,0.0,0.0,0.0,0.0,0.0,0.0,0.0,0.0,0.0,0.0,0.0,0.0,0.0,0.0,0.0,0.0,0.0,0.0,0.0,0.0,0.0,0.0,0.0,0.0,0.0,0.0,0.0,0.0,0.0,0.0,0.0,0.0,0.0,0.0,0.0,0.0,0.0,0.0,0.0,0.0,0.0,0.0,0.0,0.0,0.0,0.0,0.0,0.0,0.0,0.0,0.0,0.0,0.0,0.0,0.0,0.0,0.0,0.0,0.0,0.0,0.0,0.0,0.0,1.0276,1.3173,1.399,1.4158,1.38,1.3637,1.2387,0.0,0.0,0.0,0.0,0.0,0.0,0.0,0.0,0.0,0.0,0.0,0.0,0.0,0.0,0.0,0.0,0.0,0.0,0.0,0.0,0.0,0.0,0.0,0.0,0.0,0.0,0.0,0.0,0.0,0.0,0.0,0.0,0.0,0.0,0.0,0.0,0.0,0.0,0.0,0.0,0.0,0.0,0.0,0.0,0.0,0.0,0.0,0.0,0.0,0.0,0.0,0.0,0.0,0.0,0.0,0.0,0.0,0.0,0.0,0.0,0.0,0.0,0.0,0.0,0.0,0.0,0.0,0.0,0.0,0.0,0.0,0.0,0.0,0.0,0.0,0.0,0.0,0.0,0.0,0.0,0.0,0.0,0.0,0.0,0.0,0.0,0.0,0.0,0.0,0.0,0.0,0.0,0.0,0.0,0.0,0.0,0.0,0.0,0.0,0.0,0.0,0.0,0.0,0.0,0.0,0.0,0.0,0.0,0.0,1.2372,1.3138,1.4054,1.5101,1.3542,1.2708,0.0,0.0,0.0,0.0,0.0,0.0,0.0,0.0,0.0,0.0,0.0,0.0,0.0,0.0,0.0,0.0,0.0,0.0,0.0,0.0,0.0,0.0,0.0,0.0,0.0,0.0,0.0,0.0,0.0,0.0,0.0,0.0,0.0,0.0,0.0,0.0,0.0,0.0,0.0,0.0,0.0,0.0,0.0,0.0,0.0,0.0,0.0,0.0,0.0,0.0,0.0,0.0,0.0,0.0,0.0,0.0,0.0,0.0,0.0,0.0,0.0,0.0,0.0,0.0,0.0,0.0,0.0,0.0,0.0,0.0,0.0,0.0,0.0,0.0,0.0,0.0,0.0,0.0,0.0,0.0,0.0,0.0,0.0,0.0,0.0,0.0,0.0,0.0,0.0,0.0,0.0,0.0,0.0,0.0,0.0,0.0,0.0,0.0,0.0,0.0,0.0,0.0,0.0,0.0,0.0,0.0,0.0,0.0,0.0,1.2283,1.3569,1.4616,1.5443,1.39,1.3219,1.3605,0.0,0.0,0.0,0.0,0.0,0.0,0.0,0.0,0.0,0.0,0.0,0.0,0.0,0.0,0.0,0.0,0.0,0.0,0.0,0.0,0.0,0.0,0.0,0.0,0.0,0.0,0.0,0.0,0.0,0.0,0.0,0.0,0.0,0.0,0.0,0.0,0.0,0.0,0.0,0.0,0.0,0.0,0.0,0.0,0.0,0.0,0.0,0.0,0.0,0.0,0.0,0.0,0.0,0.0,0.0,0.0,0.0,0.0,0.0,0.0,0.0,0.0,0.0,0.0,0.0,0.0,0.0,0.0,0.0,0.0,0.0,0.0,0.0,0.0,0.0,0.0,0.0,0.0,0.0,0.0,0.0,0.0,0.0,0.0,0.0,0.0,0.0,0.0,0.0,0.0,0.0,0.0,0.0,0.0,0.0,0.0,0.0,0.0,0.0,0.0,0.0,0.0,0.0,0.0,0.0,0.0,0.0,0.0,1.2795,1.4862,1.5563,1.4894,1.4657,1.3998,0.0,0.0,0.0,0.0,0.0,0.0,0.0,0.0,0.0,0.0,0.0,0.0,0.0,0.0,0.0,0.0,0.0,0.0,0.0,0.0,0.0,0.0,0.0,0.0,0.0,0.0,0.0,0.0,0.0,0.0,0.0,0.0,0.0,0.0,0.0,0.0,0.0,0.0,0.0,0.0,0.0,0.0,0.0,0.0,0.0,0.0,0.0,0.0,0.0,0.0,0.0,0.0,0.0,0.0,0.0,0.0,0.0,0.0,0.0,0.0,0.0,0.0,0.0,0.0,0.0,0.0,0.0,0.0,0.0,0.0,0.0,0.0,0.0,0.0,0.0,0.0,0.0,0.0,0.0,0.0,0.0,0.0,0.0,0.0,0.0,0.0,0.0,0.0,0.0,0.0,0.0,0.0,0.0,0.0,0.0,0.0,0.0,0.0,0.0,0.0,0.0,0.0,0.0,0.0,0.0,0.0,0.0,0.0,0.0,1.1859,1.3594,1.504,1.5996,1.5568,1.4894,0.0,0.0,0.0,0.0,0.0,0.0,0.0,0.0,0.0,0.0,0.0,0.0,0.0,0.0,0.0,0.0,0.0,0.0,0.0,0.0,0.0,0.0,0.0,0.0,0.0,0.0,0.0,0.0,0.0,0.0,0.0,0.0,0.0,0.0,0.0,0.0,0.0,0.0,0.0,0.0,0.0,0.0,0.0,0.0,0.0,0.0,0.0,0.0,0.0,0.0,0.0,0.0,0.0,0.0,0.0,0.0,0.0,0.0,0.0,0.0,0.0,0.0,0.0,0.0,0.0,0.0,0.0,0.0,0.0,0.0,0.0,0.0,0.0,0.0,0.0,0.0,0.0,0.0,0.0,0.0,0.0,0.0,0.0,0.0,0.0,0.0,0.0,0.0,0.0,0.0,0.0,0.0,0.0,0.0,0.0,0.0,0.0,0.0,0.0,0.0,0.0,0.0,0.0,0.0,0.0,0.0,0.0,0.0,1.0172,1.1401,1.2866,1.4223,1.5358,1.5072,1.467,0.0,0.0,0.0,0.0,0.0,0.0,0.0,0.0,0.0,0.0,0.0,0.0,0.0,0.0,0.0,0.0,0.0,0.0,0.0,0.0,0.0,0.0,0.0,0.0,0.0,0.0,0.0,0.0,0.0,0.0,0.0,0.0,0.0,0.0,0.0,0.0,0.0,0.0,0.0,0.0,0.0,0.0,0.0,0.0,0.0,0.0,0.0,0.0,0.0,0.0,0.0,0.0,0.0,0.0,0.0,0.0,0.0,0.0,0.0,0.0,0.0,0.0,0.0,0.0,0.0,0.0,0.0,0.0,0.0,0.0,0.0,0.0,0.0,0.0,0.0,0.0,0.0,0.0,0.0,0.0,0.0,0.0,0.0,0.0,0.0,0.0,0.0,0.0,0.0,0.0,0.0,0.0,0.0,0.0,0.0,0.0,0.0,0.0,0.0,0.0,0.0,0.0,0.0,0.0,0.0,0.0,0.0,0.0,0.928,1.0942,1.2334,1.3171,1.359,1.3947,1.3939,0.0,0.0,0.0,0.0,0.0,0.0,0.0,0.0,0.0,0.0,0.0,0.0,0.0,0.0,0.0,0.0,0.0,0.0,0.0,0.0,0.0,0.0,0.0,0.0,0.0,0.0,0.0,0.0,0.0,0.0,0.0,0.0,0.0,0.0,0.0,0.0,0.0,0.0,0.0,0.0,0.0,0.0,0.0,0.0,0.0,0.0,0.0,0.0,0.0,0.0,0.0,0.0,0.0,0.0,0.0,0.0,0.0,0.0,0.0,0.0,0.0,0.0,0.0,0.0,0.0,0.0,0.0,0.0,0.0,0.0,0.0,0.0,0.0,0.0,0.0,0.0,0.0,0.0,0.0,0.0,0.0,0.0,0.0,0.0,0.0,0.0,0.0,0.0,0.0,0.0,0.0,0.0,0.0,0.0,0.0,0.0,0.0,0.0,0.0,0.0,0.0,0.0,0.0,0.0,0.0,0.0,0.0,0.0,0.8318,0.916,1.0402,1.16,1.2645,1.4165,1.4258,0.0,0.0,0.0,0.0,0.0,0.0,0.0,0.0,0.0,0.0,0.0,0.0,0.0,0.0,0.0,0.0,0.0,0.0,0.0,0.0,0.0,0.0,0.0,0.0,0.0,0.0,0.0,0.0,0.0,0.0,0.0,0.0,0.0,0.0,0.0,0.0,0.0,0.0,0.0,0.0,0.0,0.0,0.0,0.0,0.0,0.0,0.0,0.0,1.3048,0.0,0.0,0.0,0.0,0.0,0.0,0.0,0.0,0.0,0.0,0.0,0.0,0.0,0.0,0.0,0.0,0.0,0.0,0.0,0.0,0.0,0.0,0.0,0.0,0.0,0.0,0.0,0.0,0.0,0.0,0.0,0.0,0.0,0.0,0.0,0.0,0.0,0.0,0.0,0.0,0.0,0.0,0.0,0.0,0.0,0.0,0.0,0.0,0.0,0.0,0.0,0.0,0.0,0.0,0.0,0.0,0.0,0.0,0.0,0.7476,0.8344,0.9466,1.0494,1.1694,1.333,1.3573,0.0,0.0,0.0,0.0,0.0,0.0,0.0,0.0,0.0,0.0,0.0,0.0,0.0,0.0,0.0,0.0,0.0,0.0,0.0,0.0,0.0,0.0,0.0,0.0,0.0,0.0,0.0,0.0,0.0,0.0,0.0,0.0,0.0,0.0,0.0,0.0,0.0,0.0,0.0,0.0,0.0,0.0,0.0,0.0,0.0,0.0,0.0,0.0,0.0,0.0,0.0,0.0,0.0,0.0,0.0,0.0,0.0,0.0,0.0,0.0,0.0,0.0,0.0,0.0,0.0,0.0,0.0,0.0,0.0,0.0,0.0,0.0,0.0,0.0,0.0,0.0,0.0,0.0,0.0,0.0,0.0,0.0,0.0,0.0,0.0,0.0,0.0,0.0,0.0,0.0,0.0,0.0,0.0,0.0,0.0,0.0,0.0,0.0,0.0,0.0,0.0,0.0,0.0,0.0,0.0,0.0,0.0,0.5956,0.6751,0.7748,0.8738,0.9663,1.0668,1.2038,1.2593,1.2286,0.0,0.0,0.0,0.0,0.0,0.0,0.0,0.0,0.0,0.0,0.0,0.0,0.0,0.0,0.0,0.0,0.0,0.0,0.0,0.0,0.0,0.0,0.0,0.0,0.0,0.0,0.0,0.0,0.0,0.0,0.0,0.0,0.0,0.0,0.0,0.0,0.0,0.0,2.1956,2.0822,0.0,0.0,0.0,0.0,0.0,0.0,0.0,0.0,1.5389,0.0,0.0,0.0,0.0,0.0,0.0,0.0,0.0,0.0,0.0,0.0,0.0,0.0,0.0,0.0,0.0,0.0,0.0,0.0,0.0,0.0,0.0,0.0,0.0,0.0,0.0,0.0,0.0,0.0,0.0,0.0,0.0,0.0,0.0,0.0,0.0,0.0,0.0,0.0,0.0,0.0,0.0,0.0,0.0,0.0,0.0,0.0,0.0,0.0,0.0,0.0,0.0,0.0,0.0,0.0,0.0,0.5092,0.5787,0.6208,0.623,0.7569,0.876,0.9764,1.0947,1.1652,1.1694,0.0,0.0,0.0,0.0,0.0,0.0,0.0,0.0,0.0,0.0,0.0,0.0,0.0,0.0,0.0,0.0,0.0,0.0,0.0,0.0,0.0,0.0,0.0,0.0,0.0,0.0,0.0,0.0,0.0,0.0,0.0,0.0,0.0,0.0,0.0,0.0,0.0,0.0,0.0,2.044,1.9975,0.0,0.0,0.0,0.0,0.0,0.0,0.0,0.0,1.521,0.0,0.0,0.0,0.0,0.0,0.0,0.0,0.0,0.0,0.0,0.0,0.0,0.0,0.0,0.0,0.0,0.0,0.0,0.0,0.0,0.0,0.0,0.0,0.0,0.0,0.0,0.0,0.0,0.0,0.0,0.0,0.0,0.0,0.0,0.0,0.0,0.0,0.0,0.0,0.0,0.0,0.0,0.0,0.0,0.0,0.0,0.0,0.0,0.0,0.0,0.0,0.0,0.0,0.0,0.0,0.4876,0.5315,0.5828,0.6349,0.7383,0.8657,1.011,1.1032,1.163,0.0,0.0,0.0,0.0,0.0,0.0,0.0,0.0,0.0,0.0,0.0,0.0,0.0,0.0,0.0,0.0,0.0,0.0,0.0,0.0,0.0,0.0,0.0,0.0,0.0,0.0,0.0,0.0,0.0,0.0,0.0,0.0,0.0,0.0,0.0,0.0,0.0,0.0,0.0,0.0,1.9643,1.9412,1.987,0.0,0.0,0.0,0.0,0.0,0.0,1.6216,1.5894,0.0,0.0,0.0,0.0,0.0,0.0,0.0,0.0,0.0,0.0,0.0,0.0,0.0,0.0,0.0,0.0,0.0,0.0,0.0,0.0,0.0,0.0,0.0,0.0,0.0,0.0,0.0,0.0,0.0,0.0,0.0,0.0,0.0,0.0,0.0,0.0,0.0,0.0,0.0,0.0,0.0,0.0,0.0,0.0,0.0,0.0,0.0,0.0,0.0,0.0,0.0,0.0,0.0,0.0,0.0,0.4693,0.5,0.5701,0.6741,0.7556,0.8834,1.0624,1.1394,1.1954,0.0,0.0,0.0,0.0,0.0,0.0,0.0,0.0,0.0,0.0,0.0,0.0,0.0,0.0,0.0,0.0,0.0,0.0,0.0,0.0,0.0,0.0,0.0,0.0,0.0,0.0,0.0,0.0,0.0,0.0,0.0,0.0,0.0,0.0,0.0,0.0,0.0,0.0,0.0,0.0,0.0,1.8698,1.9059,1.817,0.0,0.0,0.0,0.0,1.7096,1.6938,0.0,0.0,0.0,0.0,0.0,0.0,0.0,0.0,0.0,0.0,0.0,0.0,0.0,0.0,0.0,0.0,0.0,0.0,0.0,0.0,0.0,0.0,0.0,0.0,0.0,0.0,0.0,0.0,0.0,0.0,0.0,0.0,0.0,0.0,0.0,0.0,0.0,0.0,0.0,0.0,0.0,0.0,0.0,0.0,0.0,0.0,0.0,0.0,0.0,0.0,0.0,0.0,0.0,0.0,0.0,0.0,0.4711,0.5072,0.5766,0.6857,0.8004,0.9316,1.0762,1.1747,1.2385,0.0,0.0,0.0,0.0,0.0,0.0,0.0,0.0,0.0,0.0,0.0,0.0,0.0,0.0,0.0,0.0,0.0,0.0,0.0,0.0,0.0,0.0,0.0,0.0,0.0,0.0,0.0,0.0,0.0,0.0,0.0,0.0,0.0,0.0,0.0,0.0,0.0,0.0,0.0,0.0,0.0,1.7821,1.7863,1.7595,1.7342,0.0,0.0,1.7242,1.7592,1.7877,0.0,0.0,0.0,0.0,0.0,0.0,0.0,0.0,0.0,0.0,0.0,0.0,0.0,0.0,0.0,0.0,0.0,0.0,0.0,0.0,0.0,0.0,0.0,0.0,0.0,0.0,0.0,0.0,0.0,0.0,0.0,0.0,0.0,0.0,0.0,0.0,0.0,0.0,0.0,0.0,0.0,0.0,0.0,0.0,0.0,0.0,0.0,0.0,0.0,0.0,0.0,0.0,0.0,0.0,0.0,0.3861,0.4439,0.4981,0.5923,0.727,0.8318,0.9702,1.1313,1.21,1.2539,0.0,0.0,0.0,0.0,0.0,0.0,0.0,0.0,0.0,0.0,0.0,0.0,0.0,0.0,0.0,0.0,0.0,0.0,0.0,0.0,0.0,0.0,0.0,0.0,0.0,0.0,0.0,0.0,0.0,0.0,0.0,0.0,0.0,0.0,0.0,0.0,0.0,0.0,0.0,0.0,0.0,0.0,1.6578,1.6619,0.0,0.0,0.0,1.685,1.6732,0.0,0.0,0.0,0.0,0.0,0.0,0.0,0.0,0.0,0.0,0.0,0.0,0.0,0.0,0.0,0.0,0.0,0.0,0.0,0.0,0.0,0.0,0.0,0.0,0.0,0.0,0.0,0.0,0.0,0.0,0.0,0.0,0.0,0.0,0.0,0.0,0.0,0.0,0.0,0.0,0.0,0.0,0.0,0.0,0.0,0.0,0.0,0.0,0.0,0.0,0.0,0.0,0.0,0.0,0.0,0.0,0.0,0.4067,0.482,0.597,0.7645,0.8672,0.9997,1.1851,1.24,0.0,0.0,0.0,0.0,0.0,0.0,0.0,0.0,0.0,0.0,0.0,0.0,0.0,0.0,0.0,0.0,0.0,0.0,0.0,0.0,0.0,0.0,0.0,0.0,0.0,0.0,0.0,0.2203,0.0,0.0,0.0,0.0,0.0,0.0,0.0,0.0,0.0,0.0,0.0,0.0,0.0,0.0,1.5145,1.5303,1.5641,1.5826,0.0,0.0,1.6524,1.6204,1.6892,1.7281,0.0,0.0,0.0,0.0,0.0,0.0,0.0,0.0,0.0,0.0,0.0,0.0,0.0,0.0,0.0,0.0,0.0,0.0,0.0,0.0,0.0,0.0,0.0,0.0,0.0,0.0,0.0,0.0,0.0,0.0,0.0,0.0,0.0,0.0,0.0,0.0,0.0,0.0,0.0,0.0,0.0,0.0,0.0,0.0,0.0,0.0,0.0,0.0,0.0,0.0,0.0,0.0,0.0,0.0,0.348,0.3845,0.476,0.5994,0.7787,0.9029,1.0454,1.2107,1.272,1.2856,0.0,0.0,0.0,0.0,0.0,0.0,0.0,0.0,0.0,0.0,0.0,0.0,0.0,0.0,0.0,0.0,0.0,0.0,0.0,0.0,0.0,0.0,0.0,0.0,0.0,0.0,0.0,0.0,0.0,0.0,0.0,0.0,0.0,0.0,0.0,0.0,0.0,0.0,0.0,0.0,0.0,1.4065,1.3701,1.4709,1.5594,0.0,0.0,1.6613,1.658,1.6638,1.6717,1.6544,0.0,0.0,0.0,0.0,0.0,0.0,0.0,0.0,0.0,0.0,0.0,0.0,0.0,0.0,0.0,0.0,0.0,0.0,0.0,0.0,0.0,0.0,0.0,0.0,0.0,0.0,0.0,0.0,0.0,0.0,0.0,0.0,0.0,0.0,0.0,0.0,0.0,0.0,0.0,0.0,0.0,0.0,0.0,0.0,0.0,0.0,0.0,0.0,0.0,0.0,0.0,0.0,0.0,0.299,0.3375,0.4582,0.5759,0.6966,0.827,0.9633,1.1209,1.194,1.2104,0.0,0.0,0.0,0.0,0.0,0.0,0.0,0.0,0.0,0.0,0.0,0.0,0.0,0.0,0.0,0.0,0.0,0.0,0.0,0.0,0.0,0.0,0.0,0.0,0.0,0.0,0.0,0.0,0.1083,0.1624,0.0525,0.0,0.0,0.0,0.0,0.0,0.0,0.0,0.0,0.0,0.0,1.3686,1.3785,1.4622,0.0,0.0,1.6184,1.6458,1.6183,1.6095,1.6038,1.5549,1.4821,0.0,0.0,0.0,0.0,0.0,0.0,0.0,0.0,0.0,0.0,0.0,0.0,0.0,0.0,0.0,0.0,0.0,0.0,0.0,0.0,0.0,0.0,0.0,0.0,0.0,0.0,0.0,0.0,0.0,0.0,0.0,0.0,0.0,0.0,0.0,0.0,0.0,0.0,0.0,0.0,0.0,0.0,0.0,0.0,0.0,0.0,0.0,0.0,0.0,0.0,0.0,0.0,0.2918,0.3386,0.4509,0.5609,0.6693,0.7804,0.904,1.0364,1.1234,1.1439,0.0,0.0,0.0,0.0,0.0,0.0,0.0,0.0,0.0,0.0,0.0,0.0,0.0,0.0,0.0,0.0,0.0,0.0,0.0,0.0,0.0,0.0,0.0,0.0,0.0,0.0,0.0,0.0,0.1887,0.1665,0.1095,0.0,0.0,0.0,0.0,0.0,0.0,0.0,0.0,0.0,0.0,1.3307,1.368,1.4416,1.5006,1.5223,1.5739,1.5943,1.5417,1.5366,1.5114,1.4596,0.0,0.0,0.0,0.0,0.0,0.0,0.0,0.0,0.0,0.0,0.0,0.0,0.0,0.0,0.0,0.0,0.0,0.0,0.0,0.0,0.0,0.0,0.0,0.0,0.0,0.0,0.0,0.0,0.0,0.0,2.2067,0.0,0.0,0.0,0.0,0.0,0.0,0.0,0.0,0.0,0.0,0.0,0.0,0.0,0.0,0.0,0.0,0.0,0.0,0.0,0.0,0.0,0.0,0.3392,0.3958,0.4565,0.5638,0.7238,0.788,0.8758,0.999,1.0768,1.0946,1.0394,0.0,0.0,0.0,0.0,0.0,0.0,0.0,0.0,0.0,0.0,0.0,0.0,0.0,0.0,0.0,0.0,0.0,0.0,0.0,0.0,0.0,0.0,0.0,0.0,0.0,0.0,0.4077,0.1546,0.0187,0.0,0.0,0.0,0.0,0.0,0.0,0.0,0.0,0.0,0.0,1.1828,1.2879,1.294,1.378,1.4432,1.4549,1.481,1.482,1.4388,1.4231,1.4033,0.0,0.0,0.0,0.0,0.0,0.0,0.0,0.0,0.0,0.0,0.0,0.0,0.0,0.0,0.0,0.0,0.0,0.0,0.0,0.0,0.0,0.0,0.0,0.0,0.0,0.0,0.0,2.3967,2.4636,0.0,0.0,0.0,0.0,0.0,0.0,0.0,0.0,0.0,0.0,0.0,1.8872,1.9074,0.0,0.0,0.0,0.0,0.0,0.0,0.0,0.0,0.0,0.0,0.0,0.0,0.4284,0.4612,0.5231,0.6081,0.707,0.7536,0.8123,0.8902,0.9646,0.9986,0.9789,0.0,0.0,0.0,0.0,0.0,0.0,0.0,0.0,0.0,0.0,0.0,0.0,0.0,0.0,0.0,0.0,0.0,0.0,0.0,0.0,0.0,0.0,0.0,0.0,0.0,0.7372,0.0,0.0,0.0,0.0,0.0,0.0,0.0,0.0,0.0,0.0,0.0,1.0455,1.0796,1.1875,1.2805,1.2971,1.3436,1.3836,0.0,0.0,0.0,0.0,0.0,0.0,0.0,0.0,0.0,0.0,0.0,0.0,0.0,0.0,0.4198,0.3105,0.2253,0.1356,0.0154,0.0,0.0,0.0,0.0,0.0,0.0,0.0,0.0,0.0,0.0,0.0,0.0,0.0,0.0,2.4952,0.0,2.593,0.0,0.0,0.0,0.0,0.0,0.0,0.0,0.0,2.0071,2.067,2.0128,2.0527,1.9989,0.0,1.7881,1.6156,0.0,0.0,0.0,0.0,0.0,0.0,0.0,0.0,0.5145,0.5701,0.6282,0.69,0.7585,0.7785,0.8165,0.8677,0.9175,0.9577,0.9787,0.9215,0.8608,0.0,0.0,0.0,0.0,0.0,0.0,0.0,0.0,0.0,0.0,0.0,0.0,0.0,0.0,0.0,0.0,0.0,0.0,0.0,0.0,0.0,0.0,0.0,0.8518,0.0,0.0,0.0,0.0,0.0,0.0,0.0,0.0,0.0,0.6338,0.8231,0.962,1.0125,1.1316,1.2194,1.2384,0.0,0.0,0.0,0.0,0.0,0.0,0.0,1.3232,1.2353,1.1973,1.1636,1.1001,0.9292,0.7453,0.5919,0.0,0.0,0.2442,0.1786,0.109,0.0093,-0.0759,-0.108,-0.0103,0.0659,0.1393,0.0,0.0,0.0,0.0,0.0,0.0,0.0,0.0,2.4651,2.6073,0.0,2.757,0.0,0.0,0.0,0.0,0.0,1.9295,0.0,0.0,2.0231,2.1011,2.0401,2.0401,2.0303,2.0011,1.9429,1.8398,1.6978,1.3874,0.0,0.0,0.0,0.0,0.0,0.0,0.6043,0.7146,0.747,0.7987,0.8743,0.8665,0.8802,0.9214,0.9349,0.9753,1.0275,1.02,0.9843,0.9048,0.8694,0.0,0.0,0.0,0.0,0.0,0.0,0.0,0.0,0.0,0.0,0.0,0.0,0.0,0.0,0.0,0.0,0.0,0.0,0.0,0.0,0.9182,0.0,0.0,0.0,0.0,0.0,0.0,0.0,0.0,0.0,0.0,0.486,0.6796,0.8218,0.8536,0.0,0.0,0.0,0.0,1.2072,1.1981,1.2151,1.2234,1.1952,1.1869,1.1581,1.0994,0.0,0.0,0.9713,0.8488,0.7461,0.6894,0.5137,0.3362,0.2574,0.1087,-0.0109,-0.0114,-0.0804,-0.0945,0.0502,0.1599,0.2697,2.727,0.0,0.0,0.0,0.0,2.5423,2.6263,2.763,2.7955,2.8407,2.8818,2.8086,0.0,0.0,0.0,0.0,0.0,0.0,1.8969,1.9022,2.0397,2.1191,2.1383,2.1728,2.1559,2.0923,2.0505,1.9457,1.8056,1.6604,1.4349,1.135,0.0,0.0,0.0,0.0,0.7232,0.8024,0.8325,0.8599,0.9005,0.881,0.8944,0.9518,0.9993,1.0412,1.0783,1.1208,1.1193,1.0626,1.0653,0.0,0.0,0.0,0.0,0.0,0.0,0.0,0.0,0.0,0.0,0.0,0.0,0.0,0.0,0.0,0.0,0.0,0.0,0.0,0.7316,0.8183,0.8108,0.0,0.0,0.0,0.0,0.0,0.0,0.0,0.0,0.0,0.5628,0.6443,0.7299,0.0,0.0,1.0502,1.0768,1.0621,1.019,0.9672,1.0182,0.0,0.9219,1.0155,1.0707,0.9964,0.9578,0.9245,0.8527,0.7991,0.7487,0.6748,0.6351,0.5693,0.3766,0.154,-0.0239,-0.1227,-0.0127,0.1466,0.2111,0.3142,0.4106,3.2191,3.047,2.8706,2.8295,2.867,2.8595,2.9257,3.0119,3.0063,3.0167,3.0534,2.8899,2.7233,2.5576,2.2189,0.0,0.0,0.0,1.8536,1.8762,1.9631,2.0251,2.0703,2.0908,2.0923,2.0558,2.0399,1.9869,1.8962,1.8339,1.6553,1.3695,0.0,0.0,0.9591,0.9074,0.9071,0.9552,0.9959,1.0065,0.9892,0.9698,0.9907,1.0412,1.0678,1.1108,1.1765,1.2006,1.2276,1.2659,1.2879,1.2999,0.0,0.0,0.0,0.0,0.0,0.0,0.0,0.0,0.0,0.0,0.0,1.2594,0.9826,0.0,0.0,0.0,0.6983,0.6776,0.75,0.8333,0.0,0.0,0.0,0.0,0.0,0.0,0.0,0.3838,0.4289,0.4882,0.5885,0.6537,0.7083,0.7842,0.9034,0.9895,1.0163,0.0,0.9362,0.892,0.9133,0.9017,0.8112,0.8974,0.9473,0.8859,0.8499,0.8184,0.7939,0.7817,0.7718,0.7568,0.7364,0.6961,0.5855,0.372,0.1389,-0.0388,0.0136,0.1296,0.2427,0.3695,0.4558,3.7636,3.7501,3.3396,3.1841,3.2037,3.1616,3.1626,3.1841,3.1276,3.1552,3.2321,2.9702,2.7842,2.6295,2.0982,0.0,1.7301,1.7614,1.7582,1.7301,1.8127,1.8566,1.8655,1.8642,1.8873,1.928,1.9449,1.9594,1.9606,1.923,1.8167,1.6564,1.5241,1.3856,1.251,1.1649,1.132,1.1457,1.197,1.191,1.1137,1.1188,1.1358,1.1593,1.1367,1.1798,1.2924,1.2695,1.3182,1.4574,1.5175,1.5529,1.5518,0.0,0.0,0.0,0.0,0.0,0.0,0.0,0.0,0.0,0.0,0.0,0.0,0.0,0.0,0.0,0.7623,0.0,0.8783,0.9019,0.0,0.0,0.0,0.6077,0.5094,0.5396,0.552,0.5138,0.0,0.0,0.5969,0.6918,0.7646,0.7759,0.8706,0.9405,0.9556,0.9434,0.9345,0.9106,0.8851,0.8372,0.7784,0.806,0.8231,0.7882,0.7474,0.7369,0.7662,0.7922,0.8182,0.8823,0.8161,0.768,0.8171,0.6624,0.4677,0.2138,0.0567,0.0151,0.2375,0.351,0.4207,3.926,3.8904,3.7718,3.6466,3.5062,3.5182,3.5238,3.5023,3.4701,3.3789,3.2315,2.9599,2.6394,2.2656,1.9961,1.8213,1.738,1.6919,1.6453,1.6121,1.6296,1.6495,1.6647,1.7014,1.7293,1.7504,1.8009,1.8321,1.8722,1.8869,1.8768,1.8368,1.7913,1.6241,1.3395,1.3181,1.305,1.2878,1.2883,1.2351,1.1386,1.2012,1.23,1.1996,1.2358,1.2627,1.2806,1.3088,1.3548,1.4448,1.624,1.7007,1.6642,1.5589,0.0,0.0,0.0,0.0,0.0,0.0,0.0,0.0,0.0,1.345,1.1371,0.0,0.8592,0.0,0.924,0.888,0.804,0.8132,0.0,0.0,0.7104,0.6565,0.6768,0.6965,0.7119,0.7091,0.7581,0.7885,0.7746,0.8743,0.9353,0.9271,0.9446,0.978,1.0244,0.9928,0.9374,0.8923,0.8512,0.7937,0.7084,0.6967,0.7146,0.7157,0.6966,0.7035,0.7693,0.7932,0.8317,0.9341,0.9374,0.9325,0.9221,0.8339,0.6994,0.5163,0.3863,0.3181,0.3687,0.3391,0.3377,3.9053,3.8924,3.8675,3.7656,3.6074,3.6681,3.6542,3.6073,3.6708,3.4664,3.0429,2.72,2.2549,1.7338,1.764,1.6813,1.5093,1.4921,1.4747,1.4583,1.4199,1.4093,1.4285,1.4353,1.467,1.5291,1.5824,1.6442,1.7091,1.766,1.7967,1.8104,1.8243,1.7303,1.5374,1.5171,1.4858,1.4444,1.3609,1.2875,1.223,1.2696,1.2838,1.2739,1.3134,1.3316,1.3127,1.3585,1.4035,1.4559,1.5775,1.6588,1.6762,1.6002,1.5261,0.0,0.0,0.0,0.0,0.0,0.0,0.0,0.0,0.0,0.0,0.0,0.9131,0.9398,0.9821,0.9813,0.9194,0.9096,0.9019,0.911,0.8318,0.7931,0.8171,0.8365,0.8442,0.8592,0.915,0.9482,0.9406,1.0266,1.0788,1.0715,1.0826,1.0967,1.0792,1.0347,0.9828,0.9509,0.8947,0.8161,0.7135,0.6872,0.6876,0.7238,0.7255,0.7382,0.8045,0.8515,0.9249,1.0147,1.0664,1.0919,1.0652,0.9738,0.8568,0.7087,0.5801,0.4578,0.322,0.1878,0.1255,3.7686,3.7504,3.7081,3.6261,3.5175,3.543,3.5463,3.5413,3.6708,3.2874,2.5605,2.1873,1.6662,1.0685,1.3314,1.3193,1.0999,1.1812,1.2523,1.2925,1.2099,1.1602,1.1531,1.1182,1.1589,1.2699,1.3323,1.4124,1.5037,1.5835,1.6468,1.6857,1.726,1.7474,1.7404,1.6825,1.6221,1.5702,1.4208,1.3397,1.324,1.3284,1.3341,1.3421,1.3686,1.3623,1.3506,1.3838,1.4223,1.4614,1.4493,1.4995,1.6289,1.6051,1.5185,0.0,1.238,0.0,0.0,0.0,0.0,0.0,0.0,0.0,0.0,1.0264,0.9547,0.9514,1.0305,1.0889,1.1227,1.0731,1.0377,1.0416,0.9948,0.9654,0.9648,0.9759,0.9897,1.0061,1.0632,1.1,1.0849,1.1594,1.2087,1.1961,1.2441,1.259,1.1872,1.1101,1.0642,1.0657,0.9687,0.8684,0.8127,0.7526,0.7478,0.773,0.8127,0.8314,0.8518,0.9684,1.0682,1.1378,1.1988,1.2343,1.2605,1.1233,0.9691,0.8635,0.7366,0.5388,0.2426,-0.0,-0.1078,3.4278,3.3815,3.2666,3.1433,3.0065,2.7755,2.8627,3.1647,3.0992,2.3451,1.15,0.9567,0.6634,0.3276,0.333,0.4037,0.5088,0.6592,0.9116,1.2046,1.0233,0.8904,0.8112,0.8389,0.9029,0.9797,1.0601,1.1479,1.239,1.3689,1.4897,1.5955,1.6307,1.6751,1.726,0.0,0.0,0.0,1.4513,1.3965,1.3588,1.3859,1.4,1.3818,1.352,0.0,1.3299,1.293,1.3074,1.3909,1.3343,0.0,0.0,0.0,0.0,0.0,0.0,0.0,0.0,0.0,0.0,0.0,0.7579,0.7752,0.9799,1.2073,1.2934,1.1853,1.3173,1.3503,1.1969,1.1294,1.0875,1.0659,1.071,1.0916,1.133,1.1612,1.1873,1.2323,1.238,1.2349,1.2126,1.2889,1.323,1.2864,1.3532,1.3899,1.3751,1.2885,1.1972,1.1141,1.0283,0.9474,0.9136,0.878,0.8479,0.8512,0.9249,0.9464,0.9444,1.1287,1.2899,1.3446,1.3467,1.3634,1.409,1.2666,1.1579,1.1335,1.0127,0.7456,0.2775,-0.0518,-0.2522,3.0093,0.0,2.7289,2.6514,0.0,2.0716,1.919,2.0364,2.2624,1.591,0.2959,-0.0,-0.2282,-0.4038,-0.5985,-0.4964,-0.1591,0.064,0.371,0.7114,0.5901,0.5025,0.4583,0.5061,0.5867,0.6881,0.7656,0.8614,0.9691,1.0736,1.2031,1.3352,1.376,1.4335,1.517,1.4589,1.4473,1.4661,1.4546,1.4263,1.3853,1.4303,1.4251,1.3673,0.0,0.0,0.0,0.0,0.0,0.0,0.0,0.0,0.0,0.0,0.0,1.244,1.2665,1.288,1.284,1.1404,0.9956,0.8765,0.6617,0.6304,0.8526,1.1669,1.3363,1.2887,1.397,1.4194,1.3156,1.2253,1.1832,1.2085,1.2238,1.2631,1.3059,1.3469,1.3735,1.3997,1.3912,1.3744,1.3536,1.3888,1.4023,1.3842,1.4261,1.4623,1.4298,1.3895,1.3163,1.225,1.1644,1.1002,1.055,1.0138,1.0002,0.9949,1.0658,1.11,1.11,1.3354,1.5878,1.8094,1.7476,1.6304,1.6473,1.5606,1.4535,1.4066,1.3192,1.1366,0.7938,0.4491,0.1068,2.542,2.3985,2.1547,2.0757,2.0564,1.3915,0.9775,0.8055,0.0,0.0,0.0,-0.5341,-0.7995,-0.9361,-1.1959,-1.1655,-0.8871,-0.4962,-0.171,0.0894,0.1172,0.1268,0.1309,0.1803,0.2828,0.4256,0.4915,0.589,0.7242,0.7733,0.8697,0.9904,1.0436,1.1248,1.2221,1.225,1.2756,1.3659,1.4063,1.4153,1.4022,1.4431,1.4214,1.3294,1.3932,1.3693,1.2443,1.3157,1.3338,1.2625,1.2436,1.2372,1.2274,1.1983,1.1809,1.1806,1.254,1.3207,1.3667,1.2126,1.0399,0.8604,0.6298,0.5683,0.757,1.0584,1.2643,1.3089,1.3867,1.4237,1.4032,1.3259,1.2978,1.3686,1.3948,1.4284,1.4825,1.5179,1.5388,1.5308,1.5123,1.4961,1.4844,1.4781,1.4715,1.4671,1.4885,1.5101,1.4704,1.4295,1.3831,1.3445,1.295,1.2574,1.2211,1.1914,1.1791,1.1708,1.2423,1.2996,1.3521,1.5756,1.9454,2.4214,2.2007,2.005,1.9866,1.9571,1.8605,1.7709,1.6615,1.5507,1.4518,1.1141,0.7146,2.0646,1.7902,1.5519,1.2885,1.0299,0.6533,0.3503,0.1675,0.526,0.4784,0.1186,-0.1833,-0.5521,-0.9384,-0.931,-1.2227,-1.6722,-0.8871,-0.5138,0.0,-0.1761,-0.0765,-0.1481,-0.0992,0.0409,0.2497,0.3228,0.4158,0.5294,0.5252,0.5473,0.6087,0.6711,0.7822,0.9342,0.9545,1.0184,1.1114,1.2402,1.3257,1.3572,1.3614,1.3613,1.3356,1.2903,1.2511,1.2321,1.2597,1.2646,1.249,1.2675,1.2711,1.2493,1.238,1.2117,1.1849,1.27,1.3426,1.382,1.2773,1.0584,0.7171,0.5884,0.5828,0.7137,0.9897,1.1919,1.2584,1.3867,1.4467,1.3763,1.3822,1.4038,1.4462,1.5136,1.5934,1.6534,1.658,1.6405,1.641,1.6172,1.5666,1.5256,1.5515,1.5509,1.5228,1.54,1.5846,1.5524,1.4724,1.4104,1.4138,1.3763,1.3571,1.3908,1.392,1.3769,1.3959,1.4761,1.5028,1.3957,1.7466,2.2091,2.8125,2.5664,2.3741,2.3728,2.4498,2.3877,2.2645,2.0968,1.9751,1.9331,1.674,1.2997,1.5891,1.2759,0.9698,0.6586,0.3205,-0.1121,-0.2931,-0.2834,-0.0555,0.104,0.1799,0.0723,-0.1431,-0.4419,-0.5584,-0.8203,-1.1959,-0.8659,-0.7059,-0.6611,-0.3996,-0.2409,-0.19,-0.1503,-0.0668,0.0664,0.1396,0.2104,0.2866,0.2852,0.3295,0.4365,0.4925,0.5868,0.6969,0.7511,0.8296,0.9057,1.0863,1.2226,1.2831,1.3177,1.3085,1.2657,1.2452,1.2158,1.1652,1.1524,1.1559,1.1792,1.168,1.177,1.2276,1.2089,1.2149,1.2435,1.3066,1.3735,1.4242,1.2534,1.0398,0.7929,0.6999,0.684,0.7707,0.9571,1.1182,1.2175,1.3506,1.4101,1.3709,1.4077,1.452,1.4878,1.5655,1.6421,1.695,1.7143,1.7179,1.7213,1.6701,1.609,1.5835,1.5617,1.5503,1.5179,1.5555,1.5843,1.5557,1.5044,1.464,1.492,1.4692,1.4831,1.5411,1.5593,1.543,1.5286,1.6182,1.6194,1.5511,1.8813,2.3465,2.7777,2.7798,2.713,2.6446,2.7788,2.7865,2.6344,2.4807,2.3823,2.3117,2.0382,1.569,1.0865,0.7311,0.425,0.0843,-0.2804,-0.6769,-0.7598,-0.5856,-0.4225,-0.1398,0.2122,0.391,0.4296,0.3339,-0.0136,-0.3156,-0.5531,-0.7172,-0.8225,-0.873,-0.591,-0.3587,-0.1995,-0.159,-0.1174,-0.0672,-0.0175,0.0277,0.078,0.0931,0.1636,0.2849,0.3261,0.3918,0.4832,0.5485,0.6389,0.7247,0.8778,1.0228,1.1493,1.1934,1.1904,1.1502,1.1471,1.127,1.0731,1.0544,1.0745,1.111,1.0804,1.1155,1.2266,1.2165,1.2419,1.3224,1.3602,1.373,1.3846,1.2217,1.0465,0.9161,0.8445,0.8268,0.8659,0.9566,1.0546,1.1641,1.2769,1.3437,1.3466,1.3971,1.4493,1.5035,1.5787,1.6504,1.6991,1.7252,1.7363,1.7411,1.6805,1.623,1.5929,1.5549,1.5366,1.5355,1.5461,1.5357,1.5271,1.5062,1.5079,1.5397,1.5447,1.5691,1.6404,1.6866,1.6874,1.6545,1.729,1.7391,1.7239,1.9977,2.3472,2.6294,2.7908,2.8071,2.7534,2.8814,2.9591,2.8403,2.7536,2.6594,2.4819,2.1408,1.7172,0.5032,0.1299,-0.1299,-0.455,-0.7919,-0.8779,-0.8236,-0.6877,-0.4981,-0.1361,0.3155,0.8913,1.247,1.4007,0.7566,0.1738,-0.2855,-0.5077,-0.873,-1.2673,-0.7178,-0.3568,-0.2608,-0.1932,-0.1414,-0.099,-0.1043,-0.0913,-0.0382,-0.0309,0.0111,0.0716,0.0878,0.167,0.2856,0.3263,0.4164,0.5769,0.5389,0.6544,0.8883,0.922,0.9417,0.9724,0.9293,0.9376,0.965,0.9825,1.0215,1.0871,1.1148,1.1772,1.2473,1.2947,1.3394,1.3807,1.4051,1.3713,1.2636,1.2128,1.1273,0.9933,0.984,0.9785,0.9769,0.9994,1.0279,1.0756,1.184,1.2596,1.275,1.3374,1.4222,1.5127,1.5822,1.6536,1.6883,1.7067,1.6934,1.6279,1.6199,1.6032,1.5202,1.5395,1.5714,1.5629,1.5329,1.5404,1.5512,1.5275,1.5192,1.5477,1.5588,1.6244,1.7549,1.8131,1.8122,1.8622,1.9047,1.8641,1.8521,1.9915,2.2761,2.2936,2.4856,2.5758,2.6979,2.824,2.8459,2.9293,2.8731,2.7841,2.3928,2.0747,1.7766,-0.1371,-0.5982,-0.6022,-0.7816,-1.0414,-1.0332,-0.9661,-0.8515,-0.6341,-0.3203,0.061,0.4725,0.9633,1.4833,1.0354,0.617,0.2413,-0.1708,-0.5161,-0.7668,-0.5153,-0.3622,-0.2703,-0.2453,-0.2023,-0.1544,-0.159,-0.1396,-0.1115,-0.1121,-0.1108,-0.083,-0.0124,0.0642,0.1176,0.163,0.2219,0.2923,0.3156,0.4068,0.5512,0.6724,0.7495,0.7668,0.7815,0.798,0.8264,0.8658,0.9286,1.0042,1.0448,1.1083,1.206,1.2775,1.3477,1.399,1.3873,1.3444,1.267,1.2074,1.154,1.1218,1.1358,1.1318,1.0989,1.0887,1.0528,0.9722,1.0743,1.1674,1.2196,1.2742,1.3474,1.4339,1.4725,1.5093,1.5612,1.5592,1.5513,1.5579,1.5403,1.5268,1.4913,1.4954,1.5265,1.5423,1.5233,1.5309,1.5381,1.5146,1.5046,1.4982,1.4934,1.5775,1.7347,1.8004,1.8357,1.8913,1.9938,2.0018,1.8548,2.0482,2.1989,1.9252,2.0188,2.1848,2.3404,2.439,2.5015,2.7335,2.8342,2.7098,2.2992,2.0572,1.8498,-0.7052,-1.0017,-0.9775,-1.0498,-1.2017,-1.1721,-1.094,-0.9912,-0.8113,-0.5483,-0.2347,-0.0122,0.4186,0.9268,0.8677,0.7066,0.4625,-0.05,-0.3043,-0.3471,-0.3857,-0.3713,-0.3183,-0.2807,-0.2455,-0.2091,-0.1865,-0.169,-0.1456,-0.1611,-0.1748,-0.1733,-0.0851,-0.0379,-0.0389,0.0402,0.0962,0.1528,0.1999,0.2485,0.2965,0.4466,0.5556,0.579,0.6281,0.6792,0.7022,0.7807,0.8644,0.945,1.0,1.0728,1.1845,1.283,1.3526,1.4031,1.3633,1.2888,1.2204,1.1802,1.1718,1.2062,1.2345,1.2336,1.1799,1.1212,1.0305,0.9137,0.9634,1.0455,1.1101,1.1558,1.2279,1.3314,1.3719,1.3993,1.4261,1.4445,1.4624,1.4665,1.4579,1.456,1.4605,1.4642,1.4632,1.4988,1.5101,1.5063,1.4925,1.4962,1.4711,1.4494,1.424,1.4773,1.6331,1.7123,1.7781,1.9041,2.0219,2.0917,1.917,2.1673,1.937,1.5096,1.588,1.7214,1.9254,2.0236,2.1637,2.502,2.6171,2.4822,2.1638,1.9552,1.7597,-1.1789,-1.0483,-1.2316,-1.2998,-1.2944,-1.2956,-1.1951,-1.028,-0.9944,-0.7812,-0.463,-0.3401,-0.2144,-0.0355,0.2467,0.3147,0.1378,-0.2286,-0.424,-0.4518,-0.4006,-0.4005,-0.419,-0.3101,-0.2512,-0.2455,-0.2006,-0.1609,-0.1383,-0.15,-0.1693,-0.1761,-0.1644,-0.1708,-0.1499,-0.0394,0.0809,0.2173,0.239,0.203,0.1781,0.2705,0.3825,0.4539,0.491,0.575,0.6462,0.7684,0.854,0.9236,1.0127,1.1166,1.2573,1.3505,1.4052,1.3997,1.3379,1.2215,1.1038,1.1325,1.1782,1.1939,1.2492,1.258,1.1991,1.0828,0.9821,0.9088,0.8737,0.8831,0.9408,1.009,1.0939,1.2435,1.3223,1.3481,1.3535,1.4096,1.4233,1.3878,1.4065,1.4319,1.4375,1.4243,1.4335,1.4594,1.4837,1.4969,1.4875,1.4594,1.4385,1.3979,1.3361,1.3275,1.4837,1.5531,1.6904,1.8138,1.9488,2.1808,2.2222,2.1271,1.5466,1.0896,1.0763,1.1854,1.4621,1.6934,1.872,2.09,2.22,2.0944,1.8946,1.6917,1.5151,-1.3996,-1.2877,-1.3634,-1.3769,-1.3582,-1.3275,-1.2498,-1.1643,-1.1021,-0.9618,-0.765,-0.6841,-0.5809,-0.4428,-0.3838,-0.3324,-0.2994,-0.429,-0.4905,-0.5104,-0.5005,-0.494,-0.5018,-0.4057,-0.3403,-0.3034,-0.2356,-0.1795,-0.1334,-0.0859,-0.0508,-0.0539,-0.0345,-0.0602,-0.0867,0.0519,0.2135,0.3377,0.3201,0.3016,0.2968,0.3464,0.4013,0.4483,0.4958,0.5477,0.6073,0.7685,0.8626,0.9235,1.0403,1.1492,1.2457,1.3792,1.454,1.4397,1.338,1.2537,1.2316,1.2203,1.2632,1.3344,1.3536,1.3149,1.2347,1.12,1.0058,0.9122,0.8964,0.9114,0.9349,0.9786,1.0519,1.1782,1.2472,1.2964,1.3157,1.3588,1.3805,1.3851,1.4142,1.454,1.4779,1.4671,1.4702,1.4954,1.4942,1.5038,1.4874,1.4447,1.3743,1.2849,1.1687,1.0809,1.1538,1.3215,1.4762,1.6349,1.8178,2.1325,2.2627,1.853,1.3115,0.5379,0.4597,0.5843,0.8347,1.1813,1.4069,1.7855,1.9052,1.7615,1.5859,1.3987,1.2305,-1.5158,-1.4653,-1.4173,-1.3969,-1.3806,-1.3472,-1.2885,-1.2443,-1.2114,-1.1466,-1.0496,-0.9912,-0.8833,-0.7891,-0.8276,-0.8124,-0.7153,-0.6576,-0.6399,-0.6448,-0.6569,-0.6491,-0.6228,-0.5421,-0.4683,-0.3871,-0.2518,-0.1528,-0.0861,0.0092,0.098,0.1782,0.1565,0.1173,0.0852,0.1907,0.3148,0.3754,0.3725,0.3573,0.4001,0.4216,0.465,0.5155,0.5805,0.6178,0.6506,0.7821,0.8797,0.9593,1.0672,1.1991,1.3175,1.4518,1.5385,1.5517,1.4778,1.4221,1.4292,1.4174,1.4411,1.4976,1.4557,1.3811,1.287,1.1703,1.0496,0.9664,0.9475,0.9813,1.0198,1.0518,1.107,1.1912,1.2426,1.2803,1.3236,1.3744,1.4169,1.4717,1.4928,1.5199,1.5408,1.5206,1.5165,1.5363,1.5209,1.509,1.4855,1.4244,1.3088,1.1766,0.9825,0.8371,0.7772,0.8154,1.0383,1.21,1.4211,1.823,1.9062,1.4903,0.9896,0.1925,-0.0877,0.0143,0.256,0.632,1.0342,1.4909,1.5208,1.3855,1.2553,1.1263,0.9893,-1.5575,-1.532,-1.4305,-1.3905,-1.3898,-1.364,-1.3079,-1.2586,-1.3143,-1.3292,-1.2902,-1.2289,-1.1435,-1.0916,-1.0626,-1.0532,-1.0247,-0.9188,-0.8653,-0.8661,-0.8628,-0.8452,-0.7974,-0.7289,-0.6191,-0.5095,-0.2583,-0.0984,-0.0169,0.0808,0.2389,0.4253,0.3214,0.2824,0.3654,0.3339,0.334,0.3569,0.357,0.3712,0.4145,0.4657,0.5423,0.6455,0.7136,0.7577,0.7658,0.8101,0.8896,0.9858,1.0751,1.2471,1.4583,1.5805,1.6736,1.736,1.7654,1.7467,1.6787,1.6899,1.6626,1.6351,1.5376,1.4339,1.3494,1.2158,1.1083,1.0756,1.0734,1.0814,1.1496,1.1942,1.2324,1.2797,1.302,1.3437,1.3975,1.4581,1.536,1.6102,1.6301,1.6295,1.6353,1.6035,1.5777,1.5784,1.5615,1.5307,1.4966,1.4336,1.2814,1.0963,0.8975,0.721,0.4803,0.3009,0.518,0.7408,0.9661,1.2373,1.2182,0.9256,0.6616,0.0344,-0.0259,0.059,0.052,0.4295,0.7878,1.1196,1.0543,1.0959,0.9873,0.8835,0.7941,-1.5972,-1.5301,-1.417,-1.3586,-1.3476,-1.3202,-1.3036,-1.3207,-1.3762,-1.4139,-1.4146,-1.3839,-1.3388,-1.2864,-1.268,-1.2475,-1.2289,-1.175,-1.1076,-1.0448,-1.0545,-1.0391,-0.9739,-0.9104,-0.7666,-0.5508,-0.3259,-0.1696,-0.0926,-0.0088,0.0934,0.1987,0.3284,0.3453,0.3485,0.3801,0.4082,0.4039,0.4371,0.4676,0.4927,0.537,0.6176,0.719,0.7605,0.8086,0.8853,0.9361,0.9314,0.9249,1.0303,1.2095,1.4326,1.6331,1.7866,1.8843,1.9273,1.9491,1.9504,1.8473,1.784,1.7299,1.5975,1.4752,1.4038,1.2747,1.1851,1.1545,1.1864,1.2392,1.283,1.3513,1.3633,1.3147,1.3597,1.4268,1.5065,1.6319,1.7289,1.7965,1.7978,1.8007,1.7793,1.7386,1.7097,1.6831,1.649,1.6034,1.5555,1.4629,1.3087,1.121,0.8811,0.661,0.4614,0.343,0.4577,0.5512,0.6664,0.7774,0.6957,0.6379,0.3418,0.2874,0.2019,0.1706,0.1447,0.3288,0.7575,0.9056,0.9745,0.9273,0.7851,0.7021,0.6382,-1.6328,-1.5596,-1.4069,-1.3428,-1.3382,-1.3057,-1.3144,-1.3506,-1.4391,-1.4797,-1.5017,-1.5245,-1.4749,-1.4019,-1.3849,-1.3616,-1.3403,-1.3486,-1.3264,-1.2575,-1.2314,-1.2083,-1.1436,-1.0309,-0.8673,-0.6458,-0.4427,-0.2881,-0.1677,-0.0965,0.0093,0.149,0.2737,0.3437,0.3475,0.3875,0.4142,0.4265,0.4585,0.5026,0.5441,0.5763,0.6572,0.7744,0.8054,0.8388,0.8923,0.9492,0.9502,0.91,1.0314,1.2069,1.4229,1.6622,1.8787,2.0227,2.0958,2.1294,2.11,1.9738,1.846,1.7621,1.5898,1.455,1.3909,1.3037,1.2355,1.2182,1.2639,1.3286,1.3839,1.4504,1.4683,1.4592,1.4846,1.5414,1.6273,1.7875,1.914,1.9757,1.9972,1.9907,1.9761,1.8983,1.8627,1.8277,1.7514,1.6827,1.6371,1.5443,1.3806,1.2258,1.051,0.8028,0.5085,0.4393,0.4517,0.4139,0.4039,0.4507,0.4403,0.4897,0.3536,0.7286,0.7878,0.8527,0.8539,0.8249,1.0609,1.0095,0.9688,0.8069,0.6974,0.6141,0.5486,-1.6619,-1.5958,-1.4276,-1.3568,-1.3682,-1.3103,-1.3071,-1.3565,-1.4736,-1.5452,-1.5672,-1.6002,-1.5741,-1.4838,-1.4365,-1.4081,-1.3884,-1.4168,-1.4625,-1.4469,-1.3982,-1.3313,-1.2928,-1.1133,-0.9236,-0.757,-0.5902,-0.4174,-0.2435,-0.1322,0.0187,0.19,0.2406,0.2866,0.3717,0.3706,0.3833,0.412,0.4251,0.4809,0.5699,0.5863,0.6649,0.7981,0.8171,0.8174,0.8136,0.8729,0.8968,0.8968,1.0276,1.2004,1.431,1.7038,1.9282,2.1003,2.2494,2.2038,2.1317,1.9183,1.7973,1.6344,1.4865,1.3988,1.3308,1.2841,1.2541,1.2514,1.2864,1.3547,1.4225,1.5032,1.5749,1.6824,1.6842,1.6988,1.7582,1.9374,2.09,2.1918,2.2064,2.2035,2.2125,2.1033,2.0438,2.0053,1.9208,1.8512,1.7735,1.7008,1.5408,1.4038,1.3143,1.2024,0.9862,0.9853,1.0011,0.9514,0.8313,0.7774,0.6755,0.7084,0.9392,1.2668,1.4742,1.5404,1.5322,1.5215,1.3245,1.1924,1.0379,0.7869,0.6298,0.5726,0.473,-1.5964,-1.5386,-1.4135,-1.362,-1.3761,-1.3175,-1.3401,-1.3852,-1.4619,-1.5345,-1.5759,-1.5728,-1.5475,-1.5196,-1.4428,-1.402,-1.4013,-1.4122,-1.466,-1.5098,-1.4459,-1.3861,-1.3221,-1.1709,-1.0028,-0.8436,-0.651,-0.4794,-0.3364,-0.1604,-0.0188,0.1087,0.2502,0.3181,0.3569,0.3923,0.4069,0.4115,0.4504,0.491,0.521,0.569,0.6319,0.7115,0.7501,0.7538,0.7512,0.7443,0.7765,0.8144,0.9307,1.1349,1.376,1.614,1.7938,1.9052,1.8998,1.9402,1.8977,1.5923,1.3895,1.3995,1.2221,1.1921,1.2564,1.2142,1.2013,1.2194,1.2606,1.3149,1.3913,1.5119,1.6646,1.8548,1.8833,1.8801,1.9262,2.0931,2.3047,2.4619,2.4499,2.4228,2.3982,2.3676,2.3078,2.266,2.2011,2.1173,2.0298,1.9604,1.8418,1.792,1.703,1.6577,1.5885,1.5864,1.5841,1.5642,1.538,1.5286,1.4389,1.3866,1.7673,2.1952,2.2655,2.3298,2.2495,2.183,1.8752,1.3926,0.9948,0.699,0.632,0.559,0.4262,-1.5512,-1.4988,-1.413,-1.3866,-1.3957,-1.365,-1.3969,-1.4404,-1.4818,-1.5402,-1.5824,-1.5686,-1.5364,-1.5059,-1.4576,-1.4128,-1.3988,-1.4013,-1.4582,-1.4866,-1.4265,-1.346,-1.2505,-1.1393,-1.0088,-0.8383,-0.6617,-0.4772,-0.3071,-0.1623,-0.019,0.1405,0.2719,0.3625,0.3943,0.39,0.4151,0.4325,0.4446,0.4702,0.5002,0.546,0.5937,0.6427,0.6655,0.6707,0.6909,0.6646,0.693,0.7757,0.9138,1.0886,1.2969,1.4822,1.5906,1.6196,1.4964,1.3934,1.2616,0.9557,0.7981,0.8199,0.7726,0.8739,0.9853,1.0385,1.0724,1.1535,1.2247,1.302,1.3875,1.5631,1.7669,1.9475,2.0544,2.0728,2.0269,2.2564,2.5011,2.647,2.6881,2.6294,2.6027,2.5999,2.5761,2.5294,2.4483,2.3828,2.3121,2.2475,2.1984,2.1357,2.154,2.1382,2.162,2.1919,2.1592,2.1512,2.0879,2.1189,2.0116,1.961,2.334,2.7093,2.9303,2.9836,2.7285,2.423,1.9559,1.4728,1.0081,0.6242,0.5027,0.4007,0.2777,-1.5192,-1.4819,-1.4325,-1.4253,-1.4379,-1.4429,-1.4499,-1.4999,-1.5218,-1.5453,-1.572,-1.5754,-1.5328,-1.4779,-1.4638,-1.4344,-1.3656,-1.4187,-1.446,-1.4378,-1.3648,-1.265,-1.1252,-1.0668,-0.95,-0.7749,-0.6324,-0.4233,-0.2418,-0.1264,0.0289,0.1933,0.3158,0.3862,0.4277,0.4236,0.4105,0.4255,0.4232,0.4355,0.4655,0.4805,0.5113,0.5443,0.5554,0.5769,0.6105,0.6166,0.6619,0.7624,0.9035,1.0543,1.2004,1.3193,1.3038,1.1972,0.98,0.7084,0.3715,0.1823,0.072,0.0696,0.195,0.4189,0.6331,0.8103,0.9625,1.0665,1.1885,1.2964,1.4397,1.6635,1.8525,2.0121,2.157,2.2153,2.22,2.3976,2.6705,2.8832,2.8729,2.8359,2.8374,2.8415,2.8415,2.8318,2.7521,2.7094,2.6535,2.5936,2.5499,2.5056,2.5606,2.6553,2.7028,2.774,2.7449,2.723,2.6122,2.5434,2.3842,2.4263,2.7656,3.015,2.8694,2.8146,2.7657,2.386,1.7993,1.1277,0.3813,0.2399,0.2015,0.1213,0.0118,-1.4539,-1.4539,-1.4313,-1.4548,-1.4873,-1.471,-1.46,-1.4829,-1.5168,-1.5152,-1.5018,-1.5018,-1.4818,-1.457,-1.4359,-1.4123,-1.3967,-1.4174,-1.4238,-1.3423,-1.2969,-1.1578,-1.0299,-0.9686,-0.8998,-0.759,-0.5331,-0.332,-0.1728,-0.0092,0.1355,0.2433,0.3379,0.4051,0.4475,0.4568,0.4309,0.4086,0.4065,0.3919,0.3787,0.3925,0.4059,0.4211,0.4328,0.4703,0.5332,0.5888,0.6337,0.7006,0.8046,0.9392,1.0812,1.0743,0.9967,0.8147,0.5122,0.0568,-0.4754,-0.5504,-0.6443,-0.6744,-0.3798,-0.0954,0.2661,0.6364,0.8347,0.9525,1.0873,1.2739,1.519,1.7162,1.8935,2.0539,2.2358,2.3607,2.3863,2.5182,2.7501,2.9332,3.001,2.9865,3.0137,3.0528,3.0686,3.1035,3.0766,3.039,2.9854,2.9327,2.8956,2.8575,2.9248,3.0065,3.0915,3.1281,3.0886,2.9777,2.874,2.6423,2.4804,2.3179,2.4434,2.5472,2.6094,2.4887,2.1026,1.6412,0.8927,0.3096,-0.2067,-0.246,-0.2821,-0.2945,-0.2777,-1.4146,-1.4408,-1.4539,-1.4911,-1.5264,-1.5137,-1.522,-1.5267,-1.4935,-1.4684,-1.4494,-1.4373,-1.4068,-1.4053,-1.409,-1.4115,-1.3904,-1.3883,-1.369,-1.2968,-1.2197,-1.0802,-0.9297,-0.8355,-0.7583,-0.6631,-0.4839,-0.2782,-0.1001,0.0569,0.1897,0.2792,0.3619,0.4302,0.4683,0.4753,0.4496,0.414,0.3995,0.3858,0.3468,0.3308,0.3342,0.3507,0.3738,0.4246,0.4682,0.5417,0.6228,0.6741,0.6805,0.7825,0.9352,0.8392,0.6874,0.5422,0.2007,-0.2271,-0.6676,-0.8494,-0.8565,-0.9591,-0.6893,-0.3394,0.0253,0.4102,0.6538,0.8236,1.02,1.2591,1.577,1.7521,1.9089,2.0737,2.265,2.4201,2.5326,2.6843,2.8828,3.0701,3.1394,3.1439,3.1637,3.2231,3.2794,3.3035,3.3516,3.3125,3.3179,3.2618,3.2588,3.2455,3.2914,3.366,3.4412,3.4376,3.3506,3.1598,2.9209,2.5483,2.1922,2.0083,1.8495,1.8378,1.7558,1.2269,0.827,0.3729,-0.0377,-0.7291,-1.0821,-0.9284,-0.7883,-0.763,-0.7275,-1.3621,-1.4313,-1.4594,-1.5081,-1.5437,-1.5375,-1.552,-1.5647,-1.4753,-1.42,-1.3961,-1.356,-1.3252,-1.3084,-1.3428,-1.3582,-1.356,-1.3287,-1.2893,-1.2411,-1.151,-1.0208,-0.8768,-0.7332,-0.6231,-0.4945,-0.3874,-0.223,-0.0388,0.11,0.2072,0.2875,0.3591,0.4114,0.4669,0.4825,0.4425,0.3939,0.3918,0.3403,0.3013,0.2845,0.288,0.3263,0.3442,0.3745,0.4171,0.4912,0.5597,0.6337,0.4752,0.5251,0.5876,0.5751,0.4012,0.3535,0.03,-0.2626,-0.5174,-0.6813,-0.751,-0.7892,-0.8534,-0.5657,-0.1844,0.2075,0.492,0.7469,0.9865,1.2981,1.6049,1.8002,1.9454,2.0974,2.2777,2.4548,2.628,2.8127,2.9909,3.1574,3.1986,3.191,3.2883,3.3598,3.4283,3.5002,3.5554,3.6019,3.5932,3.5955,3.5855,3.5689,3.6096,3.6096,3.6647,3.5698,3.503,3.1905,2.9325,2.3803,1.8284,1.1744,0.8581,0.8614,0.6652,0.1569,-0.2465,-0.5643,-1.0755,-1.785,-1.8053,-1.4945,-1.3277,-1.2284,-1.2045,-1.3178,-1.3712,-1.413,-1.4494,-1.4831,-1.5008,-1.4828,-1.4537,-1.4239,-1.3476,-1.2637,-1.2594,-1.2494,-1.2326,-1.2481,-1.2831,-1.2742,-1.2358,-1.2016,-1.1537,-1.0826,-0.9682,-0.791,-0.6855,-0.5659,-0.4415,-0.3255,-0.1669,-0.0102,0.1157,0.1932,0.2692,0.3416,0.3827,0.3963,0.4107,0.3689,0.3286,0.3386,0.2993,0.2059,0.1894,0.216,0.2659,0.2795,0.307,0.3322,0.4056,0.4215,0.2937,0.116,-0.0157,-0.0588,0.0134,0.0483,0.0108,-0.05,-0.2029,-0.3335,-0.3555,-0.5197,-0.7675,-0.9786,-0.9227,-0.4213,0.1066,0.4781,0.7148,1.0462,1.397,1.6767,1.8714,2.0377,2.1887,2.3613,2.5138,2.6216,2.7736,2.9597,3.1247,3.1733,3.245,3.3359,3.4452,3.5537,3.6622,3.7834,3.8437,3.8809,3.8912,3.8973,3.8948,3.8906,3.8786,3.8604,3.6969,3.5425,3.1396,2.7306,2.0617,1.35,0.2547,-0.1856,-0.1959,-0.3899,-0.7982,-1.1706,-1.4915,-1.7936,-2.2523,-2.1506,-1.9668,-1.848,-1.7338,-1.7154,-1.3108,-1.3646,-1.3883,-1.4139,-1.4164,-1.3855,-1.397,-1.3995,-1.328,-1.2471,-1.1913,-1.1632,-1.1195,-1.091,-1.117,-1.1453,-1.125,-1.1114,-1.0706,-1.0305,-0.9818,-0.8944,-0.7398,-0.6601,-0.5326,-0.4198,-0.3105,-0.2043,-0.0539,0.0662,0.134,0.2015,0.2959,0.3439,0.2959,0.2287,0.2076,0.187,0.2282,0.2233,0.1155,0.1503,0.1914,0.1873,0.2312,0.2574,0.3341,0.3757,0.3027,0.0873,-0.1348,-0.4025,-0.5625,-0.5402,-0.3868,-0.3181,-0.1874,-0.0999,-0.1112,-0.0863,-0.0933,-0.2123,-0.5059,-0.4431,-0.1114,0.3006,0.5889,0.8314,1.0673,1.4469,1.7306,1.9463,2.1152,2.2767,2.4483,2.5638,2.6408,2.77,2.9093,3.058,3.1238,3.219,3.3603,3.4862,3.6393,3.8015,3.9721,4.0609,4.1375,4.1678,4.1634,4.1438,4.1103,4.0235,3.9281,3.7146,3.4113,3.0149,2.4433,1.7822,0.9052,-0.1837,-0.9192,-1.2547,-1.5312,-1.5935,-2.0909,-2.4058,-2.5698,-2.6016,-2.4442,-2.3138,-2.2843,-2.2398,-2.2018,-1.2725,-1.3358,-1.3319,-1.3424,-1.3302,-1.2676,-1.278,-1.31,-1.2305,-1.1453,-1.1041,-1.0662,-1.0037,-0.9608,-0.9741,-0.9883,-0.9661,-0.9709,-0.9537,-0.9187,-0.878,-0.795,-0.6992,-0.6191,-0.5297,-0.4249,-0.3436,-0.2853,-0.1524,-0.0352,0.0352,0.1167,0.2358,0.2821,0.2089,0.0809,0.0233,0.0353,0.0481,0.0621,0.1057,0.1693,0.2252,0.189,0.2158,0.2757,0.3527,0.3588,0.197,-0.0879,-0.393,-0.6934,-0.9504,-0.945,-0.8293,-0.6315,-0.3285,-0.1194,0.0545,0.2376,0.3512,0.3832,0.3806,0.3641,0.3233,0.4649,0.7192,0.9919,1.2238,1.492,1.8086,2.0374,2.2274,2.385,2.5512,2.6694,2.7082,2.7867,2.8692,2.9833,3.0663,3.1893,3.3311,3.5149,3.6643,3.8562,4.0269,4.1992,4.2755,4.3773,4.3878,4.3499,4.2835,4.1584,3.9655,3.6574,3.2559,2.7477,2.0724,1.3394,0.4018,-0.5986,-1.1797,-1.6766,-1.9285,-2.0542,-2.6856,-2.9518,-2.6907,-2.5472,-2.6114,-2.6133,-2.5182,-2.5572,-2.5937,-1.166,-1.2587,-1.2175,-1.2168,-1.2201,-1.1724,-1.156,-1.1665,-1.1121,-1.0554,-1.0168,-0.9982,-0.9623,-0.9137,-0.8731,-0.877,-0.8779,-0.8913,-0.8644,-0.8312,-0.8117,-0.7517,-0.6835,-0.605,-0.5393,-0.4481,-0.3769,-0.2807,-0.1993,-0.138,-0.062,0.0121,0.0848,0.121,0.0824,-0.0235,-0.0588,-0.0474,-0.1577,-0.1538,0.0138,0.1595,0.2587,0.3183,0.3312,0.3428,0.3517,0.3211,0.1604,-0.1761,-0.6904,-0.9564,-0.9869,-1.0457,-1.0427,-0.8384,-0.4907,-0.0369,0.1684,0.4024,0.6509,0.7552,0.8386,0.7181,0.5667,0.5406,0.7365,0.993,1.2701,1.5827,1.9302,2.2128,2.4123,2.5682,2.6956,2.7678,2.8026,2.8517,2.9223,2.956,3.0548,3.1709,3.3146,3.5026,3.6937,3.8908,4.0905,4.264,4.4305,4.5229,4.5744,4.5261,4.4194,4.2851,3.9545,3.658,3.1732,2.5839,1.743,0.9731,0.1801,-0.6264,-1.2473,-1.6888,-1.9444,-2.1063,-2.3489,-2.4502,-2.4249,-2.4682,-2.4987,-2.6015,-2.6995,-2.7891,-2.8446,-1.031,-1.1413,-1.1228,-1.1103,-1.0875,-1.0322,-1.0404,-1.0601,-1.0298,-0.9851,-0.958,-0.9516,-0.9303,-0.8994,-0.8624,-0.837,-0.8228,-0.8379,-0.8154,-0.7878,-0.7685,-0.7408,-0.6762,-0.6118,-0.5611,-0.5085,-0.4378,-0.3833,-0.3009,-0.2196,-0.1397,-0.0748,-0.0373,-0.0369,-0.0478,-0.1195,-0.1792,-0.2302,-0.2633,-0.1991,-0.0282,0.1179,0.2301,0.3037,0.316,0.325,0.3141,0.3007,0.1236,-0.2448,-0.7435,-1.0058,-1.0479,-1.1224,-1.1817,-1.1195,-0.8255,-0.4569,-0.105,0.247,0.5099,0.6994,0.7531,0.6652,0.5833,0.6245,0.7709,1.0775,1.3963,1.727,2.0883,2.4008,2.6012,2.7638,2.8785,2.8674,2.9046,2.9509,2.9983,3.0125,3.0396,3.1963,3.3446,3.5149,3.7101,3.9144,4.1303,4.3443,4.5171,4.6773,4.6995,4.6914,4.5531,4.4017,3.996,3.6186,3.1357,2.4903,1.5177,0.7788,0.1587,-0.5443,-1.0889,-1.3887,-1.5021,-1.6888,-1.9097,-2.0429,-2.1016,-2.2323,-2.3759,-2.4641,-2.5693,-2.7545,-2.8271,-0.9087,-0.9944,-1.0161,-1.0052,-0.9595,-0.8825,-0.9014,-0.9772,-0.944,-0.9278,-0.9014,-0.906,-0.9008,-0.906,-0.8835,-0.8576,-0.8127,-0.8267,-0.7914,-0.7703,-0.734,-0.7356,-0.691,-0.6549,-0.6043,-0.5781,-0.5124,-0.4714,-0.4021,-0.3181,-0.2213,-0.1399,-0.1009,-0.1241,-0.1701,-0.2042,-0.2402,-0.3075,-0.2834,-0.204,-0.0716,0.0297,0.1233,0.1918,0.2317,0.2381,0.2587,0.2961,0.1218,-0.277,-0.6932,-0.9445,-1.0116,-1.122,-1.1965,-1.1559,-0.9891,-0.8173,-0.4892,-0.1814,0.0819,0.2713,0.4445,0.5278,0.6049,0.6575,0.8209,1.1557,1.5451,1.9097,2.2833,2.6366,2.8594,2.9951,3.0806,3.0391,3.0174,3.0691,3.109,3.115,3.1715,3.2623,3.4121,3.5477,3.7265,3.9426,4.1633,4.3979,4.5766,4.756,4.7444,4.7205,4.6504,4.4492,4.0103,3.567,3.0826,2.3993,1.4204,0.6382,0.0483,-0.3336,-0.7415,-0.9554,-1.0849,-1.1939,-1.362,-1.5806,-1.8009,-1.9155,-2.0503,-2.2464,-2.4053,-2.5741,-2.5829,-0.8114,-0.8124,-0.8797,-0.877,-0.8304,-0.7538,-0.7721,-0.8587,-0.8258,-0.8547,-0.8872,-0.8489,-0.877,-0.9145,-0.9313,-0.9039,-0.8765,-0.846,-0.8099,-0.7869,-0.7339,-0.7394,-0.7139,-0.6769,-0.6285,-0.6476,-0.596,-0.5447,-0.5059,-0.4067,-0.3318,-0.2719,-0.1915,-0.1615,-0.1825,-0.2165,-0.2318,-0.2759,-0.2493,-0.2341,-0.173,-0.1047,-0.0,0.0953,0.1135,0.1154,0.1852,0.2211,0.0684,-0.3415,-0.6362,-0.8641,-0.9389,-1.0725,-1.1356,-1.1265,-1.0992,-0.9575,-0.7619,-0.5014,-0.2849,-0.1126,0.125,0.3961,0.5447,0.6879,0.908,1.2186,1.6352,2.0989,2.5147,2.9126,3.099,3.2139,3.2564,3.2247,3.197,3.2195,3.2474,3.247,3.3072,3.4288,3.5223,3.6839,3.7821,3.9803,4.2135,4.4421,4.5875,4.7291,4.7267,4.7001,4.7019,4.4594,4.0153,3.5105,2.9041,2.2161,1.3599,0.6355,-0.0048,-0.3166,-0.5878,-0.593,-0.7284,-0.7715,-0.86,-1.1506,-1.4022,-1.5501,-1.7138,-1.8792,-1.9113,-1.9496,-1.8913,-0.7731,-0.8025,-0.8413,-0.8101,-0.7634,-0.7152,-0.7408,-0.7902,-0.7977,-0.84,-0.9166,-0.8829,-0.9002,-0.9672,-0.9562,-0.9452,-0.9071,-0.8644,-0.843,-0.793,-0.7571,-0.7472,-0.7364,-0.7137,-0.6813,-0.687,-0.6349,-0.5998,-0.5755,-0.491,-0.472,-0.396,-0.297,-0.2518,-0.2587,-0.2312,-0.223,-0.2167,-0.2254,-0.2214,-0.2178,-0.181,-0.1087,-0.0637,-0.0323,-0.0489,-0.0165,0.0661,-0.1496,-0.4023,-0.5924,-0.7163,-0.8419,-0.9626,-1.032,-1.0651,-1.0398,-0.9932,-0.9112,-0.6784,-0.4562,-0.1584,0.0989,0.348,0.5305,0.7252,0.9638,1.3195,1.7055,2.1568,2.5963,2.9641,3.2264,3.3744,3.431,3.3907,3.39,3.384,3.4855,3.5285,3.5574,3.6099,3.7066,3.8109,3.9128,4.0268,4.2593,4.4796,4.6173,4.7215,4.7162,4.7081,4.7007,4.4715,4.0408,3.395,2.723,2.0265,1.3178,0.6547,0.0335,-0.3036,-0.5096,-0.4542,-0.4159,-0.5269,-0.6637,-0.8263,-1.0321,-1.2621,-1.3841,-1.4635,-1.4471,-1.2927,-1.0158,-0.7947,-0.8239,-0.8203,-0.7734,-0.7243,-0.7027,-0.7119,-0.7585,-0.7781,-0.8334,-0.9365,-0.9204,-0.941,-0.9795,-0.9417,-0.9209,-0.8853,-0.8584,-0.8083,-0.7723,-0.7349,-0.7521,-0.7528,-0.7416,-0.7057,-0.7048,-0.6943,-0.6585,-0.6389,-0.5669,-0.5492,-0.5172,-0.431,-0.3553,-0.3101,-0.2471,-0.2126,-0.2053,-0.2135,-0.2211,-0.2175,-0.2255,-0.247,-0.2522,-0.2393,-0.2577,-0.2585,-0.2107,-0.2769,-0.4612,-0.5829,-0.6249,-0.7348,-0.8272,-0.8985,-0.9302,-0.9408,-0.9277,-0.7921,-0.716,-0.517,-0.2085,0.0587,0.3197,0.5663,0.7588,0.9775,1.2596,1.6981,2.1357,2.5512,2.9094,3.224,3.3843,3.5259,3.5298,3.5235,3.5374,3.7113,3.8377,3.8358,3.8158,3.9171,4.0283,4.1038,4.2068,4.3676,4.5391,4.6389,4.7215,4.7485,4.7335,4.7066,4.4153,4.0547,3.4241,2.7915,2.1054,1.4041,0.7007,0.1407,-0.1405,-0.2809,-0.2026,-0.2058,-0.3209,-0.3544,-0.3648,-0.6693,-1.0303,-0.9361,-0.6939,-0.3944,-0.1616,0.1738,-0.89,-0.8239,-0.8331,-0.7678,-0.6844,-0.6721,-0.6991,-0.7382,-0.7391,-0.7946,-0.8872,-0.908,-0.9446,-0.9467,-0.8776,-0.8697,-0.8647,-0.8093,-0.775,-0.7481,-0.7172,-0.7346,-0.7607,-0.7601,-0.7365,-0.7503,-0.7303,-0.6994,-0.6836,-0.6144,-0.5981,-0.5796,-0.4794,-0.3939,-0.3833,-0.296,-0.2367,-0.2034,-0.1878,-0.2086,-0.2309,-0.2693,-0.3515,-0.4044,-0.4402,-0.4604,-0.4767,-0.431,-0.4653,-0.5183,-0.5575,-0.5657,-0.5912,-0.6816,-0.7206,-0.7083,-0.8133,-0.7391,-0.5269,-0.6041,-0.4124,-0.1553,0.123,0.3213,0.5492,0.7527,0.9136,1.2005,1.5629,1.9784,2.4007,2.7719,3.0618,3.34,3.4679,3.623,3.6174,3.6829,3.8334,3.9673,3.9977,4.022,4.1447,4.2475,4.3233,4.4256,4.5258,4.6091,4.6645,4.698,4.721,4.6785,4.6311,4.3658,4.0002,3.4728,2.8621,2.1782,1.5784,0.9739,0.5787,0.3823,0.2599,0.2013,0.3085,0.4624,0.3283,0.1838,0.3341,0.5594,0.2094,0.3437,0.6537,1.0534,1.4486,-0.9377,-0.8778,-0.8745,-0.8189,-0.7541,-0.7128,-0.7283,-0.7762,-0.7694,-0.7789,-0.7912,-0.827,-0.8531,-0.8555,-0.848,-0.8382,-0.8324,-0.7985,-0.764,-0.7791,-0.7455,-0.7712,-0.7954,-0.7828,-0.7609,-0.765,-0.7355,-0.7198,-0.7043,-0.6272,-0.605,-0.5881,-0.4884,-0.4434,-0.365,-0.2655,-0.1285,-0.0264,-0.0544,-0.1262,-0.1755,-0.2995,-0.4278,-0.4981,-0.5633,-0.6271,-0.674,-0.5984,-0.5865,-0.5737,-0.5799,-0.5564,-0.5507,-0.6074,-0.6287,-0.5824,-0.6185,-0.3942,-0.1704,-0.0669,0.0498,0.1636,0.2587,0.4507,0.6595,0.8131,0.9425,1.0753,1.3678,1.7077,1.9888,2.3473,2.6834,3.0849,3.3047,3.5695,3.6767,3.7746,3.903,3.9981,4.0641,4.1643,4.2692,4.2777,4.3527,4.3916,4.4571,4.511,4.5582,4.6086,4.645,4.5866,4.502,4.2711,3.948,3.5183,3.1106,2.5508,2.0213,1.498,1.1725,0.9697,1.1473,1.2707,1.2867,1.3018,1.6528,1.9919,2.2808,2.3656,2.0996,1.8718,2.1107,2.4944,2.867,-0.972,-0.9162,-0.9057,-0.8643,-0.8034,-0.7341,-0.7341,-0.7529,-0.7432,-0.7265,-0.7293,-0.7532,-0.7762,-0.8035,-0.821,-0.8107,-0.8043,-0.8046,-0.7651,-0.793,-0.7838,-0.7915,-0.8038,-0.809,-0.7795,-0.772,-0.7443,-0.7178,-0.7036,-0.6202,-0.5751,-0.539,-0.4458,-0.33,-0.2546,-0.1548,-0.0656,0.0403,0.0276,-0.0284,-0.1612,-0.3149,-0.4736,-0.5578,-0.64,-0.7349,-0.7472,-0.7325,-0.6896,-0.6605,-0.6029,-0.5471,-0.5254,-0.5153,-0.5185,-0.4208,-0.2374,-0.0,0.2579,0.3607,0.4442,0.5317,0.5761,0.6392,0.7413,0.8142,0.8488,0.9751,1.1564,1.3297,1.5757,1.9397,2.2523,2.6565,3.0478,3.3071,3.6732,3.7675,3.8461,3.9633,4.074,4.2001,4.3024,4.3184,4.3271,4.3472,4.3624,4.3931,4.407,4.4683,4.4683,4.3818,4.3345,4.1537,3.9396,3.6674,3.2703,2.8905,2.4705,2.0466,1.8436,1.6751,2.0049,2.3588,2.4823,2.7813,3.5072,3.9327,4.117,4.2156,4.1568,3.9455,3.731,3.8765,4.1627,-0.9967,-0.9423,-0.9172,-0.8799,-0.8372,-0.7622,-0.707,-0.6686,-0.6336,-0.6471,-0.6796,-0.6948,-0.7258,-0.7532,-0.8135,-0.8114,-0.7858,-0.8318,-0.8172,-0.8015,-0.8272,-0.8359,-0.8274,-0.8351,-0.8225,-0.7932,-0.7552,-0.7194,-0.708,-0.6107,-0.5459,-0.4524,-0.3269,-0.2279,-0.154,-0.0913,-0.0133,0.0953,0.1115,0.0143,-0.1469,-0.3884,-0.5316,-0.6316,-0.7301,-0.8101,-0.842,-0.8283,-0.7825,-0.7053,-0.5971,-0.491,-0.4319,-0.3876,-0.2778,-0.0992,0.1338,0.3756,0.5743,0.6425,0.753,0.7918,0.8403,0.8362,0.7999,0.8031,0.8031,0.8173,0.9256,1.0314,1.195,1.4653,1.7391,2.1869,2.6489,3.0546,3.5143,3.6844,3.7686,3.8698,3.9648,4.0701,4.1474,4.1943,4.115,4.1028,4.0772,4.0381,4.0869,4.2201,4.2027,4.0748,4.0401,4.0237,3.8355,3.6664,3.5367,3.1835,3.0489,2.7129,2.5247,2.5235,2.9693,3.3646,3.7099,4.2122,4.9473,5.4656,5.813,5.8586,5.6566,5.3678,4.9625,5.0327,5.2702,-0.9516,-0.9404,-0.9443,-0.9181,-0.8626,-0.7814,-0.7074,-0.6319,-0.6491,-0.6474,-0.611,-0.663,-0.725,-0.7638,-0.8447,-0.8582,-0.8765,-0.9063,-0.9356,-0.9396,-0.9566,-0.9478,-0.9326,-0.9112,-0.8883,-0.8412,-0.7847,-0.741,-0.7038,-0.629,-0.4927,-0.3658,-0.2718,-0.1761,-0.1157,-0.0524,0.0269,0.0964,0.1125,-0.0144,-0.2049,-0.4614,-0.6053,-0.7213,-0.8338,-0.929,-0.9619,-0.9692,-0.9216,-0.822,-0.7497,-0.6462,-0.3668,-0.3531,-0.2426,0.2147,0.3852,0.5269,0.6592,0.7826,0.8935,0.9623,0.9605,0.9428,0.8888,0.8172,0.7477,0.742,0.737,0.8191,0.9293,1.1535,1.4144,1.8096,2.2526,2.6367,3.0735,3.3034,3.4062,3.6078,3.713,3.8221,3.9069,3.8804,3.8058,3.7901,3.769,3.7086,3.7462,3.8773,3.9279,3.803,3.7828,3.7817,3.7983,3.6589,3.6273,3.531,3.4076,3.3454,3.2512,3.3845,3.9236,4.4664,4.9678,5.6503,6.4096,6.755,6.8573,6.93,6.767,6.4787,6.2521,6.1286,6.1016,-0.9155,-0.9265,-0.9433,-0.9181,-0.8654,-0.8402,-0.7709,-0.6958,-0.6677,-0.6408,-0.6279,-0.6941,-0.7578,-0.8574,-0.9609,-1.0196,-1.0574,-1.1089,-1.1392,-1.1401,-1.1134,-1.0697,-1.0397,-1.001,-0.9595,-0.9035,-0.8414,-0.7797,-0.7208,-0.6191,-0.489,-0.4542,-0.3275,-0.237,-0.1917,-0.1562,-0.1206,-0.0552,-0.0565,-0.1293,-0.3209,-0.5628,-0.7235,-0.8255,-0.9524,-1.0157,-1.0673,-1.0635,-1.0003,-0.9475,-0.8934,-0.7413,-0.4609,-0.3505,-0.0968,0.3134,0.4684,0.5778,0.7097,0.8552,0.9522,1.0155,1.0213,1.0026,0.9286,0.855,0.747,0.6735,0.6174,0.6109,0.7333,0.8806,1.1733,1.4774,1.8279,2.1799,2.4943,2.7989,3.0319,3.2597,3.4018,3.5102,3.543,3.5168,3.4777,3.4522,3.3901,3.3337,3.3754,3.4993,3.5521,3.502,3.5276,3.5463,3.5718,3.623,3.6344,3.6874,3.8229,3.786,3.8368,4.1588,4.6118,5.45,6.3515,6.862,7.2274,7.497,7.6261,7.5681,7.3409,6.9738,6.6809,6.6136,6.6493,-0.8768,-0.9116,-0.9339,-0.9138,-0.8627,-0.9103,-0.8987,-0.8292,-0.7132,-0.6667,-0.7142,-0.7713,-0.8641,-0.969,-1.0916,-1.2068,-1.2516,-1.3061,-1.3153,-1.3485,-1.2648,-1.1973,-1.1362,-1.0844,-1.0618,-1.0029,-0.9256,-0.8488,-0.7275,-0.6498,-0.6039,-0.5869,-0.48,-0.3956,-0.371,-0.4023,-0.4001,-0.3863,-0.3385,-0.3734,-0.509,-0.708,-0.8835,-0.9299,-0.9971,-1.0779,-1.091,-1.0849,-1.0448,-1.0414,-0.9766,-0.8531,-0.6017,-0.3186,0.0324,0.2804,0.4521,0.579,0.7097,0.8569,0.9726,1.0342,1.0738,1.0382,0.9829,0.8888,0.7795,0.6748,0.6369,0.618,0.6938,0.8248,1.0576,1.2847,1.5528,1.8661,2.1431,2.4495,2.7211,2.9213,3.05,3.1465,3.1653,3.1337,3.102,3.0764,3.0232,2.9505,2.9898,3.112,3.1796,3.1971,3.2642,3.3151,3.3937,3.4741,3.5985,3.7346,3.9617,4.2603,4.3315,4.7501,5.2644,6.1883,7.1056,7.439,7.7595,7.8286,7.7295,7.5306,7.3206,7.1998,7.0643,6.9153,6.9407,-0.7328,-0.8336,-0.9411,-0.9565,-0.9245,-1.0151,-1.0039,-0.9133,-0.9259,-0.8765,-0.8375,-0.8626,-0.9449,-1.0822,-1.2068,-1.3222,-1.4333,-1.4482,-1.4563,-1.4493,-1.4012,-1.3609,-1.2901,-1.2629,-1.1984,-1.1058,-1.0236,-0.9509,-0.8438,-0.7606,-0.7187,-0.7259,-0.6722,-0.6703,-0.631,-0.7052,-0.7522,-0.7337,-0.7183,-0.717,-0.814,-0.8169,-0.8988,-0.9865,-1.0703,-1.1302,-1.1594,-1.1863,-1.1979,-1.22,-1.1017,-0.8992,-0.636,-0.3535,-0.0977,0.1488,0.3535,0.513,0.6765,0.8428,0.9587,1.0175,1.057,1.057,1.0175,0.9392,0.8485,0.7626,0.6925,0.6741,0.6905,0.8101,0.9476,1.109,1.2841,1.5607,1.8183,2.1105,2.4079,2.5615,2.6861,2.7516,2.7676,2.7702,2.7367,2.6813,2.6016,2.5637,2.6007,2.6986,2.8197,2.8703,2.9837,3.0631,3.1577,3.2627,3.3663,3.687,3.9534,4.3271,4.7892,5.5437,6.2534,6.9797,7.7078,7.747,7.7055,7.6681,7.5399,7.3588,7.2271,7.0819,6.9776,6.8321,6.9472,-0.7304,-0.8756,-0.9918,-1.0379,-1.0444,-1.1193,-1.1246,-1.0866,-1.0883,-1.0672,-1.0151,-1.0044,-1.0634,-1.1822,-1.307,-1.4382,-1.5548,-1.5763,-1.6068,-1.6089,-1.5826,-1.5576,-1.5113,-1.4919,-1.4172,-1.3321,-1.2544,-1.1696,-1.0277,-0.9754,-0.955,-0.9463,-0.9779,-0.9764,-0.9594,-1.0386,-1.088,-1.0862,-1.0881,-1.0883,-1.0894,-1.0618,-1.0426,-1.1295,-1.1735,-1.2182,-1.2219,-1.2522,-1.2474,-1.2266,-1.0978,-0.9585,-0.7236,-0.4849,-0.2449,-0.0166,0.2191,0.4465,0.6271,0.7772,0.9286,0.9866,1.0988,1.1357,1.1083,1.0293,0.9707,0.8845,0.8317,0.7949,0.7847,0.8736,0.916,1.0382,1.1539,1.3572,1.6183,1.8867,2.0945,2.2368,2.3348,2.4091,2.4136,2.4175,2.3805,2.3409,2.2611,2.2783,2.2891,2.2977,2.4098,2.4987,2.5974,2.7329,2.8292,2.9574,3.0937,3.4616,3.8605,4.6882,5.3683,6.392,7.2755,7.4534,7.5514,7.51,7.4658,7.4174,7.2797,7.08,6.9987,6.9203,6.8306,6.7452,6.7517,-0.8616,-1.0228,-1.1123,-1.1466,-1.1737,-1.2495,-1.2822,-1.269,-1.2519,-1.2335,-1.2054,-1.1873,-1.2196,-1.273,-1.4001,-1.5442,-1.6574,-1.7191,-1.7644,-1.7961,-1.7549,-1.8012,-1.814,-1.7882,-1.7281,-1.6528,-1.5796,-1.4505,-1.3025,-1.2723,-1.2701,-1.2524,-1.2534,-1.2648,-1.2896,-1.2962,-1.3189,-1.3653,-1.3709,-1.3633,-1.3286,-1.2632,-1.2518,-1.2676,-1.2835,-1.2993,-1.2916,-1.2786,-1.2397,-1.1721,-1.0821,-0.9425,-0.7994,-0.6066,-0.397,-0.1675,0.0684,0.3122,0.5443,0.7535,0.8828,0.9932,1.1421,1.1928,1.1627,1.1362,1.0595,1.0234,0.9707,0.9224,0.8956,0.8861,0.9299,0.9743,1.0962,1.2006,1.457,1.6986,1.8414,1.9697,2.0299,2.1029,2.0991,2.0858,2.0327,1.9962,1.9869,2.0046,2.0204,1.9934,2.0133,2.0717,2.137,2.2894,2.461,2.5923,2.7314,3.146,3.6465,4.8228,5.8315,6.3966,6.8738,7.2196,7.269,7.2104,7.1634,7.1174,6.9577,6.8225,6.7777,6.7392,6.6698,6.5912,6.493,-1.1443,-1.3715,-1.3448,-1.3584,-1.3987,-1.433,-1.4395,-1.4219,-1.4342,-1.393,-1.3699,-1.4467,-1.4551,-1.3277,-1.4804,-1.6273,-1.7618,-1.8684,-1.9905,-2.0319,-2.0486,-2.1051,-2.189,-2.2717,-2.1353,-2.0559,-1.9668,-1.8196,-1.7365,-1.68,-1.6393,-1.626,-1.5985,-1.597,-1.6043,-1.6092,-1.6038,-1.6206,-1.6282,-1.6037,-1.5758,-1.4966,-1.397,-1.3853,-1.3909,-1.3672,-1.3575,-1.2956,-1.2688,-1.2043,-1.0829,-0.9409,-0.8127,-0.6998,-0.5216,-0.3244,-0.0872,0.1764,0.4114,0.6722,0.8201,0.9761,1.104,1.1905,1.1782,1.1846,1.1297,1.0988,1.048,0.9997,0.9724,0.9437,0.9516,1.033,1.1258,1.2358,1.4212,1.5773,1.7195,1.8095,1.8785,1.9006,1.8852,1.8532,1.778,1.7254,1.6718,1.7065,1.7103,1.6797,1.6495,1.6779,1.7161,1.8621,2.0484,2.1767,2.3586,2.7835,3.3904,4.4496,5.3164,5.9168,6.3763,6.7496,6.9033,6.8904,6.8531,6.8106,6.7636,6.6723,6.6085,6.5546,6.4985,6.3675,6.218]},{"header":{"parameterUnit":"m.s-1","parameterCategory":1,"la1":31.0,"la2":29.5877,"lo1":-88.7671,"lo2":-86.6584,"dy":0.0162,"dx":0.0185,"nx":115,"ny":88,"refTime":"2023-07-10T12:00:00:Z","depth":0,"parameterNumber":3,"parameterNumberName":"V-component_of_WINDS"},"data":[0.0,0.0,0.0,0.0,0.0,0.0,0.0,0.0,0.0,0.0,0.0,0.0,0.0,0.0,0.0,0.0,0.0,0.0,0.0,0.0,0.0,0.0,0.0,0.0,0.0,0.0,0.0,0.0,0.0,0.0,0.0,0.0,0.0,0.0,0.0,0.0,0.0,0.0,0.0,0.0,0.0,0.0,0.0,0.0,0.0,0.0,0.0,0.0,0.0,0.0,0.0,0.0,0.0,0.0,0.0,0.0,0.0,0.0,0.0,0.0,0.0,0.0,0.0,0.0,0.0,0.0,0.0,0.0,0.0,0.0,0.0,0.0,0.0,0.0,0.0,0.0,0.0,0.0,0.0,0.0,0.0,0.0,0.0,0.0,0.0,0.0,0.0,0.0,0.0,0.0,0.0,0.0,0.0,0.0,0.0,0.0,0.0,0.0,0.0,0.0,0.0,0.0,0.0,0.0,0.0,0.0,0.0,0.0,0.0,0.0,0.0,0.0,0.0,0.0,0.0,0.0,0.0,0.0,0.0,0.0,0.0,0.0,0.0,0.0,0.0,0.0,0.0,0.0,0.0,0.0,0.0,0.0,0.0,0.0,0.0,0.0,0.0,0.0,0.0,0.0,0.0,0.0,0.0,0.0,0.0,0.0,0.0,0.0,0.0,0.0,0.0,0.0,0.0,0.0,0.0,0.0,0.0,0.0,0.0,0.0,0.0,0.0,0.0,0.0,0.0,0.0,0.0,0.0,0.0,0.0,0.0,0.0,0.0,0.0,0.0,0.0,0.0,0.0,0.0,0.0,0.0,0.0,0.0,0.0,0.0,0.0,0.0,0.0,0.0,0.0,0.0,0.0,0.0,0.0,0.0,0.0,0.0,0.0,0.0,0.0,0.0,0.0,0.0,0.0,0.0,0.0,0.0,0.0,0.0,0.0,0.0,0.0,0.0,0.0,0.0,0.0,0.0,0.0,0.0,0.0,0.0,0.0,0.0,0.0,0.0,0.0,0.0,0.0,0.0,0.0,0.0,0.0,0.0,0.0,0.0,0.0,0.0,0.0,0.0,0.0,0.0,0.0,0.0,0.0,0.0,0.0,0.0,0.0,0.0,0.0,0.0,0.0,0.0,0.0,0.0,0.0,0.0,0.0,0.0,0.0,0.0,0.0,0.0,0.0,0.0,0.0,0.0,0.0,0.0,0.0,0.0,0.0,0.0,0.0,0.0,0.0,0.0,0.0,0.0,0.0,0.0,0.0,0.0,0.0,0.0,0.0,0.0,0.0,0.0,0.0,0.0,0.0,0.0,0.0,0.0,0.0,0.0,0.0,0.0,0.0,0.0,0.0,0.0,0.0,0.0,0.0,0.0,0.0,0.0,0.0,0.0,0.0,0.0,0.0,0.0,0.0,0.0,0.0,0.0,0.0,0.0,0.0,0.0,0.0,0.0,0.0,0.0,0.0,0.0,0.0,0.0,0.0,0.0,0.0,0.0,0.0,0.0,0.0,0.0,0.0,0.0,0.0,0.0,0.0,0.0,0.0,0.0,0.0,0.0,0.0,0.0,0.0,0.0,0.0,0.0,0.0,0.0,0.0,0.0,0.0,0.0,0.0,0.0,0.0,0.0,0.0,0.0,0.0,0.0,0.0,0.0,0.0,0.0,0.0,0.0,0.0,0.0,0.0,0.0,0.0,0.0,0.0,0.0,0.0,0.0,0.0,0.0,0.0,0.0,0.0,0.0,0.0,0.0,0.0,0.0,0.0,0.0,0.0,0.0,0.0,0.0,0.0,0.0,0.0,0.0,0.0,0.0,0.0,0.0,0.0,0.0,0.0,0.0,0.0,0.0,0.0,0.0,0.0,0.0,0.0,0.0,0.0,0.0,0.0,0.0,0.0,0.0,0.0,0.0,0.0,0.0,0.0,0.0,0.0,0.0,0.0,0.0,0.0,0.0,0.0,0.0,0.0,0.0,0.0,0.0,0.0,0.0,0.0,0.0,0.0,0.0,0.0,0.0,0.0,0.0,0.0,0.0,0.0,0.0,0.0,0.0,0.0,0.0,0.0,0.0,0.0,0.0,0.0,0.0,0.0,0.0,0.0,0.0,0.0,0.0,0.0,0.0,0.0,0.0,0.0,0.0,0.0,0.0,0.0,0.0,0.0,0.0,0.0,0.0,0.0,0.0,0.0,0.0,0.0,0.0,0.0,0.0,0.0,0.0,0.0,0.0,0.0,0.0,0.0,0.0,0.0,0.0,0.0,0.0,0.0,0.0,0.0,0.0,0.0,0.0,0.0,0.0,0.0,0.0,0.0,0.0,0.0,0.0,0.0,0.0,0.0,0.0,0.0,0.0,0.0,0.0,0.0,0.0,0.0,0.0,0.0,0.0,0.0,0.0,0.0,0.0,0.0,0.0,0.0,0.0,0.0,0.0,0.0,0.0,0.0,0.0,0.0,0.0,0.0,0.0,0.0,0.0,0.0,0.0,0.0,0.0,0.0,0.0,0.0,0.0,0.0,0.0,0.0,0.0,0.0,0.0,0.0,0.0,0.0,0.0,0.0,0.0,0.0,0.0,0.0,0.0,0.0,0.0,0.0,0.0,0.0,0.0,0.0,0.0,0.0,0.0,0.0,0.0,0.0,0.0,0.0,0.0,0.0,0.0,0.0,0.0,0.0,0.0,0.0,0.0,0.0,0.0,0.0,0.0,0.0,0.0,0.0,0.0,0.0,0.0,0.0,0.0,0.0,0.0,0.0,0.0,0.0,0.0,0.0,0.0,0.0,0.0,0.0,0.0,0.0,0.0,0.0,0.0,0.0,0.0,0.0,0.0,0.0,0.0,0.0,0.0,0.0,0.0,0.0,0.0,0.0,0.0,0.0,0.0,0.0,0.0,0.0,0.0,0.0,0.0,0.0,0.0,0.0,0.0,0.0,0.0,0.0,0.0,0.0,0.0,0.0,0.0,0.0,0.0,0.0,0.0,0.0,0.0,0.0,0.0,0.0,0.0,0.0,0.0,0.0,0.0,0.0,0.0,0.0,0.0,0.0,0.0,0.0,0.0,0.0,0.0,0.0,0.0,0.0,0.0,0.0,0.0,0.0,0.0,0.0,0.0,0.0,0.0,0.0,0.0,0.0,0.0,0.0,0.0,0.0,0.0,0.0,0.0,0.0,0.0,0.0,0.0,0.0,0.0,0.0,0.0,0.0,0.0,0.0,0.0,0.0,0.0,0.0,0.0,0.0,0.0,0.0,0.0,0.0,0.0,0.0,0.0,0.0,0.0,0.0,0.0,0.0,0.0,0.0,0.0,0.0,0.0,0.0,0.0,0.0,0.0,0.0,0.0,0.0,0.0,0.0,0.0,0.0,0.0,0.0,0.0,0.0,0.0,0.0,0.0,0.0,0.0,0.0,0.0,0.0,0.0,0.0,0.0,0.0,0.0,0.0,0.0,0.0,0.0,0.0,0.0,0.0,0.0,0.0,0.0,0.0,0.0,0.0,0.0,0.0,0.0,0.0,0.0,0.0,0.0,0.0,0.0,0.0,0.0,0.0,0.0,0.0,0.0,0.0,0.0,0.0,0.0,0.0,0.0,0.0,0.0,0.0,0.0,0.0,0.0,0.0,0.0,0.0,0.0,0.0,0.0,0.0,0.0,0.0,0.0,0.0,0.0,0.0,0.0,0.0,0.0,0.0,0.0,0.0,0.0,0.0,0.0,0.0,0.0,0.0,0.0,0.0,0.0,0.0,0.0,0.0,0.0,0.0,0.0,0.0,0.0,0.0,0.0,0.0,0.0,0.0,0.0,0.0,0.0,0.0,0.0,0.0,0.0,0.0,0.0,0.0,0.0,0.0,0.0,0.0,0.0,0.0,0.0,0.0,0.0,0.0,0.0,0.0,0.0,0.0,0.0,0.0,0.0,0.0,0.0,0.0,0.0,0.0,0.0,0.0,0.0,0.0,0.0,0.0,0.0,0.0,0.0,0.0,0.0,0.0,0.0,0.0,0.0,0.0,0.0,0.0,0.0,0.0,0.0,0.0,0.0,0.0,0.0,0.0,0.0,0.0,0.0,0.0,0.0,0.0,0.0,0.0,0.0,0.0,0.0,0.0,0.0,0.0,0.0,0.0,0.0,0.0,0.0,0.0,0.0,0.0,0.0,0.0,0.0,0.0,0.0,0.0,0.0,0.0,0.0,0.0,0.0,0.0,0.0,0.0,0.0,0.0,0.0,0.0,0.0,0.0,0.0,0.0,0.0,0.0,0.0,0.0,0.0,0.0,0.0,0.0,-3.8334,0.0,0.0,0.0,0.0,0.0,0.0,0.0,0.0,0.0,0.0,0.0,0.0,0.0,0.0,0.0,0.0,0.0,0.0,0.0,0.0,0.0,0.0,0.0,0.0,0.0,0.0,0.0,0.0,0.0,0.0,0.0,0.0,0.0,0.0,0.0,0.0,0.0,0.0,0.0,0.0,0.0,0.0,0.0,0.0,0.0,0.0,0.0,0.0,0.0,0.0,0.0,0.0,0.0,0.0,0.0,0.0,0.0,0.0,0.0,0.0,0.0,0.0,0.0,0.0,0.0,0.0,0.0,0.0,0.0,0.0,0.0,0.0,0.0,0.0,0.0,0.0,0.0,0.0,0.0,0.0,0.0,0.0,0.0,0.0,0.0,0.0,0.0,0.0,0.0,0.0,0.0,0.0,0.0,0.0,0.0,0.0,0.0,0.0,0.0,0.0,0.0,0.0,0.0,0.0,0.0,0.0,0.0,0.0,0.0,0.0,-3.9756,-3.9016,-4.0126,-3.9756,-3.7757,0.0,0.0,0.0,0.0,0.0,0.0,0.0,0.0,0.0,0.0,0.0,0.0,0.0,0.0,0.0,0.0,0.0,0.0,0.0,0.0,0.0,0.0,0.0,0.0,0.0,0.0,0.0,0.0,0.0,0.0,0.0,0.0,0.0,0.0,0.0,0.0,0.0,0.0,0.0,0.0,0.0,0.0,0.0,0.0,0.0,0.0,0.0,0.0,0.0,0.0,0.0,0.0,0.0,0.0,0.0,0.0,0.0,0.0,0.0,0.0,0.0,0.0,0.0,0.0,0.0,0.0,0.0,0.0,0.0,0.0,0.0,0.0,0.0,0.0,0.0,0.0,0.0,0.0,0.0,0.0,0.0,0.0,0.0,0.0,0.0,0.0,0.0,0.0,0.0,0.0,0.0,0.0,0.0,0.0,0.0,0.0,0.0,0.0,0.0,0.0,0.0,0.0,0.0,0.0,0.0,0.0,0.0,0.0,0.0,0.0,0.0,0.0,-3.9192,-3.8581,-3.6508,0.0,0.0,0.0,0.0,0.0,0.0,0.0,0.0,0.0,0.0,0.0,0.0,0.0,0.0,0.0,0.0,0.0,0.0,0.0,0.0,0.0,0.0,0.0,0.0,0.0,0.0,0.0,0.0,0.0,0.0,0.0,0.0,0.0,0.0,0.0,0.0,0.0,0.0,0.0,0.0,0.0,0.0,0.0,0.0,0.0,0.0,0.0,0.0,0.0,0.0,0.0,0.0,0.0,0.0,0.0,0.0,0.0,0.0,0.0,0.0,0.0,0.0,0.0,0.0,0.0,0.0,0.0,0.0,0.0,0.0,0.0,0.0,0.0,0.0,0.0,0.0,0.0,0.0,0.0,0.0,0.0,0.0,0.0,0.0,0.0,0.0,0.0,0.0,0.0,0.0,0.0,0.0,0.0,0.0,0.0,0.0,0.0,0.0,0.0,0.0,0.0,0.0,0.0,0.0,0.0,0.0,0.0,0.0,0.0,0.0,-3.7405,-3.6296,-3.7014,0.0,-3.5336,0.0,0.0,0.0,0.0,0.0,0.0,0.0,0.0,0.0,0.0,0.0,0.0,0.0,0.0,0.0,0.0,0.0,0.0,0.0,0.0,0.0,0.0,0.0,0.0,0.0,0.0,0.0,0.0,0.0,0.0,0.0,0.0,0.0,0.0,0.0,0.0,0.0,0.0,0.0,0.0,0.0,0.0,0.0,0.0,0.0,0.0,0.0,0.0,0.0,0.0,0.0,0.0,0.0,0.0,0.0,0.0,0.0,0.0,0.0,0.0,0.0,0.0,0.0,0.0,0.0,0.0,0.0,0.0,0.0,0.0,0.0,0.0,0.0,0.0,0.0,0.0,0.0,0.0,0.0,0.0,0.0,0.0,0.0,0.0,0.0,0.0,0.0,0.0,0.0,0.0,0.0,0.0,0.0,0.0,0.0,0.0,0.0,0.0,0.0,0.0,0.0,0.0,0.0,0.0,0.0,0.0,0.0,0.0,0.0,0.0,-3.5752,-3.6131,-3.557,-3.4987,0.0,0.0,0.0,0.0,0.0,0.0,0.0,0.0,0.0,0.0,0.0,0.0,0.0,0.0,0.0,0.0,0.0,0.0,0.0,0.0,0.0,0.0,0.0,0.0,0.0,0.0,0.0,0.0,0.0,0.0,0.0,0.0,0.0,0.0,0.0,0.0,0.0,0.0,0.0,0.0,0.0,0.0,0.0,0.0,0.0,0.0,0.0,0.0,0.0,0.0,0.0,0.0,0.0,0.0,0.0,0.0,0.0,0.0,0.0,0.0,0.0,0.0,0.0,0.0,0.0,0.0,0.0,0.0,0.0,0.0,0.0,0.0,0.0,0.0,0.0,0.0,0.0,0.0,0.0,0.0,0.0,0.0,0.0,0.0,0.0,0.0,0.0,0.0,0.0,0.0,0.0,0.0,0.0,0.0,0.0,0.0,0.0,0.0,0.0,0.0,0.0,0.0,0.0,0.0,0.0,0.0,0.0,0.0,0.0,0.0,-3.3685,-3.4023,-3.4926,-3.387,-3.3239,-3.3361,0.0,0.0,0.0,0.0,0.0,0.0,0.0,0.0,0.0,0.0,0.0,0.0,0.0,0.0,0.0,0.0,0.0,0.0,0.0,0.0,0.0,0.0,0.0,0.0,0.0,0.0,0.0,0.0,0.0,0.0,0.0,0.0,0.0,0.0,0.0,0.0,0.0,0.0,0.0,0.0,0.0,0.0,0.0,0.0,0.0,0.0,0.0,0.0,0.0,0.0,0.0,0.0,0.0,0.0,0.0,0.0,0.0,0.0,0.0,0.0,0.0,0.0,0.0,0.0,0.0,0.0,0.0,0.0,0.0,0.0,0.0,0.0,0.0,0.0,0.0,0.0,0.0,0.0,0.0,0.0,0.0,0.0,0.0,0.0,0.0,0.0,0.0,0.0,0.0,0.0,0.0,0.0,0.0,0.0,0.0,0.0,0.0,0.0,0.0,0.0,0.0,0.0,0.0,0.0,0.0,0.0,0.0,0.0,-3.2101,-3.2364,-3.2411,-3.2047,-3.1727,-3.1637,0.0,0.0,0.0,0.0,0.0,0.0,0.0,0.0,0.0,0.0,0.0,0.0,0.0,0.0,0.0,0.0,0.0,0.0,0.0,0.0,0.0,0.0,0.0,0.0,0.0,0.0,0.0,0.0,0.0,0.0,0.0,0.0,0.0,0.0,0.0,0.0,0.0,0.0,0.0,0.0,0.0,0.0,0.0,0.0,0.0,0.0,0.0,0.0,0.0,0.0,0.0,0.0,0.0,0.0,0.0,0.0,0.0,0.0,0.0,0.0,0.0,0.0,0.0,0.0,0.0,0.0,0.0,0.0,0.0,0.0,0.0,0.0,0.0,0.0,0.0,0.0,0.0,0.0,0.0,0.0,0.0,0.0,0.0,0.0,0.0,0.0,0.0,0.0,0.0,0.0,0.0,0.0,0.0,0.0,0.0,0.0,0.0,0.0,0.0,0.0,0.0,0.0,0.0,0.0,0.0,0.0,0.0,0.0,0.0,-3.1122,-3.132,-3.134,-3.1129,-3.0191,-3.0067,0.0,0.0,0.0,0.0,0.0,0.0,0.0,0.0,0.0,0.0,0.0,0.0,0.0,0.0,0.0,0.0,0.0,0.0,0.0,0.0,0.0,0.0,0.0,0.0,0.0,0.0,0.0,0.0,0.0,0.0,0.0,0.0,0.0,0.0,0.0,0.0,0.0,0.0,0.0,0.0,0.0,0.0,0.0,0.0,0.0,0.0,0.0,0.0,0.0,0.0,0.0,0.0,0.0,0.0,0.0,0.0,0.0,0.0,0.0,0.0,0.0,0.0,0.0,0.0,0.0,0.0,0.0,0.0,0.0,0.0,0.0,0.0,0.0,0.0,0.0,0.0,0.0,0.0,0.0,0.0,0.0,0.0,0.0,0.0,0.0,0.0,0.0,0.0,0.0,0.0,0.0,0.0,0.0,0.0,0.0,0.0,0.0,0.0,0.0,0.0,0.0,0.0,0.0,0.0,0.0,0.0,0.0,0.0,0.0,-3.0632,0.0,-3.0903,-3.0685,-2.9676,-2.9362,0.0,0.0,0.0,0.0,0.0,0.0,0.0,0.0,0.0,0.0,0.0,0.0,0.0,0.0,0.0,0.0,0.0,0.0,0.0,0.0,0.0,0.0,0.0,0.0,0.0,0.0,0.0,0.0,0.0,0.0,0.0,0.0,0.0,0.0,0.0,0.0,0.0,0.0,0.0,0.0,0.0,0.0,0.0,0.0,0.0,0.0,0.0,0.0,0.0,0.0,0.0,0.0,0.0,0.0,0.0,0.0,0.0,0.0,0.0,0.0,0.0,0.0,0.0,0.0,0.0,0.0,0.0,0.0,0.0,0.0,0.0,0.0,0.0,0.0,0.0,0.0,0.0,0.0,0.0,0.0,0.0,0.0,0.0,0.0,0.0,0.0,0.0,0.0,0.0,0.0,0.0,0.0,0.0,0.0,0.0,0.0,0.0,0.0,0.0,0.0,0.0,0.0,0.0,0.0,0.0,0.0,0.0,0.0,-2.9843,-3.0478,-3.1057,-3.1067,-3.0457,-3.0273,-2.9539,0.0,0.0,0.0,0.0,0.0,0.0,0.0,0.0,0.0,0.0,0.0,0.0,0.0,0.0,0.0,0.0,0.0,0.0,0.0,0.0,0.0,0.0,0.0,0.0,0.0,0.0,0.0,0.0,0.0,0.0,0.0,0.0,0.0,0.0,0.0,0.0,0.0,0.0,0.0,0.0,0.0,0.0,0.0,0.0,0.0,0.0,0.0,0.0,0.0,0.0,0.0,0.0,0.0,0.0,0.0,0.0,0.0,0.0,0.0,0.0,0.0,0.0,0.0,0.0,0.0,0.0,0.0,0.0,0.0,0.0,0.0,0.0,0.0,0.0,0.0,0.0,0.0,0.0,0.0,0.0,0.0,0.0,0.0,0.0,0.0,0.0,0.0,0.0,0.0,0.0,0.0,0.0,0.0,0.0,0.0,0.0,0.0,0.0,0.0,0.0,0.0,0.0,0.0,0.0,0.0,0.0,0.0,0.0,0.0,-3.0053,-3.0578,-3.1199,-3.1661,-2.9888,-2.9402,0.0,0.0,0.0,0.0,0.0,0.0,0.0,0.0,0.0,0.0,0.0,0.0,0.0,0.0,0.0,0.0,0.0,0.0,0.0,0.0,0.0,0.0,0.0,0.0,0.0,0.0,0.0,0.0,0.0,0.0,0.0,0.0,0.0,0.0,0.0,0.0,0.0,0.0,0.0,0.0,0.0,0.0,0.0,0.0,0.0,0.0,0.0,0.0,0.0,0.0,0.0,0.0,0.0,0.0,0.0,0.0,0.0,0.0,0.0,0.0,0.0,0.0,0.0,0.0,0.0,0.0,0.0,0.0,0.0,0.0,0.0,0.0,0.0,0.0,0.0,0.0,0.0,0.0,0.0,0.0,0.0,0.0,0.0,0.0,0.0,0.0,0.0,0.0,0.0,0.0,0.0,0.0,0.0,0.0,0.0,0.0,0.0,0.0,0.0,0.0,0.0,0.0,0.0,0.0,0.0,0.0,0.0,0.0,0.0,-3.1183,-3.1583,-3.1888,-3.2017,-3.0325,-2.969,-3.0202,0.0,0.0,0.0,0.0,0.0,0.0,0.0,0.0,0.0,0.0,0.0,0.0,0.0,0.0,0.0,0.0,0.0,0.0,0.0,0.0,0.0,0.0,0.0,0.0,0.0,0.0,0.0,0.0,0.0,0.0,0.0,0.0,0.0,0.0,0.0,0.0,0.0,0.0,0.0,0.0,0.0,0.0,0.0,0.0,0.0,0.0,0.0,0.0,0.0,0.0,0.0,0.0,0.0,0.0,0.0,0.0,0.0,0.0,0.0,0.0,0.0,0.0,0.0,0.0,0.0,0.0,0.0,0.0,0.0,0.0,0.0,0.0,0.0,0.0,0.0,0.0,0.0,0.0,0.0,0.0,0.0,0.0,0.0,0.0,0.0,0.0,0.0,0.0,0.0,0.0,0.0,0.0,0.0,0.0,0.0,0.0,0.0,0.0,0.0,0.0,0.0,0.0,0.0,0.0,0.0,0.0,0.0,0.0,-3.3332,-3.3577,-3.2998,-3.1759,-3.1611,-3.0538,0.0,0.0,0.0,0.0,0.0,0.0,0.0,0.0,0.0,0.0,0.0,0.0,0.0,0.0,0.0,0.0,0.0,0.0,0.0,0.0,0.0,0.0,0.0,0.0,0.0,0.0,0.0,0.0,0.0,0.0,0.0,0.0,0.0,0.0,0.0,0.0,0.0,0.0,0.0,0.0,0.0,0.0,0.0,0.0,0.0,0.0,0.0,0.0,0.0,0.0,0.0,0.0,0.0,0.0,0.0,0.0,0.0,0.0,0.0,0.0,0.0,0.0,0.0,0.0,0.0,0.0,0.0,0.0,0.0,0.0,0.0,0.0,0.0,0.0,0.0,0.0,0.0,0.0,0.0,0.0,0.0,0.0,0.0,0.0,0.0,0.0,0.0,0.0,0.0,0.0,0.0,0.0,0.0,0.0,0.0,0.0,0.0,0.0,0.0,0.0,0.0,0.0,0.0,0.0,0.0,0.0,0.0,0.0,0.0,-3.1931,-3.3436,-3.4181,-3.3917,-3.2823,-3.1759,0.0,0.0,0.0,0.0,0.0,0.0,0.0,0.0,0.0,0.0,0.0,0.0,0.0,0.0,0.0,0.0,0.0,0.0,0.0,0.0,0.0,0.0,0.0,0.0,0.0,0.0,0.0,0.0,0.0,0.0,0.0,0.0,0.0,0.0,0.0,0.0,0.0,0.0,0.0,0.0,0.0,0.0,0.0,0.0,0.0,0.0,0.0,0.0,0.0,0.0,0.0,0.0,0.0,0.0,0.0,0.0,0.0,0.0,0.0,0.0,0.0,0.0,0.0,0.0,0.0,0.0,0.0,0.0,0.0,0.0,0.0,0.0,0.0,0.0,0.0,0.0,0.0,0.0,0.0,0.0,0.0,0.0,0.0,0.0,0.0,0.0,0.0,0.0,0.0,0.0,0.0,0.0,0.0,0.0,0.0,0.0,0.0,0.0,0.0,0.0,0.0,0.0,0.0,0.0,0.0,0.0,0.0,0.0,-3.2508,-3.3586,-3.4641,-3.5204,-3.5321,-3.3654,-3.2378,0.0,0.0,0.0,0.0,0.0,0.0,0.0,0.0,0.0,0.0,0.0,0.0,0.0,0.0,0.0,0.0,0.0,0.0,0.0,0.0,0.0,0.0,0.0,0.0,0.0,0.0,0.0,0.0,0.0,0.0,0.0,0.0,0.0,0.0,0.0,0.0,0.0,0.0,0.0,0.0,0.0,0.0,0.0,0.0,0.0,0.0,0.0,0.0,0.0,0.0,0.0,0.0,0.0,0.0,0.0,0.0,0.0,0.0,0.0,0.0,0.0,0.0,0.0,0.0,0.0,0.0,0.0,0.0,0.0,0.0,0.0,0.0,0.0,0.0,0.0,0.0,0.0,0.0,0.0,0.0,0.0,0.0,0.0,0.0,0.0,0.0,0.0,0.0,0.0,0.0,0.0,0.0,0.0,0.0,0.0,0.0,0.0,0.0,0.0,0.0,0.0,0.0,0.0,0.0,0.0,0.0,0.0,0.0,-3.3747,-3.6358,-3.6075,-3.5944,-3.5871,-3.4304,-3.3039,0.0,0.0,0.0,0.0,0.0,0.0,0.0,0.0,0.0,0.0,0.0,0.0,0.0,0.0,0.0,0.0,0.0,0.0,0.0,0.0,0.0,0.0,0.0,0.0,0.0,0.0,0.0,0.0,0.0,0.0,0.0,0.0,0.0,0.0,0.0,0.0,0.0,0.0,0.0,0.0,0.0,0.0,0.0,0.0,0.0,0.0,0.0,0.0,0.0,0.0,0.0,0.0,0.0,0.0,0.0,0.0,0.0,0.0,0.0,0.0,0.0,0.0,0.0,0.0,0.0,0.0,0.0,0.0,0.0,0.0,0.0,0.0,0.0,0.0,0.0,0.0,0.0,0.0,0.0,0.0,0.0,0.0,0.0,0.0,0.0,0.0,0.0,0.0,0.0,0.0,0.0,0.0,0.0,0.0,0.0,0.0,0.0,0.0,0.0,0.0,0.0,0.0,0.0,0.0,0.0,0.0,0.0,0.0,-3.3675,-3.4185,-3.4562,-3.4921,-3.522,-3.5732,-3.4852,0.0,0.0,0.0,0.0,0.0,0.0,0.0,0.0,0.0,0.0,0.0,0.0,0.0,0.0,0.0,0.0,0.0,0.0,0.0,0.0,0.0,0.0,0.0,0.0,0.0,0.0,0.0,0.0,0.0,0.0,0.0,0.0,0.0,0.0,0.0,0.0,0.0,0.0,0.0,0.0,0.0,0.0,0.0,0.0,0.0,0.0,0.0,0.0,-2.6753,0.0,0.0,0.0,0.0,0.0,0.0,0.0,0.0,0.0,0.0,0.0,0.0,0.0,0.0,0.0,0.0,0.0,0.0,0.0,0.0,0.0,0.0,0.0,0.0,0.0,0.0,0.0,0.0,0.0,0.0,0.0,0.0,0.0,0.0,0.0,0.0,0.0,0.0,0.0,0.0,0.0,0.0,0.0,0.0,0.0,0.0,0.0,0.0,0.0,0.0,0.0,0.0,0.0,0.0,0.0,0.0,0.0,0.0,0.0,-3.4432,-3.5437,-3.5639,-3.6002,-3.6533,-3.7382,-3.6545,0.0,0.0,0.0,0.0,0.0,0.0,0.0,0.0,0.0,0.0,0.0,0.0,0.0,0.0,0.0,0.0,0.0,0.0,0.0,0.0,0.0,0.0,0.0,0.0,0.0,0.0,0.0,0.0,0.0,0.0,0.0,0.0,0.0,0.0,0.0,0.0,0.0,0.0,0.0,0.0,0.0,0.0,0.0,0.0,0.0,0.0,0.0,0.0,0.0,0.0,0.0,0.0,0.0,0.0,0.0,0.0,0.0,0.0,0.0,0.0,0.0,0.0,0.0,0.0,0.0,0.0,0.0,0.0,0.0,0.0,0.0,0.0,0.0,0.0,0.0,0.0,0.0,0.0,0.0,0.0,0.0,0.0,0.0,0.0,0.0,0.0,0.0,0.0,0.0,0.0,0.0,0.0,0.0,0.0,0.0,0.0,0.0,0.0,0.0,0.0,0.0,0.0,0.0,0.0,0.0,0.0,0.0,-3.3776,-3.5139,-3.725,-3.711,-3.7364,-3.8146,-3.8473,-3.7637,-3.543,0.0,0.0,0.0,0.0,0.0,0.0,0.0,0.0,0.0,0.0,0.0,0.0,0.0,0.0,0.0,0.0,0.0,0.0,0.0,0.0,0.0,0.0,0.0,0.0,0.0,0.0,0.0,0.0,0.0,0.0,0.0,0.0,0.0,0.0,0.0,0.0,0.0,0.0,-2.3856,-2.5259,0.0,0.0,0.0,0.0,0.0,0.0,0.0,0.0,-2.6387,0.0,0.0,0.0,0.0,0.0,0.0,0.0,0.0,0.0,0.0,0.0,0.0,0.0,0.0,0.0,0.0,0.0,0.0,0.0,0.0,0.0,0.0,0.0,0.0,0.0,0.0,0.0,0.0,0.0,0.0,0.0,0.0,0.0,0.0,0.0,0.0,0.0,0.0,0.0,0.0,0.0,0.0,0.0,0.0,0.0,0.0,0.0,0.0,0.0,0.0,0.0,0.0,0.0,0.0,0.0,0.0,-3.4075,-3.4122,-3.4762,-3.579,-3.5611,-3.6141,-3.7419,-3.7253,-3.6956,-3.6533,0.0,0.0,0.0,0.0,0.0,0.0,0.0,0.0,0.0,0.0,0.0,0.0,0.0,0.0,0.0,0.0,0.0,0.0,0.0,0.0,0.0,0.0,0.0,0.0,0.0,0.0,0.0,0.0,0.0,0.0,0.0,0.0,0.0,0.0,0.0,0.0,0.0,0.0,0.0,-2.5468,-2.6032,0.0,0.0,0.0,0.0,0.0,0.0,0.0,0.0,-2.5313,0.0,0.0,0.0,0.0,0.0,0.0,0.0,0.0,0.0,0.0,0.0,0.0,0.0,0.0,0.0,0.0,0.0,0.0,0.0,0.0,0.0,0.0,0.0,0.0,0.0,0.0,0.0,0.0,0.0,0.0,0.0,0.0,0.0,0.0,0.0,0.0,0.0,0.0,0.0,0.0,0.0,0.0,0.0,0.0,0.0,0.0,0.0,0.0,0.0,0.0,0.0,0.0,0.0,0.0,0.0,-3.3633,-3.4041,-3.4828,-3.6007,-3.5889,-3.6407,-3.7731,-3.6657,-3.6061,0.0,0.0,0.0,0.0,0.0,0.0,0.0,0.0,0.0,0.0,0.0,0.0,0.0,0.0,0.0,0.0,0.0,0.0,0.0,0.0,0.0,0.0,0.0,0.0,0.0,0.0,0.0,0.0,0.0,0.0,0.0,0.0,0.0,0.0,0.0,0.0,0.0,0.0,0.0,0.0,-2.6186,-2.6841,-2.7474,0.0,0.0,0.0,0.0,0.0,0.0,-2.6987,-2.6452,0.0,0.0,0.0,0.0,0.0,0.0,0.0,0.0,0.0,0.0,0.0,0.0,0.0,0.0,0.0,0.0,0.0,0.0,0.0,0.0,0.0,0.0,0.0,0.0,0.0,0.0,0.0,0.0,0.0,0.0,0.0,0.0,0.0,0.0,0.0,0.0,0.0,0.0,0.0,0.0,0.0,0.0,0.0,0.0,0.0,0.0,0.0,0.0,0.0,0.0,0.0,0.0,0.0,0.0,0.0,-3.287,-3.3456,-3.4532,-3.5936,-3.5933,-3.6445,-3.7671,-3.6137,-3.5214,0.0,0.0,0.0,0.0,0.0,0.0,0.0,0.0,0.0,0.0,0.0,0.0,0.0,0.0,0.0,0.0,0.0,0.0,0.0,0.0,0.0,0.0,0.0,0.0,0.0,0.0,0.0,0.0,0.0,0.0,0.0,0.0,0.0,0.0,0.0,0.0,0.0,0.0,0.0,0.0,0.0,-2.7721,-2.7474,-2.7322,0.0,0.0,0.0,0.0,-2.9912,-3.0091,0.0,0.0,0.0,0.0,0.0,0.0,0.0,0.0,0.0,0.0,0.0,0.0,0.0,0.0,0.0,0.0,0.0,0.0,0.0,0.0,0.0,0.0,0.0,0.0,0.0,0.0,0.0,0.0,0.0,0.0,0.0,0.0,0.0,0.0,0.0,0.0,0.0,0.0,0.0,0.0,0.0,0.0,0.0,0.0,0.0,0.0,0.0,0.0,0.0,0.0,0.0,0.0,0.0,0.0,0.0,0.0,-3.1999,-3.2023,-3.2699,-3.4083,-3.3992,-3.4466,-3.5759,-3.5366,-3.4733,0.0,0.0,0.0,0.0,0.0,0.0,0.0,0.0,0.0,0.0,0.0,0.0,0.0,0.0,0.0,0.0,0.0,0.0,0.0,0.0,0.0,0.0,0.0,0.0,0.0,0.0,0.0,0.0,0.0,0.0,0.0,0.0,0.0,0.0,0.0,0.0,0.0,0.0,0.0,0.0,0.0,-2.8108,-2.8174,-2.8158,-2.8862,0.0,0.0,-3.2772,-3.4526,-3.6654,0.0,0.0,0.0,0.0,0.0,0.0,0.0,0.0,0.0,0.0,0.0,0.0,0.0,0.0,0.0,0.0,0.0,0.0,0.0,0.0,0.0,0.0,0.0,0.0,0.0,0.0,0.0,0.0,0.0,0.0,0.0,0.0,0.0,0.0,0.0,0.0,0.0,0.0,0.0,0.0,0.0,0.0,0.0,0.0,0.0,0.0,0.0,0.0,0.0,0.0,0.0,0.0,0.0,0.0,0.0,-2.9829,-3.1091,-3.1009,-3.1956,-3.3837,-3.3675,-3.4116,-3.5343,-3.4171,-3.3095,0.0,0.0,0.0,0.0,0.0,0.0,0.0,0.0,0.0,0.0,0.0,0.0,0.0,0.0,0.0,0.0,0.0,0.0,0.0,0.0,0.0,0.0,0.0,0.0,0.0,0.0,0.0,0.0,0.0,0.0,0.0,0.0,0.0,0.0,0.0,0.0,0.0,0.0,0.0,0.0,0.0,0.0,-2.8859,-2.9374,0.0,0.0,0.0,-3.4547,-3.6504,0.0,0.0,0.0,0.0,0.0,0.0,0.0,0.0,0.0,0.0,0.0,0.0,0.0,0.0,0.0,0.0,0.0,0.0,0.0,0.0,0.0,0.0,0.0,0.0,0.0,0.0,0.0,0.0,0.0,0.0,0.0,0.0,0.0,0.0,0.0,0.0,0.0,0.0,0.0,0.0,0.0,0.0,0.0,0.0,0.0,0.0,0.0,0.0,0.0,0.0,0.0,0.0,0.0,0.0,0.0,0.0,0.0,-2.9881,-3.0006,-3.1072,-3.3113,-3.294,-3.3216,-3.4175,-3.273,0.0,0.0,0.0,0.0,0.0,0.0,0.0,0.0,0.0,0.0,0.0,0.0,0.0,0.0,0.0,0.0,0.0,0.0,0.0,0.0,0.0,0.0,0.0,0.0,0.0,0.0,0.0,-2.3412,0.0,0.0,0.0,0.0,0.0,0.0,0.0,0.0,0.0,0.0,0.0,0.0,0.0,0.0,-2.9723,-2.9554,-3.0698,-3.2091,0.0,0.0,-3.7113,-3.912,-4.1034,-4.1465,0.0,0.0,0.0,0.0,0.0,0.0,0.0,0.0,0.0,0.0,0.0,0.0,0.0,0.0,0.0,0.0,0.0,0.0,0.0,0.0,0.0,0.0,0.0,0.0,0.0,0.0,0.0,0.0,0.0,0.0,0.0,0.0,0.0,0.0,0.0,0.0,0.0,0.0,0.0,0.0,0.0,0.0,0.0,0.0,0.0,0.0,0.0,0.0,0.0,0.0,0.0,0.0,0.0,0.0,-2.7358,-2.8255,-2.8828,-2.9794,-3.1231,-3.0977,-3.102,-3.1336,-3.1092,-3.0104,0.0,0.0,0.0,0.0,0.0,0.0,0.0,0.0,0.0,0.0,0.0,0.0,0.0,0.0,0.0,0.0,0.0,0.0,0.0,0.0,0.0,0.0,0.0,0.0,0.0,0.0,0.0,0.0,0.0,0.0,0.0,0.0,0.0,0.0,0.0,0.0,0.0,0.0,0.0,0.0,0.0,-3.0335,-3.0416,-3.2275,-3.4618,0.0,0.0,-4.1905,-4.3761,-4.6985,-4.7537,-4.2268,0.0,0.0,0.0,0.0,0.0,0.0,0.0,0.0,0.0,0.0,0.0,0.0,0.0,0.0,0.0,0.0,0.0,0.0,0.0,0.0,0.0,0.0,0.0,0.0,0.0,0.0,0.0,0.0,0.0,0.0,0.0,0.0,0.0,0.0,0.0,0.0,0.0,0.0,0.0,0.0,0.0,0.0,0.0,0.0,0.0,0.0,0.0,0.0,0.0,0.0,0.0,0.0,0.0,-2.4348,-2.5638,-2.6323,-2.7689,-2.9582,-2.9325,-2.9646,-3.0589,-3.0311,-2.9403,0.0,0.0,0.0,0.0,0.0,0.0,0.0,0.0,0.0,0.0,0.0,0.0,0.0,0.0,0.0,0.0,0.0,0.0,0.0,0.0,0.0,0.0,0.0,0.0,0.0,0.0,0.0,0.0,-2.7557,-2.753,-2.6714,0.0,0.0,0.0,0.0,0.0,0.0,0.0,0.0,0.0,0.0,-3.2637,-3.3695,-3.4871,0.0,0.0,-4.0057,-4.205,-4.5073,-4.5768,-4.5291,-4.3309,-4.0997,0.0,0.0,0.0,0.0,0.0,0.0,0.0,0.0,0.0,0.0,0.0,0.0,0.0,0.0,0.0,0.0,0.0,0.0,0.0,0.0,0.0,0.0,0.0,0.0,0.0,0.0,0.0,0.0,0.0,0.0,0.0,0.0,0.0,0.0,0.0,0.0,0.0,0.0,0.0,0.0,0.0,0.0,0.0,0.0,0.0,0.0,0.0,0.0,0.0,0.0,0.0,0.0,-2.1443,-2.335,-2.4034,-2.5564,-2.788,-2.7671,-2.8031,-2.9067,-2.9077,-2.8492,0.0,0.0,0.0,0.0,0.0,0.0,0.0,0.0,0.0,0.0,0.0,0.0,0.0,0.0,0.0,0.0,0.0,0.0,0.0,0.0,0.0,0.0,0.0,0.0,0.0,0.0,0.0,0.0,-2.9784,-2.9328,-2.7869,0.0,0.0,0.0,0.0,0.0,0.0,0.0,0.0,0.0,0.0,-3.4892,-3.6589,-3.7312,-3.834,-4.0181,-4.0737,-4.2081,-4.5094,-4.4946,-4.4206,-4.331,0.0,0.0,0.0,0.0,0.0,0.0,0.0,0.0,0.0,0.0,0.0,0.0,0.0,0.0,0.0,0.0,0.0,0.0,0.0,0.0,0.0,0.0,0.0,0.0,0.0,0.0,0.0,0.0,0.0,0.0,-3.1662,0.0,0.0,0.0,0.0,0.0,0.0,0.0,0.0,0.0,0.0,0.0,0.0,0.0,0.0,0.0,0.0,0.0,0.0,0.0,0.0,0.0,0.0,-1.8996,-2.1355,-2.2191,-2.3714,-2.5882,-2.5775,-2.5986,-2.6542,-2.7162,-2.7091,-2.6386,0.0,0.0,0.0,0.0,0.0,0.0,0.0,0.0,0.0,0.0,0.0,0.0,0.0,0.0,0.0,0.0,0.0,0.0,0.0,0.0,0.0,0.0,0.0,0.0,0.0,0.0,-2.9958,-2.9491,-2.8593,0.0,0.0,0.0,0.0,0.0,0.0,0.0,0.0,0.0,0.0,-3.4844,-3.6878,-3.8674,-3.946,-4.0473,-4.2253,-4.241,-4.2738,-4.3955,-4.5482,-4.5543,0.0,0.0,0.0,0.0,0.0,0.0,0.0,0.0,0.0,0.0,0.0,0.0,0.0,0.0,0.0,0.0,0.0,0.0,0.0,0.0,0.0,0.0,0.0,0.0,0.0,0.0,0.0,-3.8731,-3.7937,0.0,0.0,0.0,0.0,0.0,0.0,0.0,0.0,0.0,0.0,0.0,-2.0959,-2.1092,0.0,0.0,0.0,0.0,0.0,0.0,0.0,0.0,0.0,0.0,0.0,0.0,-1.6564,-1.8496,-1.987,-2.1744,-2.4061,-2.4083,-2.4633,-2.5854,-2.6502,-2.671,-2.6533,0.0,0.0,0.0,0.0,0.0,0.0,0.0,0.0,0.0,0.0,0.0,0.0,0.0,0.0,0.0,0.0,0.0,0.0,0.0,0.0,0.0,0.0,0.0,0.0,0.0,-3.0127,0.0,0.0,0.0,0.0,0.0,0.0,0.0,0.0,0.0,0.0,0.0,-3.4465,-3.6157,-3.7951,-3.9705,-4.1455,-4.2292,-4.2902,0.0,0.0,0.0,0.0,0.0,0.0,0.0,0.0,0.0,0.0,0.0,0.0,0.0,0.0,-4.08,-3.5489,-3.4379,-3.4505,-3.5312,0.0,0.0,0.0,0.0,0.0,0.0,0.0,0.0,0.0,0.0,0.0,0.0,0.0,0.0,-4.2787,0.0,-4.1097,0.0,0.0,0.0,0.0,0.0,0.0,0.0,0.0,-2.0693,-1.953,-1.8852,-1.9226,-1.8886,0.0,-1.8355,-1.8667,0.0,0.0,0.0,0.0,0.0,0.0,0.0,0.0,-1.4836,-1.6793,-1.8246,-2.0181,-2.2506,-2.2933,-2.3712,-2.5023,-2.609,-2.6859,-2.7448,-2.6573,-2.5542,0.0,0.0,0.0,0.0,0.0,0.0,0.0,0.0,0.0,0.0,0.0,0.0,0.0,0.0,0.0,0.0,0.0,0.0,0.0,0.0,0.0,0.0,0.0,-3.0716,0.0,0.0,0.0,0.0,0.0,0.0,0.0,0.0,0.0,-3.299,-3.5303,-3.7537,-3.9504,-4.0804,-4.2179,-4.3912,0.0,0.0,0.0,0.0,0.0,0.0,0.0,-4.4317,-4.5704,-4.5078,-4.4197,-4.3715,-4.419,-4.4537,-4.4215,0.0,0.0,-4.1412,-4.0898,-4.1626,-4.25,-4.3509,-4.4987,-4.7344,-5.0308,-5.3185,0.0,0.0,0.0,0.0,0.0,0.0,0.0,0.0,-4.4932,-4.5388,0.0,-4.477,0.0,0.0,0.0,0.0,0.0,-2.6925,0.0,0.0,-1.9537,-1.8104,-1.7734,-1.7734,-1.7727,-1.7704,-1.7418,-1.7156,-1.7052,-1.6608,0.0,0.0,0.0,0.0,0.0,0.0,-1.3814,-1.6145,-1.7283,-1.8931,-2.1239,-2.2281,-2.3232,-2.4162,-2.5862,-2.7543,-2.9016,-2.9208,-2.8587,-2.7042,-2.6172,0.0,0.0,0.0,0.0,0.0,0.0,0.0,0.0,0.0,0.0,0.0,0.0,0.0,0.0,0.0,0.0,0.0,0.0,0.0,0.0,-3.2558,0.0,0.0,0.0,0.0,0.0,0.0,0.0,0.0,0.0,0.0,-3.4582,-3.7117,-3.9945,-4.2431,0.0,0.0,0.0,0.0,-4.6263,-4.7174,-4.6566,-4.6059,-4.6214,-4.7605,-4.8239,-4.6692,0.0,0.0,-4.7214,-4.7529,-4.778,-4.6128,-4.8871,-5.1296,-5.1263,-4.9832,-4.9765,-5.2031,-5.265,-5.4132,-5.7498,-6.1073,-6.5022,-4.9197,0.0,0.0,0.0,0.0,-4.8066,-5.0184,-5.4226,-5.2027,-5.1247,-5.1196,-4.8646,0.0,0.0,0.0,0.0,0.0,0.0,-2.6965,-2.3701,-2.103,-1.9081,-1.7784,-1.7361,-1.7072,-1.6867,-1.713,-1.6914,-1.6258,-1.5757,-1.4924,-1.383,0.0,0.0,0.0,0.0,-1.332,-1.4934,-1.6975,-1.909,-2.1215,-2.2224,-2.3763,-2.58,-2.7457,-2.8801,-2.9829,-3.1005,-3.1176,-3.0217,-2.9876,0.0,0.0,0.0,0.0,0.0,0.0,0.0,0.0,0.0,0.0,0.0,0.0,0.0,0.0,0.0,0.0,0.0,0.0,0.0,-2.9899,-3.0807,-3.0261,0.0,0.0,0.0,0.0,0.0,0.0,0.0,0.0,0.0,-3.8813,-4.0111,-4.1393,0.0,0.0,-4.5042,-4.6183,-4.6938,-4.7433,-4.7542,-4.8952,0.0,-4.9143,-4.9915,-5.0918,-5.1864,-5.2969,-5.3107,-5.1644,-5.1177,-5.0858,-5.041,-5.1721,-5.3055,-5.3853,-5.4275,-5.4843,-5.6236,-5.8281,-6.1076,-6.4497,-6.8522,-7.2305,-5.5477,-5.3043,-5.1259,-5.1309,-5.2529,-5.2392,-5.4166,-5.7248,-5.595,-5.5272,-5.4802,-5.2135,-4.9129,-4.567,-4.2175,0.0,0.0,0.0,-3.0697,-2.6919,-2.3709,-2.1062,-1.8805,-1.7622,-1.6867,-1.6573,-1.6891,-1.6672,-1.6052,-1.5457,-1.4774,-1.3815,0.0,0.0,-1.1329,-1.2431,-1.3576,-1.485,-1.7163,-1.9334,-2.1334,-2.3127,-2.515,-2.7301,-2.837,-2.971,-3.1466,-3.2543,-3.3276,-3.3634,-3.355,-3.3001,0.0,0.0,0.0,0.0,0.0,0.0,0.0,0.0,0.0,0.0,0.0,-1.9301,-1.8577,0.0,0.0,0.0,-2.676,-2.9946,-3.1542,-3.2221,0.0,0.0,0.0,0.0,0.0,0.0,0.0,-3.3688,-3.7647,-4.0488,-4.1223,-4.2469,-4.3489,-4.3915,-4.4403,-4.5099,-4.632,0.0,-4.8161,-4.8721,-5.0509,-5.1799,-5.1949,-5.2916,-5.4416,-5.6734,-5.6868,-5.6441,-5.5608,-5.4757,-5.4061,-5.3846,-5.411,-5.4715,-5.5709,-5.6753,-5.7874,-5.9217,-6.2422,-6.6003,-6.9489,-7.3579,-7.7287,-6.1417,-6.0306,-5.5856,-5.4325,-5.4934,-5.6166,-5.7055,-5.774,-5.7604,-5.781,-5.801,-5.4991,-5.2088,-4.9195,-4.3744,0.0,-4.0269,-3.799,-3.4882,-3.1052,-2.7257,-2.3763,-2.0628,-1.848,-1.7218,-1.676,-1.6685,-1.6514,-1.6378,-1.5852,-1.5176,-1.4526,-1.3663,-1.3092,-1.2898,-1.3579,-1.4554,-1.5625,-1.7747,-1.9822,-2.1857,-2.4693,-2.6921,-2.8515,-2.8857,-3.0534,-3.3449,-3.3954,-3.5023,-3.6999,-3.7094,-3.7032,-3.6782,0.0,0.0,0.0,0.0,0.0,0.0,0.0,0.0,0.0,0.0,0.0,0.0,0.0,0.0,0.0,-2.8449,0.0,-3.5894,-3.5191,0.0,0.0,0.0,-2.9218,-2.9644,-3.2682,-3.5353,-3.7146,0.0,0.0,-4.2473,-4.4307,-4.5693,-4.5753,-4.4787,-4.4725,-4.6449,-4.743,-4.8642,-5.0355,-5.1511,-5.2857,-5.4525,-5.6459,-5.8565,-6.0898,-6.0871,-6.0018,-5.9194,-5.8213,-5.7309,-5.6503,-5.6286,-5.6433,-5.7232,-5.8139,-5.9425,-6.1213,-6.4997,-6.9062,-7.2539,-7.656,-8.028,-6.3444,-6.2562,-6.155,-6.0391,-5.9228,-5.943,-6.0122,-6.0969,-5.9802,-5.8524,-5.7117,-5.4514,-5.1523,-4.8311,-4.6183,-4.4798,-4.4122,-4.1614,-3.8762,-3.5581,-3.0974,-2.7183,-2.4108,-2.1105,-1.9121,-1.8285,-1.8009,-1.7692,-1.7382,-1.699,-1.6751,-1.6612,-1.6415,-1.5345,-1.3453,-1.4833,-1.5972,-1.6707,-1.8921,-2.1285,-2.3739,-2.6206,-2.779,-2.8432,-3.0396,-3.2056,-3.3578,-3.5475,-3.6971,-3.8136,-3.9697,-4.0309,-3.9445,-3.7176,0.0,0.0,0.0,0.0,0.0,0.0,0.0,0.0,0.0,-1.7449,-1.2574,0.0,-1.4159,0.0,-2.5735,-3.175,-3.4144,-3.4203,0.0,0.0,-3.1394,-3.191,-3.4419,-3.6688,-3.8885,-4.127,-4.4119,-4.589,-4.5676,-4.6052,-4.649,-4.7144,-4.5913,-4.5524,-4.7182,-4.7728,-4.8795,-5.126,-5.2993,-5.474,-5.6668,-5.9987,-6.2719,-6.4054,-6.3604,-6.2967,-6.2654,-6.1286,-6.0131,-5.9822,-5.9184,-5.8875,-5.905,-5.9339,-6.022,-6.2129,-6.5511,-6.938,-7.3423,-7.766,-8.1414,-6.7302,-6.6745,-6.5986,-6.5222,-6.4415,-6.2898,-6.2346,-6.2167,-6.0792,-5.8556,-5.5752,-5.225,-4.9479,-4.7314,-4.6868,-4.6507,-4.6108,-4.4272,-4.1936,-3.9004,-3.4708,-3.0924,-2.7442,-2.4005,-2.1956,-2.1144,-2.0254,-1.9858,-1.9923,-1.9527,-1.9352,-1.933,-1.9735,-1.9217,-1.8,-1.7763,-1.8025,-1.8655,-2.1157,-2.359,-2.5932,-2.7698,-2.8834,-2.9474,-3.1513,-3.2958,-3.3538,-3.5622,-3.729,-3.8428,-4.0304,-4.1579,-4.2014,-4.0886,-3.9498,0.0,0.0,0.0,0.0,0.0,0.0,0.0,0.0,0.0,0.0,0.0,-1.3537,-1.9926,-2.7353,-3.2863,-3.5549,-3.5816,-3.5513,-3.4602,-3.4319,-3.5051,-3.7239,-3.9355,-4.1494,-4.3694,-4.6531,-4.8217,-4.7834,-4.8296,-4.8662,-4.8838,-4.8334,-4.7981,-4.8181,-4.8678,-4.998,-5.2585,-5.4188,-5.6286,-5.9181,-6.275,-6.5421,-6.6089,-6.6244,-6.6073,-6.5523,-6.4676,-6.3786,-6.3174,-6.2059,-6.1142,-6.1189,-6.0629,-6.0963,-6.3433,-6.6309,-6.985,-7.3758,-7.8259,-8.2178,-7.1629,-7.1283,-6.9739,-6.9288,-6.9408,-6.6635,-6.4307,-6.2276,-6.0792,-5.7518,-5.279,-4.8841,-4.6728,-4.6282,-4.6815,-4.7174,-4.7172,-4.6088,-4.4035,-4.1306,-3.7798,-3.4178,-3.0636,-2.7163,-2.5283,-2.4656,-2.343,-2.3048,-2.349,-2.3149,-2.3088,-2.3096,-2.3866,-2.4385,-2.4627,-2.2635,-2.1624,-2.1811,-2.4363,-2.658,-2.8393,-2.949,-3.032,-3.1052,-3.2637,-3.3508,-3.364,-3.5357,-3.7051,-3.8574,-4.0368,-4.2345,-4.4453,-4.4706,-4.4099,0.0,-4.0493,0.0,0.0,0.0,0.0,0.0,0.0,0.0,0.0,-1.3197,-1.5131,-2.4465,-3.0576,-3.5067,-3.7903,-3.8371,-3.8064,-3.7243,-3.7451,-3.8012,-3.906,-4.1445,-4.3738,-4.5382,-4.8457,-5.0135,-4.9449,-5.0723,-5.133,-5.0798,-5.1326,-5.1451,-5.0418,-5.0593,-5.1729,-5.4196,-5.5647,-5.8105,-6.1733,-6.4799,-6.6927,-6.7842,-6.8661,-6.8954,-6.8141,-6.7828,-6.744,-6.6217,-6.468,-6.3499,-6.3368,-6.2117,-6.206,-6.4503,-6.7254,-7.0419,-7.4101,-7.8672,-8.2337,-7.4784,-7.2932,-7.2941,-7.229,-7.1261,-7.0012,-6.7034,-6.2787,-5.8907,-5.2671,-4.5281,-4.501,-4.5061,-4.5429,-4.7618,-4.8582,-4.8405,-4.6172,-4.3827,-4.1327,-3.786,-3.5059,-3.2841,-3.0508,-2.8855,-2.7859,-2.7981,-2.7886,-2.7665,-2.8699,-2.9236,-2.9385,-3.0349,-3.1175,-3.1788,0.0,0.0,0.0,-2.9429,-3.0467,-3.1064,-3.2649,-3.3183,-3.2751,-3.3887,0.0,-3.4645,-3.7026,-3.8793,-3.9829,-4.3303,0.0,0.0,0.0,0.0,0.0,0.0,0.0,0.0,0.0,0.0,0.0,-2.7328,-2.0873,-1.4875,-1.5452,-1.9358,-2.6621,-3.0478,-3.4062,-3.7676,-3.8128,-3.7925,-3.7174,-3.8296,-3.9698,-4.1205,-4.3718,-4.5911,-4.7651,-4.9652,-5.0947,-5.1,-5.2182,-5.3063,-5.3072,-5.4276,-5.5231,-5.567,-5.4192,-5.4001,-5.6012,-5.8319,-6.0671,-6.3013,-6.5587,-6.7831,-6.9323,-7.0253,-7.0697,-7.0542,-7.0271,-6.9596,-6.8378,-6.694,-6.555,-6.4894,-6.3674,-6.3245,-6.5114,-6.7763,-7.0937,-7.4792,-7.9139,-8.2539,-7.8909,0.0,-7.653,-7.5396,0.0,-7.2245,-6.8617,-6.3617,-5.8178,-4.9703,-3.9812,-4.1328,-4.3534,-4.6152,-4.964,-5.1558,-5.2085,-4.8902,-4.5866,-4.3088,-3.9483,-3.6925,-3.5408,-3.3368,-3.2045,-3.1363,-3.1585,-3.2147,-3.2981,-3.4051,-3.494,-3.5711,-3.6559,-3.7343,-3.8023,-4.0084,-3.8711,-3.392,-3.4902,-3.5525,-3.5854,-3.702,-3.7124,-3.609,0.0,0.0,0.0,0.0,0.0,0.0,0.0,0.0,0.0,0.0,0.0,-5.0361,-4.9418,-4.807,-4.6299,-4.4096,-4.1076,-3.6863,-2.8379,-2.0947,-1.5461,-1.8317,-2.2685,-2.7954,-3.175,-3.5131,-3.794,-3.8569,-3.87,-3.8622,-3.972,-4.1315,-4.339,-4.5469,-4.7507,-4.922,-5.1028,-5.2205,-5.234,-5.3702,-5.4716,-5.5004,-5.6671,-5.811,-5.8432,-5.7324,-5.7016,-5.8896,-6.061,-6.2397,-6.39,-6.5865,-6.7939,-6.9684,-7.1317,-7.2119,-7.2119,-7.2054,-7.162,-6.9964,-6.8187,-6.6628,-6.5459,-6.4385,-6.4235,-6.6178,-6.8666,-7.1762,-7.5521,-7.9091,-8.1555,-8.2501,-8.1627,-7.9717,-7.8149,-7.6746,-7.4175,-6.9551,-6.3318,0.0,0.0,0.0,-3.8617,-4.2616,-4.7604,-5.2322,-5.5428,-5.6811,-5.2736,-4.8954,-4.5538,-4.1311,-3.8729,-3.7477,-3.5892,-3.4964,-3.4661,-3.4969,-3.6164,-3.8147,-3.9325,-4.0482,-4.1651,-4.2648,-4.3491,-4.4444,-4.6944,-4.5998,-4.1728,-4.1428,-4.1397,-4.1607,-4.221,-4.1872,-4.0614,-4.1637,-4.1223,-3.9165,-4.0494,-4.1667,-4.2622,-4.4465,-4.6992,-5.0161,-5.2958,-5.5556,-5.803,-5.8994,-5.8368,-5.5852,-5.2525,-4.6428,-3.6901,-2.701,-2.0151,-1.741,-2.0999,-2.4948,-2.8721,-3.3069,-3.6375,-3.8291,-3.9061,-3.9649,-4.0318,-4.1385,-4.3002,-4.5291,-4.7066,-4.8803,-5.0464,-5.2311,-5.3494,-5.3527,-5.5163,-5.6393,-5.6727,-5.8608,-6.0568,-6.0665,-6.0121,-5.9908,-6.1277,-6.2261,-6.3215,-6.432,-6.5884,-6.7731,-6.9964,-7.23,-7.3707,-7.385,-7.4125,-7.3242,-7.0323,-6.8751,-6.7149,-6.549,-6.4519,-6.4885,-6.6672,-6.9205,-7.2181,-7.5571,-7.8037,-7.968,-8.3581,-8.2454,-8.1743,-8.0222,-7.8231,-7.6597,-6.9756,-5.9039,-4.9015,-4.0421,-3.3964,-3.8159,-4.34,-4.9429,-5.5633,-6.0097,-6.2408,-5.6811,-5.2169,0.0,-4.2463,-3.8977,-3.7705,-3.7878,-3.7498,-3.6869,-3.885,-4.0412,-4.1618,-4.4378,-4.624,-4.7029,-4.8522,-5.0096,-5.1662,-5.3451,-5.4287,-5.4025,-5.021,-4.821,-4.8123,-4.8273,-4.7867,-4.6966,-4.6525,-4.5499,-4.3686,-4.4664,-4.5218,-4.5423,-4.772,-5.0052,-5.2037,-5.471,-5.7008,-5.8898,-6.0398,-6.0561,-5.9269,-5.478,-4.6306,-3.3379,-2.6543,-2.2136,-2.0016,-2.2361,-2.5561,-2.9115,-3.3069,-3.6032,-3.7558,-3.9031,-4.0197,-4.1125,-4.3041,-4.4996,-4.669,-4.8494,-5.0118,-5.1266,-5.2895,-5.4187,-5.4547,-5.6421,-5.788,-5.8358,-6.0089,-6.2394,-6.3441,-6.315,-6.233,-6.2483,-6.2727,-6.3168,-6.4054,-6.549,-6.7676,-7.0984,-7.3373,-7.5551,-7.7186,-7.7189,-7.5181,-6.9611,-6.864,-6.751,-6.5191,-6.4237,-6.472,-6.6236,-6.8585,-7.1218,-7.4082,-7.551,-7.664,-8.1751,-8.0558,-8.0433,-7.9258,-7.7277,-7.3429,-6.7123,-5.8994,-5.0856,-4.3347,-3.7457,-4.14,-4.6853,-5.3176,-5.9347,-6.3377,-6.532,-5.8819,-5.2733,-4.7038,-4.2469,-3.9379,-3.7843,-3.8252,-3.8275,-3.8041,-3.9976,-4.19,-4.3734,-4.6632,-4.8638,-4.9887,-5.2347,-5.4686,-5.6761,-5.8031,-5.9029,-5.9708,-5.6544,-5.4585,-5.3964,-5.4363,-5.3984,-5.2721,-5.2368,-5.1635,-5.0469,-5.0418,-5.0571,-5.1078,-5.2145,-5.3646,-5.5374,-5.7493,-5.9714,-6.1808,-6.3513,-6.3932,-6.294,-5.3232,-4.2898,-3.2403,-2.6352,-2.2907,-2.2382,-2.4611,-2.7332,-3.0133,-3.364,-3.6261,-3.7411,-3.894,-4.0441,-4.1724,-4.3603,-4.5735,-4.82,-4.9787,-5.1343,-5.2977,-5.4204,-5.5203,-5.5683,-5.7284,-5.8367,-5.8694,-6.0694,-6.2959,-6.4799,-6.4519,-6.4051,-6.3987,-6.3638,-6.3606,-6.4191,-6.4951,-6.6836,-6.9671,-7.2993,-7.6188,-7.888,-7.9122,-7.6154,-7.1429,-6.9237,-6.7148,-6.4643,-6.3907,-6.447,-6.6032,-6.8622,-7.1198,-7.3317,-7.4124,-7.4618,-7.8549,-7.7704,-7.7853,-7.7261,-7.5573,-7.03,-6.5419,-6.0812,-5.5229,-4.9277,-4.4168,-4.5849,-5.0364,-5.662,-6.2109,-6.5705,-6.6567,-6.0593,-5.4223,-4.8279,-4.3428,-3.9996,-3.8073,-3.8326,-3.8419,-3.851,-4.0156,-4.2343,-4.4681,-4.7413,-4.9973,-5.2188,-5.5294,-5.7836,-5.9727,-6.1161,-6.2094,-6.2393,-6.1486,-6.0311,-5.9128,-5.9996,-5.9843,-5.8489,-5.8336,-5.7977,-5.7205,-5.6207,-5.593,-5.6496,-5.6237,-5.6726,-5.8334,-5.9791,-6.1732,-6.4279,-6.6115,-6.6009,-6.3108,-5.138,-4.0465,-3.2483,-2.6581,-2.351,-2.4118,-2.6282,-2.8585,-3.0929,-3.3927,-3.6179,-3.725,-3.8646,-4.0368,-4.2165,-4.397,-4.6286,-4.9344,-5.0823,-5.227,-5.4391,-5.5398,-5.6138,-5.6955,-5.8031,-5.8887,-5.9375,-6.088,-6.2758,-6.4225,-6.4595,-6.4671,-6.4757,-6.4343,-6.4124,-6.459,-6.4632,-6.5841,-6.8258,-7.2016,-7.6084,-7.94,-8.0125,-7.7377,-7.3235,-6.9951,-6.7353,-6.4867,-6.3966,-6.4557,-6.611,-6.8585,-7.1128,-7.2593,-7.2857,-7.2927,-7.4283,-7.4442,-7.4442,-7.4392,-7.3795,-7.0235,-6.7074,-6.4085,-5.995,-5.6702,-5.3501,-5.0548,-5.2444,-5.8342,-6.2749,-6.6383,-6.8847,-6.2764,-5.8414,-5.5445,-4.6638,-4.0782,-3.8505,-3.8467,-3.8099,-3.7799,-3.983,-4.1865,-4.3826,-4.7186,-5.0859,-5.4683,-5.7493,-5.8882,-5.9463,-6.2258,-6.3535,-6.2782,-6.4854,-6.4984,-6.3207,-6.4579,-6.4946,-6.411,-6.4095,-6.3688,-6.2699,-6.1169,-6.0234,-6.0119,-5.8717,-5.8515,-5.9966,-6.0265,-6.1688,-6.4955,-6.682,-6.5214,-5.8814,-5.0518,-4.1706,-3.2745,-2.7595,-2.4526,-2.4028,-2.6206,-2.8433,-3.0586,-3.3434,-3.557,-3.651,-3.8029,-3.9884,-4.2132,-4.4373,-4.7021,-4.9381,-5.138,-5.2902,-5.4088,-5.5578,-5.6845,-5.7234,-5.8476,-5.9685,-6.0433,-6.0913,-6.178,-6.28,-6.3019,-6.328,-6.3854,-6.431,-6.455,-6.4369,-6.4289,-6.5346,-6.7721,-7.1086,-7.5466,-7.9432,-8.0623,-7.8729,-7.3865,-7.1175,-6.8438,-6.5945,-6.4562,-6.5064,-6.6574,-6.8516,-7.0229,-7.0998,-7.1179,-7.1256,-6.983,-7.0136,-7.0603,-7.137,-7.1827,-7.0181,-6.7673,-6.4676,-6.1628,-5.8663,-5.5934,-5.4012,-5.534,-5.8943,-6.1874,-6.4078,-6.5033,-6.021,-5.6169,-5.2884,-4.6119,-4.1404,-3.8656,-3.742,-3.7054,-3.7234,-3.8326,-3.9976,-4.2563,-4.6705,-5.0769,-5.4369,-5.7031,-5.8824,-5.991,-6.2244,-6.3555,-6.3761,-6.5705,-6.6516,-6.6334,-6.6772,-6.7082,-6.7299,-6.7282,-6.742,-6.7307,-6.5761,-6.5043,-6.5247,-6.3284,-6.2065,-6.2042,-6.142,-6.2069,-6.4436,-6.6697,-6.535,-5.9606,-5.2296,-4.4222,-3.5045,-2.9783,-2.6343,-2.5124,-2.6946,-2.8925,-3.0602,-3.3064,-3.5143,-3.6451,-3.8081,-3.9978,-4.2242,-4.4008,-4.6108,-4.9142,-5.0213,-5.1544,-5.3887,-5.5074,-5.6003,-5.7149,-5.8348,-5.9559,-6.0728,-6.1098,-6.1401,-6.2269,-6.2487,-6.2672,-6.3009,-6.3422,-6.3862,-6.4181,-6.3838,-6.455,-6.6503,-7.011,-7.4708,-7.7258,-7.9917,-7.8623,-7.3779,-7.1582,-6.9293,-6.6551,-6.6113,-6.6464,-6.7655,-6.8425,-6.9682,-7.0239,-7.0009,-7.0262,-6.5716,-6.6041,-6.742,-6.9208,-7.0863,-7.0042,-6.8111,-6.5346,-6.268,-5.967,-5.6592,-5.5937,-5.6329,-5.7698,-5.9843,-6.0841,-6.0448,-5.7263,-5.3585,-4.9644,-4.5226,-4.1396,-3.8305,-3.669,-3.6245,-3.6816,-3.7141,-3.8713,-4.1693,-4.6144,-5.0048,-5.294,-5.5696,-5.7889,-5.9452,-6.1483,-6.2961,-6.3653,-6.5438,-6.6985,-6.7904,-6.8135,-6.8682,-6.9682,-7.0031,-7.0533,-7.1295,-6.9878,-6.9149,-6.9438,-6.6913,-6.498,-6.3911,-6.2366,-6.2298,-6.3947,-6.6268,-6.5542,-6.0659,-5.4358,-4.6999,-3.8548,-3.2584,-2.8371,-2.6816,-2.7236,-2.8507,-2.9884,-3.2264,-3.4465,-3.631,-3.7804,-3.9544,-4.1593,-4.2858,-4.5065,-4.776,-4.8765,-5.0585,-5.3333,-5.4409,-5.5303,-5.6986,-5.8186,-5.9235,-6.0113,-6.0568,-6.098,-6.1576,-6.1728,-6.1869,-6.2161,-6.2299,-6.2737,-6.3722,-6.3352,-6.3576,-6.5328,-6.8809,-7.2349,-7.4124,-7.6846,-7.6975,-7.1789,-7.0899,-7.0346,-6.8843,-6.8316,-6.8623,-6.921,-6.9535,-6.9613,-6.9686,-6.9327,-6.9929,-6.2094,-6.2644,-6.5651,-6.8464,-7.07,-6.9903,-6.8655,-6.6791,-6.3681,-6.0356,-5.7235,-5.5599,-5.4567,-5.4217,-5.6509,-5.7648,-5.7405,-5.5109,-5.2407,-4.9168,-4.4664,-4.0663,-3.7501,-3.6352,-3.5928,-3.6245,-3.6742,-3.8795,-4.2243,-4.5835,-4.8486,-5.0438,-5.3803,-5.5911,-5.7246,-6.0155,-6.1791,-6.2228,-6.4409,-6.6453,-6.8023,-6.8853,-7.0052,-7.1653,-7.249,-7.3055,-7.3858,-7.3113,-7.2152,-7.1358,-6.879,-6.6728,-6.5444,-6.2862,-6.2102,-6.3795,-6.5762,-6.5114,-6.1041,-5.6294,-5.0038,-4.2333,-3.5772,-3.0559,-2.7414,-2.697,-2.7353,-2.818,-3.0979,-3.3544,-3.5735,-3.7009,-3.815,-3.9741,-4.1622,-4.3751,-4.5694,-4.7972,-5.0047,-5.2251,-5.3898,-5.5366,-5.7125,-5.8205,-5.8584,-5.9083,-5.9506,-6.0037,-6.0221,-6.021,-6.0501,-6.1157,-6.1535,-6.1793,-6.2401,-6.2876,-6.3087,-6.4855,-6.7964,-7.0779,-7.2123,-7.2979,-7.1231,-6.9779,-6.893,-6.8989,-7.0292,-7.1217,-7.1738,-7.1704,-7.0411,-7.0143,-6.9495,-6.9132,-6.978,-6.1233,-6.2595,-6.555,-6.7676,-6.9068,-6.9923,-6.9113,-6.6885,-6.4138,-6.0727,-5.7146,-5.473,-5.3042,-5.1921,-5.3221,-5.4351,-5.484,-5.303,-5.0936,-4.8561,-4.4799,-4.174,-3.9448,-3.7044,-3.6168,-3.6515,-3.5938,-3.7379,-4.0759,-4.3741,-4.656,-4.945,-5.2733,-5.5153,-5.679,-5.9451,-6.1134,-6.1861,-6.3748,-6.579,-6.7982,-6.8975,-7.0667,-7.33,-7.3191,-7.3703,-7.5067,-7.4684,-7.4266,-7.3878,-7.175,-6.9604,-6.7215,-6.352,-6.1749,-6.2985,-6.4326,-6.4496,-6.2629,-5.8666,-5.3128,-4.6157,-3.9875,-3.4032,-2.9809,-2.8252,-2.8015,-2.8497,-3.0507,-3.3145,-3.5509,-3.7171,-3.8916,-4.0753,-4.1771,-4.3418,-4.5885,-4.7387,-4.895,-5.1692,-5.3716,-5.5227,-5.6134,-5.6727,-5.7365,-5.8348,-5.8835,-5.9214,-5.9658,-5.9602,-5.9528,-5.9807,-6.0125,-6.0527,-6.1505,-6.2844,-6.3943,-6.5571,-6.7841,-6.9211,-7.0685,-6.8555,-6.6691,-6.1484,-6.1861,-6.8501,-7.0523,-7.6752,-7.6847,-7.5094,-7.367,-7.0649,-6.9382,-6.8748,-6.9783,-6.0795,-6.2845,-6.5276,-6.7156,-6.8625,-7.0124,-6.9519,-6.7138,-6.4576,-6.1121,-5.7328,-5.4814,-5.2782,-5.1271,-5.1527,-5.2026,-5.2562,-5.1693,-5.0298,-4.8164,-4.5307,-4.2792,-4.0461,-3.7974,-3.6813,-3.6828,-3.6006,-3.6843,-3.9444,-4.2031,-4.4911,-4.8014,-5.1226,-5.3737,-5.5775,-5.825,-6.0074,-6.137,-6.3171,-6.5449,-6.7851,-6.8934,-7.0941,-7.3726,-7.3756,-7.4353,-7.6285,-7.6005,-7.5741,-7.5408,-7.3605,-7.0709,-6.6998,-6.3518,-6.1705,-6.2235,-6.3378,-6.4146,-6.3809,-6.0791,-5.6229,-5.0156,-4.4146,-3.8205,-3.2464,-3.0487,-2.9435,-2.9307,-3.0516,-3.2863,-3.5274,-3.7295,-3.925,-4.1203,-4.1948,-4.3222,-4.5781,-4.6772,-4.9008,-5.2183,-5.3828,-5.4806,-5.5559,-5.5777,-5.6597,-5.7838,-5.8283,-5.8878,-5.9582,-5.933,-5.9035,-5.9153,-5.9507,-6.0517,-6.2172,-6.4093,-6.464,-6.6089,-6.7584,-6.8636,-6.703,-6.4552,-6.0762,-5.5123,-5.7415,-6.5703,-7.3315,-8.0298,-8.1298,-7.9473,-7.5595,-7.2118,-7.0294,-6.8217,-6.9297,-6.077,-6.2606,-6.4527,-6.685,-6.9084,-7.0171,-6.9721,-6.7906,-6.5331,-6.1869,-5.8196,-5.6011,-5.3798,-5.1911,-5.1653,-5.1193,-5.0933,-5.1452,-5.0356,-4.7895,-4.5994,-4.3483,-4.0551,-3.933,-3.8015,-3.6837,-3.6941,-3.7565,-3.875,-4.1164,-4.3763,-4.6289,-4.9035,-5.172,-5.3939,-5.662,-5.8811,-6.052,-6.2867,-6.5363,-6.7764,-6.8749,-7.0886,-7.3781,-7.411,-7.5244,-7.7749,-7.7075,-7.6594,-7.6161,-7.4146,-6.9833,-6.5105,-6.2807,-6.1919,-6.2071,-6.3124,-6.4068,-6.433,-6.2522,-5.895,-5.3903,-4.8397,-4.2242,-3.6824,-3.3403,-3.1299,-3.0586,-3.1172,-3.2794,-3.5119,-3.7028,-3.8792,-4.0282,-4.1931,-4.3274,-4.4661,-4.66,-4.9467,-5.308,-5.4163,-5.4572,-5.5207,-5.5463,-5.5943,-5.6914,-5.7771,-5.8661,-5.9474,-5.9147,-5.9015,-5.9149,-5.9167,-5.9801,-6.2785,-6.5634,-6.5812,-6.6306,-6.7673,-6.8421,-6.4166,-6.1021,-5.6961,-5.2499,-5.9296,-6.7654,-7.9451,-8.5517,-8.5732,-8.3629,-7.875,-7.3326,-7.0247,-6.8259,-6.8368,-6.0667,-6.253,-6.3917,-6.6039,-6.8531,-6.9539,-6.9491,-6.8743,-6.6162,-6.3123,-6.0076,-5.7097,-5.4714,-5.3072,-5.2313,-5.1961,-5.1684,-5.1408,-4.9959,-4.7617,-4.5673,-4.3703,-4.177,-4.0233,-3.8542,-3.6856,-3.6338,-3.6992,-3.8583,-4.0547,-4.2802,-4.5503,-4.8483,-5.0977,-5.3167,-5.6121,-5.8373,-5.9629,-6.2503,-6.4831,-6.6301,-6.8226,-7.059,-7.3006,-7.3906,-7.5348,-7.77,-7.7641,-7.7253,-7.671,-7.5708,-7.2276,-6.6681,-6.3722,-6.2821,-6.3106,-6.4037,-6.5277,-6.5844,-6.3378,-6.0226,-5.6145,-5.0666,-4.5069,-4.0197,-3.6759,-3.4175,-3.2378,-3.2596,-3.3817,-3.5735,-3.7897,-3.9593,-4.1072,-4.2158,-4.3912,-4.6364,-4.9488,-5.2047,-5.3304,-5.4123,-5.4608,-5.476,-5.4726,-5.5063,-5.6369,-5.7039,-5.7818,-5.908,-5.8672,-5.7835,-5.767,-5.8085,-5.9163,-6.2094,-6.5457,-6.7579,-6.8137,-6.9211,-6.823,-6.3526,-5.8245,-5.3954,-5.4846,-6.1686,-7.1073,-8.2878,-8.8611,-8.8818,-8.6166,-8.0821,-7.5526,-7.0266,-6.8233,-6.7825,-6.041,-6.1974,-6.3459,-6.5273,-6.7276,-6.8771,-6.9232,-6.8684,-6.6987,-6.4737,-6.1956,-5.9484,-5.703,-5.5201,-5.4035,-5.3127,-5.2294,-5.1223,-4.9504,-4.7343,-4.5957,-4.432,-4.231,-3.986,-3.8328,-3.7098,-3.6057,-3.6605,-3.8401,-4.0223,-4.2578,-4.5522,-4.8203,-5.0743,-5.3011,-5.5411,-5.7429,-5.9143,-6.1705,-6.3865,-6.5477,-6.7567,-6.9848,-7.2164,-7.3544,-7.508,-7.6827,-7.731,-7.7387,-7.6885,-7.5786,-7.2122,-6.6942,-6.4857,-6.3937,-6.4152,-6.4985,-6.6026,-6.6416,-6.4059,-6.0855,-5.719,-5.2407,-4.7591,-4.3453,-4.0123,-3.7469,-3.5631,-3.4724,-3.5067,-3.6529,-3.8031,-3.98,-4.1493,-4.2811,-4.4764,-4.7938,-5.1187,-5.3309,-5.3916,-5.4503,-5.4693,-5.4663,-5.4359,-5.4482,-5.5835,-5.6406,-5.7266,-5.8535,-5.814,-5.7506,-5.7057,-5.7405,-5.8987,-6.1195,-6.4851,-6.8914,-7.019,-7.1135,-6.8759,-6.5007,-5.8937,-5.3947,-5.7273,-6.3025,-7.3413,-8.4805,-8.9778,-9.1339,-8.6916,-8.185,-7.5193,-6.9259,-6.6828,-6.6022,-5.9926,-6.1155,-6.3092,-6.4526,-6.5779,-6.8206,-6.8848,-6.8195,-6.7872,-6.6269,-6.4048,-6.2435,-6.0324,-5.7894,-5.6564,-5.4943,-5.2734,-5.1525,-4.9771,-4.7697,-4.6457,-4.4945,-4.196,-3.8826,-3.7392,-3.7206,-3.6241,-3.6638,-3.8438,-4.0369,-4.2812,-4.582,-4.7908,-5.0465,-5.3151,-5.4718,-5.6589,-5.8918,-6.0789,-6.2863,-6.5142,-6.701,-6.9055,-7.143,-7.3139,-7.4632,-7.5815,-7.6614,-7.7215,-7.7215,-7.4293,-7.0786,-6.7324,-6.5879,-6.5095,-6.4642,-6.5792,-6.5864,-6.5608,-6.3738,-6.1164,-5.7,-5.3602,-5.044,-4.6411,-4.3699,-4.1343,-3.9388,-3.7627,-3.6721,-3.7301,-3.8162,-3.9726,-4.1905,-4.4163,-4.636,-4.897,-5.1475,-5.3399,-5.4592,-5.4955,-5.4882,-5.4762,-5.4437,-5.4663,-5.5471,-5.6182,-5.7401,-5.8463,-5.8353,-5.7503,-5.737,-5.7501,-5.9102,-6.14,-6.496,-6.9043,-7.2267,-7.2965,-7.0982,-6.7082,-6.0996,-5.6886,-6.0245,-6.515,-7.5714,-8.3687,-8.8546,-8.9968,-8.621,-8.019,-7.3329,-6.8539,-6.5453,-6.3652,-6.0103,-6.1141,-6.1842,-6.3397,-6.5444,-6.6998,-6.8148,-6.8855,-6.8776,-6.7817,-6.6277,-6.4275,-6.2648,-6.0947,-5.8963,-5.7294,-5.5686,-5.3641,-5.155,-4.9384,-4.7292,-4.396,-4.0391,-3.8003,-3.6782,-3.6539,-3.6454,-3.7035,-3.8447,-4.0828,-4.3124,-4.5299,-4.7747,-5.0212,-5.2692,-5.439,-5.6416,-5.8841,-6.0614,-6.2385,-6.4399,-6.6711,-6.8773,-7.0658,-7.2896,-7.4856,-7.6271,-7.7299,-7.711,-7.5892,-7.316,-7.0657,-6.8395,-6.6587,-6.5235,-6.4837,-6.5178,-6.4978,-6.3555,-6.1568,-5.9011,-5.6656,-5.3465,-5.1128,-4.9928,-4.7375,-4.5229,-4.3235,-4.0914,-3.9016,-3.875,-3.9385,-4.1724,-4.5337,-4.6907,-4.8348,-5.018,-5.2463,-5.4295,-5.4973,-5.5027,-5.5062,-5.4828,-5.445,-5.4367,-5.5388,-5.6237,-5.7391,-5.8534,-5.9017,-5.8415,-5.8161,-5.8428,-5.9775,-6.1981,-6.5448,-6.9306,-7.359,-7.4762,-7.4303,-6.9941,-6.4543,-6.2145,-6.2424,-6.7222,-7.6205,-8.1807,-8.6748,-8.5467,-8.3218,-7.6859,-6.9414,-6.5634,-6.2328,-6.0945,-5.998,-6.0676,-6.1202,-6.2544,-6.4283,-6.5626,-6.7156,-6.8502,-6.8973,-6.8765,-6.7867,-6.6615,-6.5247,-6.3954,-6.1901,-6.0,-5.8266,-5.5686,-5.3031,-5.0188,-4.7025,-4.3349,-3.9964,-3.7854,-3.6685,-3.631,-3.6594,-3.751,-3.902,-4.1296,-4.3593,-4.5994,-4.7891,-5.026,-5.3057,-5.4078,-5.5861,-5.8199,-5.9835,-6.1461,-6.3553,-6.5711,-6.7866,-6.994,-7.2429,-7.4778,-7.7034,-7.792,-7.7268,-7.5383,-7.3103,-7.0729,-6.8311,-6.6173,-6.4393,-6.3192,-6.2933,-6.2208,-6.0655,-5.868,-5.6786,-5.4859,-5.2481,-5.153,-5.0692,-4.9389,-4.7876,-4.5836,-4.3788,-4.1931,-4.0584,-4.1531,-4.4007,-4.6729,-4.8992,-5.0353,-5.1129,-5.3482,-5.4882,-5.5495,-5.5731,-5.5751,-5.5186,-5.4508,-5.462,-5.5182,-5.5973,-5.7526,-5.9074,-5.9323,-5.959,-5.9485,-5.9585,-6.0803,-6.2788,-6.5986,-6.9537,-7.3804,-7.5931,-7.5764,-7.1927,-6.7278,-6.5911,-6.5813,-7.031,-7.4312,-7.8684,-8.1147,-7.9182,-7.5769,-7.0612,-6.6347,-6.2141,-5.9161,-5.7824,-5.982,-5.9994,-6.0836,-6.1735,-6.2909,-6.4419,-6.6084,-6.7654,-6.8646,-6.8993,-6.8773,-6.8925,-6.774,-6.6663,-6.4692,-6.2756,-6.0349,-5.7977,-5.444,-5.098,-4.7207,-4.3755,-4.1631,-3.8794,-3.7406,-3.685,-3.6804,-3.7889,-3.9535,-4.1387,-4.414,-4.66,-4.8178,-5.0477,-5.2874,-5.3818,-5.5238,-5.7264,-5.8676,-6.039,-6.264,-6.4665,-6.6836,-6.9161,-7.26,-7.5404,-7.7572,-7.8351,-7.7609,-7.5711,-7.3588,-7.0544,-6.7218,-6.4843,-6.2003,-5.9511,-5.8561,-5.7692,-5.6675,-5.5673,-5.4995,-5.3198,-5.2542,-5.1784,-5.1566,-5.1159,-5.0099,-4.8609,-4.6796,-4.4477,-4.2717,-4.3907,-4.5852,-4.7983,-5.0509,-5.1874,-5.2618,-5.449,-5.5988,-5.598,-5.6997,-5.6571,-5.5688,-5.4876,-5.4876,-5.5278,-5.6115,-5.7447,-5.9251,-6.0367,-6.0807,-6.1245,-6.144,-6.1803,-6.4063,-6.656,-7.0132,-7.3809,-7.5863,-7.6014,-7.2838,-6.9479,-6.8452,-6.8929,-7.0138,-7.1453,-7.3483,-7.3982,-7.2166,-6.9244,-6.4653,-6.1047,-5.7699,-5.5612,-5.4062,-5.9982,-5.9982,-6.0197,-6.1185,-6.2553,-6.3715,-6.5182,-6.6891,-6.8417,-6.906,-6.9169,-6.9169,-6.8973,-6.8547,-6.6834,-6.5047,-6.3001,-6.0791,-5.7642,-5.2853,-4.9259,-4.6872,-4.4608,-4.1542,-3.8975,-3.8159,-3.8539,-3.8921,-3.9572,-4.2109,-4.4354,-4.6421,-4.8319,-5.0071,-5.2466,-5.3555,-5.4752,-5.665,-5.8139,-5.9793,-6.1915,-6.4177,-6.636,-6.8856,-7.3388,-7.6887,-7.8726,-7.9234,-7.8338,-7.6241,-7.3467,-7.0155,-6.6391,-6.2521,-5.877,-5.5341,-5.3191,-5.2106,-5.1735,-5.2368,-5.3441,-5.3955,-5.432,-5.4679,-5.5405,-5.3765,-5.2702,-5.139,-4.9044,-4.6327,-4.4428,-4.471,-4.6866,-4.9586,-5.2041,-5.3969,-5.488,-5.5577,-5.6385,-5.6953,-5.704,-5.6764,-5.6088,-5.5074,-5.5075,-5.5417,-5.6369,-5.7458,-5.9229,-6.1143,-6.2096,-6.2702,-6.3081,-6.3388,-6.4453,-6.6701,-6.9372,-7.1889,-7.3905,-7.4102,-7.1028,-6.8777,-6.668,-6.6792,-6.7976,-6.8843,-6.824,-6.644,-6.4542,-6.1641,-5.9183,-5.6352,-5.3832,-5.1869,-5.0862,-6.0076,-6.0013,-5.9982,-6.0936,-6.2378,-6.3052,-6.4638,-6.6793,-6.8068,-6.9082,-6.968,-6.9865,-6.9927,-6.985,-6.8487,-6.7126,-6.5413,-6.262,-5.9299,-5.5617,-5.2829,-5.0818,-4.8969,-4.6204,-4.3564,-4.0714,-4.0886,-4.1078,-4.1707,-4.3434,-4.5742,-4.734,-4.8694,-5.0442,-5.2212,-5.299,-5.411,-5.5706,-5.7126,-5.8858,-6.1073,-6.3116,-6.6557,-6.9834,-7.4437,-7.7775,-7.9393,-7.9973,-7.913,-7.7049,-7.4063,-7.0033,-6.5507,-6.0672,-5.5986,-5.1591,-4.8396,-4.7289,-4.7502,-4.9432,-5.1876,-5.4395,-5.6141,-5.7556,-5.8046,-5.6883,-5.5239,-5.351,-5.0703,-4.7823,-4.5798,-4.6245,-4.8151,-5.0688,-5.336,-5.5329,-5.6882,-5.7565,-5.7821,-5.8354,-5.8428,-5.7604,-5.6781,-5.5545,-5.485,-5.4979,-5.6057,-5.7374,-5.9857,-6.1671,-6.3273,-6.4042,-6.4598,-6.5005,-6.5406,-6.6746,-6.832,-6.9738,-7.0518,-6.954,-6.6972,-6.5179,-6.3453,-6.3568,-6.3313,-6.1682,-6.0768,-5.8866,-5.7655,-5.6327,-5.4403,-5.199,-5.0482,-4.9572,-4.8678,-6.0197,-6.0197,-6.021,-6.1055,-6.2496,-6.2834,-6.4647,-6.7106,-6.7948,-6.9023,-7.0187,-7.0584,-7.0643,-7.0594,-6.9894,-6.9068,-6.7399,-6.4585,-6.1315,-5.9022,-5.7213,-5.5078,-5.3109,-5.1354,-4.898,-4.4256,-4.4284,-4.4397,-4.4451,-4.5846,-4.7455,-4.8743,-4.9792,-5.0849,-5.2057,-5.2513,-5.3254,-5.4624,-5.6035,-5.7712,-6.0002,-6.2044,-6.5953,-7.1175,-7.5077,-7.7957,-7.9578,-8.0318,-8.0039,-7.8338,-7.5006,-7.0664,-6.5518,-5.9724,-5.3992,-4.9013,-4.578,-4.4532,-4.5409,-4.7719,-5.1013,-5.4431,-5.7969,-6.0125,-6.0362,-5.9417,-5.7681,-5.4885,-5.1962,-4.8447,-4.6611,-4.6898,-4.8762,-5.1266,-5.3986,-5.6456,-5.8338,-5.9637,-5.9988,-6.0013,-5.9529,-5.8771,-5.7243,-5.5917,-5.5132,-5.4678,-5.5809,-5.7363,-5.9801,-6.1964,-6.3373,-6.4718,-6.5118,-6.5118,-6.5437,-6.5069,-6.6934,-6.6145,-6.6646,-6.3664,-6.1235,-5.7724,-5.575,-5.7641,-5.7271,-5.529,-5.3772,-5.2589,-5.1706,-5.1113,-5.0628,-4.9267,-4.8286,-4.75,-4.6997,-6.0695,-6.1217,-6.1202,-6.2161,-6.3606,-6.4367,-6.5531,-6.6955,-6.8457,-6.9327,-6.9882,-7.0525,-7.086,-7.081,-7.0783,-7.0085,-6.8751,-6.6677,-6.4833,-6.3015,-6.1396,-5.9451,-5.719,-5.5831,-5.3844,-5.1765,-4.9659,-4.7783,-4.6875,-4.8189,-4.9181,-4.9301,-5.0431,-5.1499,-5.1802,-5.2182,-5.2762,-5.3728,-5.5365,-5.7109,-5.8948,-6.2002,-6.598,-7.1669,-7.5339,-7.8143,-8.0087,-8.0757,-8.0436,-7.9164,-7.5928,-7.1953,-6.7341,-6.1328,-5.531,-4.9687,-4.5857,-4.425,-4.4876,-4.7837,-5.1614,-5.5487,-5.9276,-6.1736,-6.2201,-6.1084,-5.9104,-5.6188,-5.2005,-4.7927,-4.7022,-4.7207,-4.8892,-5.1563,-5.4307,-5.6795,-5.8538,-6.0164,-6.136,-6.1326,-6.0636,-5.9455,-5.778,-5.6221,-5.4984,-5.455,-5.5049,-5.6718,-5.8913,-6.108,-6.2979,-6.4185,-6.5395,-6.5194,-6.5211,-6.4356,-6.4239,-6.1952,-6.0618,-5.6263,-5.3156,-4.8605,-4.7229,-4.7225,-4.8202,-4.7696,-4.6518,-4.6248,-4.7341,-4.8028,-4.7464,-4.6902,-4.7215,-4.7314,-4.7131,-6.1669,-6.1552,-6.198,-6.3123,-6.4558,-6.5184,-6.6438,-6.8028,-6.9126,-6.9833,-7.0247,-7.0452,-7.0681,-7.0884,-7.0527,-7.0323,-7.004,-6.9191,-6.7595,-6.5997,-6.4728,-6.2646,-6.0251,-5.9085,-5.7959,-5.6485,-5.4677,-5.1991,-4.9372,-5.0542,-5.1154,-5.1288,-5.2103,-5.2465,-5.2103,-5.2372,-5.285,-5.3561,-5.5031,-5.6831,-5.8817,-6.2638,-6.7473,-7.1538,-7.5668,-7.863,-8.0556,-8.1945,-8.1584,-7.9995,-7.7254,-7.3718,-6.9538,-6.501,-5.9014,-5.2012,-4.7697,-4.577,-4.6315,-4.9445,-5.3429,-5.7226,-6.0884,-6.3361,-6.3818,-6.2584,-5.9789,-5.5632,-5.1882,-4.7697,-4.6909,-4.6988,-4.8647,-5.1437,-5.4349,-5.6914,-5.8966,-6.0782,-6.1687,-6.201,-6.098,-5.9596,-5.791,-5.6336,-5.4984,-5.4544,-5.4672,-5.6151,-5.8006,-5.9799,-6.1724,-6.2606,-6.3293,-6.2552,-6.1956,-6.0617,-5.8788,-5.6702,-5.2999,-4.8634,-4.3522,-3.8237,-3.5227,-3.4009,-3.5426,-3.8471,-4.0815,-4.1047,-4.2981,-4.506,-4.549,-4.5905,-4.6835,-4.7223,-4.7488,-6.2547,-6.2175,-6.2662,-6.3838,-6.5379,-6.5981,-6.7313,-6.9002,-6.9783,-7.0323,-7.0706,-7.029,-7.0303,-7.0599,-7.0423,-7.0324,-7.0986,-7.0191,-6.8953,-6.7503,-6.669,-6.4748,-6.2579,-6.1486,-6.055,-5.8909,-5.8258,-5.6803,-5.3728,-5.3827,-5.3749,-5.3503,-5.4011,-5.3832,-5.3162,-5.2962,-5.3437,-5.3983,-5.5076,-5.695,-6.0538,-6.4665,-6.8791,-7.2163,-7.6063,-7.8936,-8.0782,-8.2187,-8.2086,-8.0542,-7.8261,-7.5463,-7.2189,-6.9438,-6.4075,-5.6523,-5.1849,-4.9751,-4.9919,-5.182,-5.5436,-5.8468,-6.2227,-6.4115,-6.4372,-6.2562,-5.9646,-5.4177,-5.0491,-4.8049,-4.7117,-4.6856,-4.8316,-5.0857,-5.3788,-5.6599,-5.8745,-6.0448,-6.153,-6.1506,-6.0834,-5.9667,-5.7988,-5.6525,-5.51,-5.4062,-5.4172,-5.5223,-5.6996,-5.8088,-5.9569,-6.0424,-6.061,-5.9388,-5.7969,-5.552,-5.2615,-4.8813,-4.3694,-3.8354,-3.2723,-2.7001,-2.5014,-2.3834,-2.6062,-2.9201,-3.2434,-3.6615,-3.9333,-4.1566,-4.3461,-4.5263,-4.6866,-4.8605,-4.9561,-6.2913,-6.4008,-6.3372,-6.4089,-6.5832,-6.7346,-6.8167,-6.8783,-7.0218,-7.0622,-7.0126,-6.9916,-6.9572,-6.9401,-6.9847,-7.0157,-7.0235,-7.006,-6.9149,-6.7695,-6.7325,-6.5979,-6.3697,-6.2834,-6.1639,-6.0302,-5.949,-5.8448,-5.7074,-5.7483,-5.6871,-5.5625,-5.554,-5.5455,-5.3978,-5.3827,-5.3903,-5.4295,-5.5602,-5.873,-6.3125,-6.6465,-6.9717,-7.2899,-7.5865,-7.8519,-8.0548,-8.1734,-8.1703,-8.0684,-7.8917,-7.6514,-7.3717,-7.1031,-6.8745,-6.4772,-6.0661,-5.6405,-5.513,-5.5792,-5.713,-5.9365,-6.1619,-6.303,-6.3184,-6.1795,-5.8916,-5.5605,-5.1906,-4.9073,-4.7476,-4.6918,-4.812,-5.0133,-5.2903,-5.5514,-5.7781,-5.9452,-6.0586,-6.0944,-6.0279,-5.9323,-5.7993,-5.6601,-5.528,-5.4295,-5.3792,-5.4823,-5.57,-5.6861,-5.7251,-5.7931,-5.7078,-5.5845,-5.2958,-5.058,-4.6823,-4.2166,-3.4958,-2.8873,-2.423,-1.9569,-1.6328,-1.6026,-1.8211,-2.1907,-2.6784,-3.1221,-3.5283,-3.8743,-4.1586,-4.4609,-4.7471,-4.9297,-5.1583,-6.3306,-6.3911,-6.4499,-6.5471,-6.6776,-6.805,-6.859,-6.8876,-6.9949,-7.0092,-6.9262,-6.8798,-6.8354,-6.8317,-6.8994,-6.9419,-6.9515,-6.9497,-6.8894,-6.7825,-6.7454,-6.6306,-6.4333,-6.3534,-6.2561,-6.1195,-6.0702,-6.0504,-5.9924,-5.9178,-5.8186,-5.7104,-5.6952,-5.6405,-5.4763,-5.4752,-5.4736,-5.5499,-5.744,-6.0827,-6.453,-6.7568,-7.0275,-7.3218,-7.6184,-7.837,-7.9938,-8.1038,-8.0928,-8.0119,-7.9026,-7.7711,-7.5763,-7.3997,-7.2559,-7.0681,-6.7229,-6.3351,-6.0147,-5.9558,-5.9783,-6.022,-6.1336,-6.1988,-6.1992,-6.0695,-5.8557,-5.6084,-5.3036,-5.0157,-4.7742,-4.6865,-4.766,-4.935,-5.1663,-5.4212,-5.6397,-5.7915,-5.9164,-5.9443,-5.9656,-5.8564,-5.764,-5.6525,-5.5264,-5.4125,-5.3585,-5.3888,-5.4797,-5.5496,-5.5513,-5.5172,-5.3784,-5.1995,-4.826,-4.5087,-4.1423,-3.6066,-2.669,-2.1109,-1.7271,-1.3305,-1.0654,-0.9724,-1.1736,-1.6026,-2.1491,-2.6865,-3.1903,-3.6073,-4.0135,-4.3776,-4.7567,-5.1804,-5.4599,-6.3651,-6.3681,-6.5071,-6.6273,-6.7209,-6.8181,-6.8472,-6.8446,-6.936,-6.9303,-6.8472,-6.7677,-6.729,-6.7677,-6.8259,-6.8607,-6.8661,-6.8566,-6.8136,-6.7609,-6.7021,-6.584,-6.4396,-6.3648,-6.2756,-6.1447,-6.1662,-6.1617,-6.1353,-6.0698,-5.9646,-5.8264,-5.7804,-5.6861,-5.5677,-5.504,-5.5026,-5.6322,-5.8994,-6.231,-6.5621,-6.8124,-7.0614,-7.3256,-7.5824,-7.7932,-7.902,-7.9789,-7.9756,-7.9326,-7.9228,-7.8339,-7.6837,-7.621,-7.5543,-7.4025,-7.1507,-6.9049,-6.5834,-6.3958,-6.2573,-6.2128,-6.1637,-6.1885,-6.1421,-6.0032,-5.841,-5.6805,-5.433,-5.1078,-4.8141,-4.6839,-4.6891,-4.8166,-5.0025,-5.2638,-5.5001,-5.6232,-5.726,-5.7672,-5.7809,-5.7661,-5.6787,-5.6228,-5.5247,-5.4017,-5.3528,-5.335,-5.3585,-5.3993,-5.3156,-5.2426,-5.0529,-4.7921,-4.3573,-3.979,-3.5933,-3.0029,-2.0667,-1.4005,-1.0536,-0.8258,-0.6112,-0.5941,-0.7387,-1.2581,-1.9361,-2.4109,-2.882,-3.3684,-3.856,-4.3617,-4.798,-5.3071,-5.9051,-6.3783,-6.386,-6.4638,-6.5509,-6.6436,-6.7471,-6.7765,-6.7503,-6.8488,-6.8374,-6.7387,-6.6728,-6.6613,-6.7193,-6.7328,-6.7522,-6.7716,-6.7676,-6.717,-6.6489,-6.5685,-6.4893,-6.3899,-6.3075,-6.2419,-6.1614,-6.1901,-6.2262,-6.253,-6.2054,-6.0769,-5.9313,-5.8484,-5.693,-5.5751,-5.5114,-5.5889,-5.7434,-6.0104,-6.3081,-6.6071,-6.8586,-7.0703,-7.2806,-7.4288,-7.5538,-7.7165,-7.7937,-7.8356,-7.8207,-7.8649,-7.8903,-7.7873,-7.7543,-7.7137,-7.6519,-7.4664,-7.2732,-7.0998,-6.747,-6.525,-6.4521,-6.3659,-6.2531,-6.2262,-6.157,-5.9862,-5.7951,-5.6103,-5.2608,-4.9353,-4.6839,-4.638,-4.6545,-4.8052,-5.0134,-5.2427,-5.4116,-5.5131,-5.5677,-5.5866,-5.568,-5.5556,-5.4875,-5.4773,-5.3545,-5.2734,-5.2472,-5.1625,-5.1609,-5.0246,-4.9098,-4.7225,-4.4014,-3.8945,-3.4498,-2.9295,-2.3558,-1.5713,-0.9378,-0.4375,-0.2668,-0.2345,-0.5554,-0.7949,-1.259,-1.7536,-2.3854,-2.9233,-3.2682,-3.7607,-4.4813,-5.3235,-6.0449,-6.6503,-6.2965,-6.3085,-6.3902,-6.4808,-6.573,-6.6648,-6.6306,-6.5541,-6.6161,-6.603,-6.5218,-6.4871,-6.5083,-6.5698,-6.5951,-6.6204,-6.6651,-6.6786,-6.6263,-6.5773,-6.5187,-6.4333,-6.3402,-6.2641,-6.2206,-6.1492,-6.1705,-6.229,-6.2627,-6.2385,-6.1695,-6.0417,-5.9144,-5.7679,-5.6425,-5.5733,-5.6753,-5.8397,-6.0739,-6.3399,-6.6527,-6.9117,-7.1163,-7.3044,-7.4062,-7.4686,-7.5468,-7.57,-7.6157,-7.6769,-7.743,-7.7953,-7.8456,-7.8395,-7.8386,-7.8263,-7.6405,-7.5443,-7.4208,-7.0455,-6.7346,-6.5996,-6.4758,-6.3733,-6.3842,-6.3651,-6.2622,-6.0771,-5.899,-5.5822,-5.0954,-4.7899,-4.6077,-4.5395,-4.5947,-4.7978,-4.9789,-5.1614,-5.2911,-5.3563,-5.3746,-5.3772,-5.368,-5.3426,-5.3364,-5.3196,-5.2364,-5.1532,-5.0832,-4.9972,-4.9052,-4.7494,-4.5792,-4.1515,-3.6384,-2.9774,-2.2849,-1.6929,-1.1156,-0.6378,-0.1765,-0.0259,-0.0784,-0.4406,-0.918,-1.4378,-1.9693,-2.5244,-3.0405,-3.5395,-4.1668,-4.8627,-5.7504,-6.7285,-7.3441,-6.2465,-6.2585,-6.3377,-6.4145,-6.4831,-6.5483,-6.5002,-6.4084,-6.4532,-6.4385,-6.3611,-6.3477,-6.392,-6.4574,-6.4946,-6.5528,-6.6129,-6.6322,-6.5834,-6.5248,-6.4504,-6.3541,-6.2438,-6.1508,-6.0763,-6.0686,-6.0934,-6.1366,-6.2094,-6.1693,-6.1238,-6.0639,-5.9767,-5.8094,-5.679,-5.6587,-5.7304,-5.8792,-6.1134,-6.3321,-6.6449,-6.8869,-7.0738,-7.2221,-7.3086,-7.3783,-7.4017,-7.4267,-7.4636,-7.5406,-7.6183,-7.7247,-7.8092,-7.8707,-7.8865,-7.8592,-7.8028,-7.6943,-7.5366,-7.2695,-6.9574,-6.8249,-6.7263,-6.6564,-6.6399,-6.66,-6.6394,-6.4803,-6.2824,-5.9485,-5.3788,-5.0139,-4.6474,-4.5321,-4.4128,-4.5588,-4.7401,-4.9138,-5.0385,-5.1393,-5.1602,-5.2041,-5.2457,-5.2498,-5.3001,-5.2887,-5.2282,-5.1531,-5.0847,-4.9972,-4.8958,-4.7129,-4.5056,-3.9931,-3.4325,-2.8226,-2.2007,-1.447,-0.9075,-0.4975,-0.1239,-0.0055,-0.0141,-0.3339,-0.8826,-1.5771,-2.2377,-2.8675,-3.4036,-3.9135,-4.7604,-5.7552,-6.4489,-7.4045,-7.9668,-6.2337,-6.2585,-6.3282,-6.3679,-6.3774,-6.3945,-6.3837,-6.3557,-6.3635,-6.3568,-6.3129,-6.2626,-6.3204,-6.4307,-6.4484,-6.4967,-6.5683,-6.5911,-6.548,-6.4411,-6.2952,-6.2067,-6.0854,-5.9753,-5.8916,-5.8978,-5.9475,-6.022,-6.1182,-6.1019,-6.0722,-6.019,-5.9259,-5.8148,-5.6589,-5.6485,-5.706,-5.8246,-6.1456,-6.3716,-6.6131,-6.8541,-6.999,-7.1213,-7.1975,-7.2667,-7.2734,-7.3076,-7.3446,-7.4116,-7.5027,-7.6118,-7.7274,-7.7905,-7.8419,-7.898,-7.9036,-7.8559,-7.779,-7.4678,-7.2617,-7.1155,-7.0458,-7.0082,-6.9784,-7.0144,-7.0583,-6.8963,-6.703,-6.3227,-5.7959,-5.2684,-4.8762,-4.5551,-4.4387,-4.4146,-4.6094,-4.7565,-4.9066,-5.01,-5.0258,-5.0564,-5.1182,-5.1755,-5.2446,-5.2509,-5.2063,-5.1641,-5.1353,-5.1046,-5.0406,-4.8872,-4.6717,-4.1612,-3.6018,-2.8248,-2.1082,-1.3348,-0.7913,-0.4803,-0.3257,-0.2974,-0.3224,-0.3972,-1.0249,-1.8896,-2.5808,-3.237,-4.2447,-5.3222,-5.9963,-6.8429,-7.4714,-8.0013,-8.5421,-6.0923,-6.1486,-6.1254,-6.1173,-6.1414,-6.2564,-6.2703,-6.2095,-6.1552,-6.1225,-6.1131,-6.0768,-6.1678,-6.2858,-6.3341,-6.3669,-6.4307,-6.3878,-6.3369,-6.2327,-6.0716,-5.9581,-5.8445,-5.7517,-5.6837,-5.7146,-5.7815,-5.8622,-5.9506,-5.9671,-6.0087,-5.9711,-5.8782,-5.7955,-5.7619,-5.7908,-5.8892,-6.039,-6.2341,-6.4284,-6.7008,-6.8606,-6.9947,-7.1232,-7.1575,-7.1679,-7.1637,-7.2017,-7.2497,-7.2899,-7.3678,-7.4872,-7.6364,-7.7183,-7.7715,-7.8377,-7.8585,-7.8495,-7.8106,-7.6716,-7.6014,-7.4982,-7.4095,-7.369,-7.3533,-7.4243,-7.409,-7.3041,-7.1198,-6.724,-6.2129,-5.632,-5.1824,-4.7503,-4.5905,-4.5278,-4.6223,-4.7241,-4.8414,-4.9152,-4.9521,-5.1425,-5.2486,-5.402,-5.4721,-5.521,-5.5287,-5.4239,-5.3844,-5.3722,-5.32,-5.1842,-4.9346,-4.4228,-3.8292,-3.1679,-2.4522,-1.7368,-1.1553,-0.7065,-0.6071,-0.5856,-0.7996,-0.9619,-1.5818,-2.2434,-3.2263,-4.3208,-5.8274,-6.9193,-7.3221,-7.6493,-8.0885,-8.5579,-9.0243,-5.9682,-6.0403,-5.9708,-5.9611,-6.0011,-6.0887,-6.0887,-6.0234,-5.9459,-5.9165,-5.9398,-5.921,-5.9968,-6.1036,-6.1328,-6.1578,-6.2138,-6.1113,-6.014,-5.9237,-5.7594,-5.6321,-5.5436,-5.4954,-5.4602,-5.4929,-5.5598,-5.642,-5.7304,-5.7793,-5.8389,-5.8659,-5.8267,-5.8109,-5.8304,-5.912,-6.0153,-6.1561,-6.3202,-6.5077,-6.7168,-6.8678,-6.9918,-7.0874,-7.1354,-7.142,-7.1093,-7.1186,-7.1622,-7.1885,-7.2562,-7.3625,-7.5129,-7.6076,-7.6543,-7.7073,-7.7698,-7.8125,-7.8786,-7.8667,-7.8233,-7.8492,-7.752,-7.6922,-7.6987,-7.7464,-7.7505,-7.6648,-7.5131,-7.1747,-6.692,-6.1055,-5.6454,-5.2138,-4.9493,-4.903,-4.8524,-4.977,-5.035,-5.0728,-5.1448,-5.304,-5.4821,-5.6278,-5.7684,-5.8216,-5.8687,-5.7772,-5.7174,-5.7192,-5.7192,-5.6084,-5.3766,-4.9283,-4.3372,-3.6356,-2.9061,-2.1486,-1.5891,-1.0597,-0.8893,-0.8766,-1.1987,-1.5318,-1.9745,-2.7094,-4.1245,-5.4378,-6.6856,-7.6051,-8.1583,-8.4612,-8.7367,-9.0228,-9.3495,-5.877,-5.9493,-5.8741,-5.8877,-5.9571,-5.8884,-5.8638,-5.8683,-5.7857,-5.7921,-5.8513,-5.7629,-5.8064,-5.921,-5.8815,-5.866,-5.8695,-5.7369,-5.6364,-5.5281,-5.3742,-5.2779,-5.2239,-5.199,-5.1931,-5.2292,-5.2901,-5.3739,-5.47,-5.576,-5.6691,-5.7478,-5.7563,-5.8002,-5.8808,-5.9759,-6.0859,-6.2414,-6.3896,-6.5625,-6.7328,-6.8405,-6.9484,-7.042,-7.0953,-7.1102,-7.1144,-7.1317,-7.1448,-7.1606,-7.1862,-7.249,-7.3232,-7.3961,-7.487,-7.5775,-7.6629,-7.8191,-7.9637,-7.9428,-8.0037,-8.0392,-7.995,-7.9562,-7.9442,-7.9753,-7.9753,-7.9424,-7.8204,-7.5786,-7.2379,-6.749,-6.2711,-5.8882,-5.5226,-5.3989,-5.3095,-5.3359,-5.3821,-5.4253,-5.4822,-5.6278,-5.8414,-5.99,-6.1296,-6.2876,-6.3693,-6.4311,-6.3538,-6.2566,-6.2307,-6.1564,-5.8783,-5.4876,-4.8653,-4.1624,-3.4005,-2.6477,-2.018,-1.5193,-1.3424,-1.224,-1.5375,-1.8746,-2.2291,-3.1597,-4.6948,-6.0435,-7.2754,-8.0268,-8.4258,-8.7595,-8.8613,-9.1262,-9.459,-5.6865,-5.8546,-5.7194,-5.7158,-5.7718,-5.6493,-5.6591,-5.7702,-5.6975,-5.682,-5.6939,-5.6015,-5.6017,-5.6123,-5.5691,-5.4959,-5.3822,-5.2743,-5.1739,-5.0699,-4.9792,-4.9332,-4.9122,-4.9163,-4.9125,-4.9604,-5.025,-5.1106,-5.1711,-5.3145,-5.4936,-5.5818,-5.6575,-5.7629,-5.8895,-5.9998,-6.1562,-6.3117,-6.4443,-6.5781,-6.7078,-6.8125,-6.9189,-7.0098,-7.0446,-7.0563,-7.0676,-7.1218,-7.1203,-7.0774,-7.1326,-7.2054,-7.3033,-7.3509,-7.4101,-7.5673,-7.67,-7.779,-7.9336,-7.9459,-7.9971,-8.1307,-8.1152,-8.1173,-8.1155,-8.1152,-8.1376,-8.0753,-8.0209,-7.793,-7.5681,-7.1814,-6.7998,-6.4704,-6.1471,-5.9924,-5.9042,-5.8685,-5.8998,-5.9164,-5.9709,-6.087,-6.2828,-6.3633,-6.526,-6.7331,-6.87,-6.9382,-6.9357,-6.8184,-6.7352,-6.6539,-6.3583,-5.9647,-5.3994,-4.7256,-3.924,-3.1654,-2.4872,-1.8927,-1.6033,-1.5782,-1.882,-2.3499,-2.9263,-4.0118,-5.3783,-6.5233,-7.3535,-7.8675,-8.2824,-8.6761,-9.0124,-9.1721,-9.3957,-5.4708,-5.6115,-5.4898,-5.4862,-5.5422,-5.4591,-5.4851,-5.566,-5.538,-5.5176,-5.5112,-5.456,-5.3923,-5.3378,-5.2487,-5.1261,-4.9748,-4.8033,-4.6998,-4.6594,-4.5935,-4.5879,-4.5948,-4.6593,-4.7159,-4.7587,-4.8335,-4.923,-4.9714,-5.1347,-5.3213,-5.4655,-5.5528,-5.7138,-5.8562,-5.9667,-6.1394,-6.3201,-6.4763,-6.5847,-6.6798,-6.7735,-6.8839,-6.9747,-6.998,-7.0049,-7.0367,-7.1163,-7.1175,-7.0775,-7.1475,-7.2041,-7.2745,-7.2963,-7.3978,-7.556,-7.6575,-7.7754,-7.9135,-7.9698,-8.0454,-8.1243,-8.1708,-8.1652,-8.1504,-8.1349,-8.1298,-8.1049,-8.0701,-7.9845,-7.7937,-7.5818,-7.3048,-7.026,-6.8218,-6.6108,-6.5405,-6.4757,-6.465,-6.4671,-6.5348,-6.6367,-6.7342,-6.7919,-6.8996,-7.078,-7.2289,-7.3152,-7.3219,-7.2548,-7.203,-7.1406,-6.8127,-6.4307,-5.8286,-5.1502,-4.2932,-3.4687,-2.7395,-2.2079,-1.8817,-1.8953,-2.1628,-2.9131,-3.7788,-4.7604,-5.596,-6.3187,-7.0804,-7.5352,-7.9066,-8.2015,-8.5511,-8.8971,-9.152,-5.2396,-5.3051,-5.2298,-5.2492,-5.2974,-5.2974,-5.2993,-5.3106,-5.3275,-5.3335,-5.3352,-5.3194,-5.2338,-5.1041,-4.9754,-4.7958,-4.6307,-4.4449,-4.3361,-4.2768,-4.2697,-4.281,-4.3542,-4.4317,-4.5095,-4.6189,-4.7067,-4.7529,-4.8678,-5.0206,-5.1994,-5.3586,-5.4868,-5.658,-5.8554,-5.9395,-6.1041,-6.3163,-6.4599,-6.5753,-6.6524,-6.7363,-6.8259,-6.9458,-6.9839,-7.0035,-7.0884,-7.1525,-7.2059,-7.1827,-7.176,-7.2075,-7.2407,-7.2977,-7.4296,-7.5573,-7.6663,-7.791,-7.9135,-7.9854,-8.0666,-8.1298,-8.1562,-8.1608,-8.1519,-8.1155,-8.0954,-8.1204,-8.0921,-8.0779,-7.9306,-7.8474,-7.6459,-7.4763,-7.3055,-7.1511,-7.0649,-7.0143,-6.9973,-7.0093,-7.0566,-7.1509,-7.1938,-7.2502,-7.2638,-7.4271,-7.4826,-7.5871,-7.6389,-7.6068,-7.5364,-7.4865,-7.0807,-6.6491,-6.1223,-5.401,-4.5646,-3.7673,-2.9989,-2.3373,-1.8721,-2.0654,-2.4269,-3.2043,-4.0202,-4.7391,-5.5348,-6.1716,-6.6602,-7.0224,-7.3848,-7.6536,-8.0199,-8.4638,-8.8438,-4.9776,-5.0488,-5.0776,-5.0985,-5.1124,-5.1031,-5.1053,-5.1144,-5.1201,-5.1684,-5.2144,-5.1549,-5.0371,-4.8815,-4.7958,-4.611,-4.315,-4.2358,-4.0841,-4.0368,-4.0124,-4.0674,-4.1232,-4.2295,-4.3213,-4.3942,-4.4782,-4.6219,-4.7855,-4.9418,-5.1138,-5.3336,-5.4745,-5.6636,-5.8803,-5.9584,-6.1259,-6.3169,-6.4287,-6.5468,-6.6299,-6.6531,-6.7135,-6.8038,-6.8544,-6.9398,-7.0221,-7.0889,-7.1583,-7.1941,-7.1579,-7.194,-7.2691,-7.3587,-7.4603,-7.5766,-7.7106,-7.8269,-7.9321,-8.0183,-8.0997,-8.1398,-8.1662,-8.1662,-8.1398,-8.0862,-8.0727,-8.1048,-8.1189,-8.1126,-8.0956,-8.0452,-8.0066,-7.8912,-7.7775,-7.671,-7.5738,-7.5463,-7.5224,-7.5458,-7.5853,-7.6116,-7.6557,-7.6631,-7.6751,-7.6781,-7.6642,-7.7181,-7.8293,-7.8374,-7.6949,-7.576,-7.2034,-6.7603,-6.2648,-5.5947,-4.7193,-3.9539,-3.1871,-2.5362,-1.9107,-2.2539,-2.7028,-3.4042,-4.1415,-4.7474,-5.2711,-5.7784,-6.2431,-6.5968,-6.9791,-7.3016,-7.6147,-8.0348,-8.4276,-4.6777,-4.7242,-4.8209,-4.8831,-4.9137,-4.8971,-4.92,-4.9525,-4.9601,-5.0206,-5.1031,-5.0495,-4.9496,-4.7858,-4.7127,-4.527,-4.2145,-4.1063,-4.002,-3.9083,-3.8685,-3.9291,-3.9889,-4.0712,-4.2051,-4.2901,-4.411,-4.5634,-4.7335,-4.9039,-5.0909,-5.299,-5.4759,-5.6823,-5.8911,-6.0442,-6.1704,-6.3214,-6.4162,-6.5033,-6.5982,-6.6106,-6.6769,-6.7499,-6.8296,-6.909,-7.0194,-7.1014,-7.1657,-7.2327,-7.2375,-7.2809,-7.3472,-7.3982,-7.4804,-7.5937,-7.7234,-7.8623,-7.9675,-8.072,-8.1504,-8.1829,-8.208,-8.2109,-8.1437,-8.091,-8.051,-8.0767,-8.0823,-8.0703,-8.1498,-8.1407,-8.199,-8.1608,-8.0821,-8.0029,-7.9542,-7.935,-7.9554,-7.9978,-8.0104,-8.0047,-8.0196,-7.9695,-7.9725,-7.9028,-7.8853,-7.8804,-7.983,-8.013,-7.882,-7.6902,-7.3349,-6.85,-6.3173,-5.621,-4.8097,-4.071,-3.3707,-2.8309,-2.3481,-2.615,-3.0136,-3.5551,-4.0363,-4.4902,-5.0121,-5.5136,-5.8949,-6.2638,-6.6415,-7.0115,-7.3249,-7.6241,-8.0108,-4.4327,-4.4303,-4.5456,-4.6417,-4.7074,-4.7041,-4.7438,-4.8201,-4.8407,-4.9019,-4.9732,-4.9936,-4.9375,-4.8352,-4.7267,-4.5167,-4.3178,-4.1502,-3.9863,-3.8518,-3.7848,-3.8408,-3.9124,-3.9929,-4.1211,-4.2777,-4.4299,-4.5313,-4.6572,-4.8758,-5.094,-5.2672,-5.4836,-5.7052,-5.9397,-6.0981,-6.2051,-6.355,-6.4496,-6.4832,-6.5303,-6.5751,-6.6726,-6.7571,-6.8416,-6.926,-7.0546,-7.1601,-7.2146,-7.2971,-7.3504,-7.409,-7.4494,-7.4989,-7.5755,-7.6778,-7.8434,-7.947,-8.0363,-8.1998,-8.2262,-8.2372,-8.2573,-8.2265,-8.144,-8.0846,-8.0477,-8.0445,-8.051,-8.096,-8.1776,-8.2573,-8.3232,-8.3889,-8.3266,-8.2806,-8.2631,-8.2568,-8.3061,-8.365,-8.3747,-8.3566,-8.3415,-8.2884,-8.2292,-8.1577,-8.1198,-8.1154,-8.1035,-8.0699,-8.0005,-7.7998,-7.5145,-6.9942,-6.4111,-5.7214,-4.953,-4.2322,-3.5678,-3.1021,-2.7815,-2.8814,-3.0964,-3.4823,-3.9673,-4.3969,-4.8318,-5.3148,-5.6594,-6.036,-6.4318,-6.828,-7.0902,-7.3848,-7.636,-4.4247,-4.417,-4.4333,-4.4782,-4.5394,-4.545,-4.6004,-4.6875,-4.7654,-4.8183,-4.8574,-4.884,-4.8733,-4.8286,-4.7676,-4.5954,-4.3607,-4.1966,-3.9922,-3.8215,-3.8126,-3.8174,-3.869,-3.9747,-4.0585,-4.2386,-4.4436,-4.59,-4.7387,-4.9492,-5.1599,-5.3603,-5.6209,-5.8079,-5.9354,-6.112,-6.3151,-6.4398,-6.4701,-6.4924,-6.5635,-6.614,-6.6438,-6.734,-6.8365,-6.9528,-7.0661,-7.165,-7.2888,-7.3947,-7.4688,-7.5273,-7.5737,-7.6163,-7.7011,-7.8214,-7.9917,-8.084,-8.1928,-8.3088,-8.3269,-8.2471,-8.2467,-8.211,-8.1259,-8.0461,-8.0382,-8.074,-8.0965,-8.142,-8.2161,-8.2823,-8.3522,-8.4134,-8.4093,-8.3939,-8.3803,-8.408,-8.4518,-8.5129,-8.5619,-8.5731,-8.5925,-8.5355,-8.4557,-8.3868,-8.31,-8.295,-8.2224,-8.1649,-8.1073,-7.8939,-7.6617,-7.136,-6.5464,-5.9003,-5.1754,-4.4329,-3.749,-3.2328,-2.9621,-3.0148,-3.2489,-3.5136,-3.8859,-4.3056,-4.7321,-5.2024,-5.6003,-5.9815,-6.3262,-6.67,-6.9081,-7.1342,-7.3776]}]]